Wetterdaten: Donnerstag, 08.03.2018
Datum Zeit Temp. A. Feuchte A. Luftdruck Regen Wind Richtung Richtung Sonnenschein ET UV Solar Taupunkt Windchill Windböen
08.03.2018 00:00 1,2 °C 87 % 1004,5 hPa 0,0 mm 10,0 km/h (2 Bft) W 279 ° 0 min 0,000 mm 0,0 UV-I 0 W/m² -0,7 °C -1,9 °C 14,5 km/h (3 Bft)
08.03.2018 00:01 1,2 °C 87 % 1004,5 hPa 0,0 mm 13,9 km/h (3 Bft) W 261 ° 0 min 0,000 mm 0,0 UV-I 0 W/m² -0,7 °C -2,7 °C 22,5 km/h (4 Bft)
08.03.2018 00:02 1,3 °C 87 % 1004,5 hPa 0,0 mm 12,9 km/h (3 Bft) W 271 ° 0 min 0,000 mm 0,0 UV-I 0 W/m² -0,6 °C -2,4 °C 19,3 km/h (3 Bft)
08.03.2018 00:03 1,3 °C 87 % 1004,5 hPa 0,0 mm 12,5 km/h (3 Bft) W 269 ° 0 min 0,000 mm 0,0 UV-I 0 W/m² -0,6 °C -2,3 °C 16,1 km/h (3 Bft)
08.03.2018 00:04 1,3 °C 87 % 1004,5 hPa 0,0 mm 11,5 km/h (2 Bft) W 263 ° 0 min 0,000 mm 0,0 UV-I 0 W/m² -0,6 °C -2,1 °C 17,7 km/h (3 Bft)
08.03.2018 00:05 1,3 °C 87 % 1004,6 hPa 0,0 mm 14,1 km/h (3 Bft) W 259 ° 0 min 0,000 mm 0,0 UV-I 0 W/m² -0,6 °C -2,6 °C 24,1 km/h (4 Bft)
08.03.2018 00:06 1,3 °C 87 % 1004,6 hPa 0,0 mm 11,4 km/h (2 Bft) W 264 ° 0 min 0,000 mm 0,0 UV-I 0 W/m² -0,6 °C -2,1 °C 16,1 km/h (3 Bft)
08.03.2018 00:07 1,3 °C 86 % 1004,6 hPa 0,0 mm 12,2 km/h (2 Bft) W-NW 290 ° 0 min 0,000 mm 0,0 UV-I 0 W/m² -0,8 °C -2,3 °C 20,9 km/h (4 Bft)
08.03.2018 00:08 1,4 °C 86 % 1004,6 hPa 0,0 mm 14,1 km/h (3 Bft) W 266 ° 0 min 0,000 mm 0,0 UV-I 0 W/m² -0,7 °C -2,5 °C 20,9 km/h (4 Bft)
08.03.2018 00:09 1,4 °C 86 % 1004,6 hPa 0,0 mm 14,2 km/h (3 Bft) SW 227 ° 0 min 0,000 mm 0,0 UV-I 0 W/m² -0,7 °C -2,5 °C 20,9 km/h (4 Bft)
08.03.2018 00:10 1,4 °C 86 % 1004,6 hPa 0,0 mm 13,0 km/h (3 Bft) W 265 ° 0 min 0,000 mm 0,0 UV-I 0 W/m² -0,7 °C -2,3 °C 17,7 km/h (3 Bft)
08.03.2018 00:11 1,4 °C 86 % 1004,6 hPa 0,0 mm 15,3 km/h (3 Bft) W 263 ° 0 min 0,000 mm 0,0 UV-I 0 W/m² -0,7 °C -2,7 °C 22,5 km/h (4 Bft)
08.03.2018 00:12 1,5 °C 86 % 1004,6 hPa 0,0 mm 14,6 km/h (3 Bft) W 273 ° 0 min 0,000 mm 0,0 UV-I 0 W/m² -0,6 °C -2,5 °C 20,9 km/h (4 Bft)
08.03.2018 00:13 1,5 °C 86 % 1004,6 hPa 0,0 mm 16,9 km/h (3 Bft) W-SW 248 ° 0 min 0,000 mm 0,0 UV-I 0 W/m² -0,6 °C -2,9 °C 22,5 km/h (4 Bft)
08.03.2018 00:14 1,6 °C 85 % 1004,6 hPa 0,0 mm 14,7 km/h (3 Bft) SW 215 ° 0 min 0,000 mm 0,0 UV-I 0 W/m² -0,6 °C -2,4 °C 24,1 km/h (4 Bft)
08.03.2018 00:15 1,6 °C 85 % 1004,7 hPa 0,0 mm 9,0 km/h (2 Bft) W-SW 237 ° 0 min 0,000 mm 0,0 UV-I 0 W/m² -0,6 °C -1,1 °C 16,1 km/h (3 Bft)
08.03.2018 00:16 1,6 °C 85 % 1004,7 hPa 0,0 mm 11,7 km/h (2 Bft) W-SW 258 ° 0 min 0,000 mm 0,0 UV-I 0 W/m² -0,6 °C -1,8 °C 24,1 km/h (4 Bft)
08.03.2018 00:17 1,6 °C 85 % 1004,7 hPa 0,0 mm 16,9 km/h (3 Bft) W 263 ° 0 min 0,000 mm 0,0 UV-I 0 W/m² -0,6 °C -2,8 °C 24,1 km/h (4 Bft)
08.03.2018 00:18 1,6 °C 85 % 1004,6 hPa 0,0 mm 22,5 km/h (4 Bft) W-NW 299 ° 0 min 0,000 mm 0,0 UV-I 0 W/m² -0,6 °C -3,6 °C 30,6 km/h (5 Bft)
08.03.2018 00:19 1,7 °C 84 % 1004,7 hPa 0,0 mm 12,5 km/h (3 Bft) W 271 ° 0 min 0,000 mm 0,0 UV-I 0 W/m² -0,7 °C -1,8 °C 16,1 km/h (3 Bft)
08.03.2018 00:20 1,7 °C 84 % 1004,7 hPa 0,0 mm 7,5 km/h (2 Bft) W-SW 250 ° 0 min 0,000 mm 0,0 UV-I 0 W/m² -0,7 °C -0,6 °C 19,3 km/h (3 Bft)
08.03.2018 00:21 1,7 °C 84 % 1004,7 hPa 0,0 mm 18,0 km/h (3 Bft) W-SW 252 ° 0 min 0,000 mm 0,0 UV-I 0 W/m² -0,7 °C -2,8 °C 30,6 km/h (5 Bft)
08.03.2018 00:22 1,7 °C 84 % 1004,8 hPa 0,0 mm 19,0 km/h (3 Bft) W-SW 251 ° 0 min 0,000 mm 0,0 UV-I 0 W/m² -0,7 °C -3,0 °C 24,1 km/h (4 Bft)
08.03.2018 00:23 1,7 °C 84 % 1004,8 hPa 0,0 mm 15,6 km/h (3 Bft) W 262 ° 0 min 0,000 mm 0,0 UV-I 0 W/m² -0,7 °C -2,4 °C 30,6 km/h (5 Bft)
08.03.2018 00:24 1,7 °C 84 % 1004,8 hPa 0,0 mm 20,5 km/h (4 Bft) W-SW 242 ° 0 min 0,000 mm 0,0 UV-I 0 W/m² -0,7 °C -3,2 °C 30,6 km/h (5 Bft)
08.03.2018 00:25 1,7 °C 84 % 1004,8 hPa 0,0 mm 16,4 km/h (3 Bft) W 273 ° 0 min 0,000 mm 0,0 UV-I 0 W/m² -0,7 °C -2,6 °C 27,4 km/h (4 Bft)
08.03.2018 00:26 1,8 °C 84 % 1004,8 hPa 0,0 mm 13,9 km/h (3 Bft) W 269 ° 0 min 0,000 mm 0,0 UV-I 0 W/m² -0,6 °C -2,0 °C 20,9 km/h (4 Bft)
08.03.2018 00:27 1,7 °C 84 % 1004,8 hPa 0,0 mm 15,5 km/h (3 Bft) W 261 ° 0 min 0,000 mm 0,0 UV-I 0 W/m² -0,7 °C -2,4 °C 20,9 km/h (4 Bft)
08.03.2018 00:28 1,7 °C 84 % 1004,9 hPa 0,0 mm 13,9 km/h (3 Bft) W 266 ° 0 min 0,000 mm 0,0 UV-I 0 W/m² -0,7 °C -2,1 °C 17,7 km/h (3 Bft)
08.03.2018 00:29 1,7 °C 84 % 1004,9 hPa 0,0 mm 10,4 km/h (2 Bft) SW 231 ° 0 min 0,000 mm 0,0 UV-I 0 W/m² -0,7 °C -1,4 °C 17,7 km/h (3 Bft)
08.03.2018 00:30 1,7 °C 84 % 1004,9 hPa 0,0 mm 11,0 km/h (2 Bft) W 261 ° 0 min 0,000 mm 0,0 UV-I 0 W/m² -0,7 °C -1,5 °C 14,5 km/h (3 Bft)
08.03.2018 00:31 1,7 °C 84 % 1004,9 hPa 0,0 mm 12,7 km/h (3 Bft) W 259 ° 0 min 0,000 mm 0,0 UV-I 0 W/m² -0,7 °C -1,9 °C 14,5 km/h (3 Bft)
08.03.2018 00:32 1,7 °C 84 % 1004,9 hPa 0,0 mm 11,1 km/h (2 Bft) W 279 ° 0 min 0,000 mm 0,0 UV-I 0 W/m² -0,7 °C -1,5 °C 14,5 km/h (3 Bft)
08.03.2018 00:33 1,7 °C 84 % 1004,9 hPa 0,0 mm 9,9 km/h (2 Bft) W-NW 286 ° 0 min 0,000 mm 0,0 UV-I 0 W/m² -0,7 °C -1,3 °C 16,1 km/h (3 Bft)
08.03.2018 00:34 1,7 °C 84 % 1004,8 hPa 0,0 mm 7,2 km/h (2 Bft) W-SW 248 ° 0 min 0,000 mm 0,0 UV-I 0 W/m² -0,7 °C -0,5 °C 9,7 km/h (2 Bft)
08.03.2018 00:35 1,7 °C 84 % 1004,8 hPa 0,0 mm 9,1 km/h (2 Bft) W-SW 249 ° 0 min 0,000 mm 0,0 UV-I 0 W/m² -0,7 °C -1,1 °C 14,5 km/h (3 Bft)
08.03.2018 00:36 1,6 °C 84 % 1004,9 hPa 0,0 mm 7,0 km/h (2 Bft) W-SW 248 ° 0 min 0,000 mm 0,0 UV-I 0 W/m² -0,8 °C -0,5 °C 11,3 km/h (2 Bft)
08.03.2018 00:37 1,7 °C 84 % 1004,9 hPa 0,0 mm 12,4 km/h (3 Bft) W-NW 286 ° 0 min 0,000 mm 0,0 UV-I 0 W/m² -0,7 °C -1,8 °C 16,1 km/h (3 Bft)
08.03.2018 00:38 1,7 °C 84 % 1004,9 hPa 0,0 mm 13,3 km/h (3 Bft) W 263 ° 0 min 0,000 mm 0,0 UV-I 0 W/m² -0,7 °C -2,0 °C 17,7 km/h (3 Bft)
08.03.2018 00:39 1,7 °C 84 % 1004,9 hPa 0,0 mm 14,2 km/h (3 Bft) W 263 ° 0 min 0,000 mm 0,0 UV-I 0 W/m² -0,7 °C -2,2 °C 24,1 km/h (4 Bft)
08.03.2018 00:40 1,7 °C 84 % 1004,9 hPa 0,0 mm 8,8 km/h (2 Bft) W-SW 248 ° 0 min 0,000 mm 0,0 UV-I 0 W/m² -0,7 °C -1,0 °C 14,5 km/h (3 Bft)
08.03.2018 00:41 1,7 °C 84 % 1005,0 hPa 0,0 mm 13,2 km/h (3 Bft) W-SW 254 ° 0 min 0,000 mm 0,0 UV-I 0 W/m² -0,7 °C -2,0 °C 16,1 km/h (3 Bft)
08.03.2018 00:42 1,7 °C 84 % 1005,0 hPa 0,0 mm 7,0 km/h (2 Bft) W 261 ° 0 min 0,000 mm 0,0 UV-I 0 W/m² -0,7 °C -0,4 °C 12,9 km/h (3 Bft)
08.03.2018 00:43 1,7 °C 84 % 1005,0 hPa 0,0 mm 8,7 km/h (2 Bft) W 263 ° 0 min 0,000 mm 0,0 UV-I 0 W/m² -0,7 °C -0,9 °C 14,5 km/h (3 Bft)
08.03.2018 00:44 1,7 °C 84 % 1005,1 hPa 0,0 mm 12,9 km/h (3 Bft) W 269 ° 0 min 0,000 mm 0,0 UV-I 0 W/m² -0,7 °C -1,9 °C 17,7 km/h (3 Bft)
08.03.2018 00:45 1,6 °C 84 % 1005,1 hPa 0,0 mm 10,8 km/h (2 Bft) W 263 ° 0 min 0,000 mm 0,0 UV-I 0 W/m² -0,8 °C -1,6 °C 17,7 km/h (3 Bft)
08.03.2018 00:46 1,6 °C 84 % 1005,1 hPa 0,0 mm 8,6 km/h (2 Bft) S-SW 212 ° 0 min 0,000 mm 0,0 UV-I 0 W/m² -0,8 °C -1,0 °C 17,7 km/h (3 Bft)
08.03.2018 00:47 1,7 °C 84 % 1005,1 hPa 0,0 mm 10,9 km/h (2 Bft) W-SW 254 ° 0 min 0,000 mm 0,0 UV-I 0 W/m² -0,7 °C -1,5 °C 17,7 km/h (3 Bft)
08.03.2018 00:48 1,7 °C 84 % 1005,1 hPa 0,0 mm 8,7 km/h (2 Bft) W 281 ° 0 min 0,000 mm 0,0 UV-I 0 W/m² -0,7 °C -0,9 °C 16,1 km/h (3 Bft)
08.03.2018 00:49 1,7 °C 84 % 1005,1 hPa 0,0 mm 11,9 km/h (2 Bft) W 259 ° 0 min 0,000 mm 0,0 UV-I 0 W/m² -0,7 °C -1,7 °C 14,5 km/h (3 Bft)
08.03.2018 00:50 1,7 °C 84 % 1005,1 hPa 0,0 mm 9,3 km/h (2 Bft) W-SW 254 ° 0 min 0,000 mm 0,0 UV-I 0 W/m² -0,7 °C -1,1 °C 11,3 km/h (2 Bft)
08.03.2018 00:51 1,7 °C 84 % 1005,1 hPa 0,0 mm 7,0 km/h (2 Bft) W-SW 257 ° 0 min 0,000 mm 0,0 UV-I 0 W/m² -0,7 °C -0,4 °C 12,9 km/h (3 Bft)
08.03.2018 00:52 1,7 °C 84 % 1005,1 hPa 0,0 mm 6,4 km/h (2 Bft) W 268 ° 0 min 0,000 mm 0,0 UV-I 0 W/m² -0,7 °C -0,2 °C 12,9 km/h (3 Bft)
08.03.2018 00:53 1,7 °C 84 % 1005,2 hPa 0,0 mm 10,6 km/h (2 Bft) W-SW 252 ° 0 min 0,000 mm 0,0 UV-I 0 W/m² -0,7 °C -1,4 °C 14,5 km/h (3 Bft)
08.03.2018 00:54 1,7 °C 84 % 1005,2 hPa 0,0 mm 12,5 km/h (3 Bft) W 268 ° 0 min 0,000 mm 0,0 UV-I 0 W/m² -0,7 °C -1,8 °C 16,1 km/h (3 Bft)
08.03.2018 00:55 1,7 °C 84 % 1005,2 hPa 0,0 mm 10,5 km/h (2 Bft) W 271 ° 0 min 0,000 mm 0,0 UV-I 0 W/m² -0,7 °C -1,4 °C 14,5 km/h (3 Bft)
08.03.2018 00:56 1,6 °C 83 % 1005,2 hPa 0,0 mm 9,9 km/h (2 Bft) W 263 ° 0 min 0,000 mm 0,0 UV-I 0 W/m² -1,0 °C -1,4 °C 16,1 km/h (3 Bft)
08.03.2018 00:57 1,6 °C 84 % 1005,2 hPa 0,0 mm 9,2 km/h (2 Bft) W 262 ° 0 min 0,000 mm 0,0 UV-I 0 W/m² -0,8 °C -1,2 °C 12,9 km/h (3 Bft)
08.03.2018 00:58 1,5 °C 84 % 1005,2 hPa 0,0 mm 9,0 km/h (2 Bft) W-SW 245 ° 0 min 0,000 mm 0,0 UV-I 0 W/m² -0,9 °C -1,3 °C 11,3 km/h (2 Bft)
08.03.2018 00:59 1,4 °C 84 % 1005,2 hPa 0,0 mm 7,6 km/h (2 Bft) W 269 ° 0 min 0,000 mm 0,0 UV-I 0 W/m² -1,0 °C -1,0 °C 12,9 km/h (3 Bft)
08.03.2018 01:00 1,4 °C 84 % 1005,3 hPa 0,0 mm 11,5 km/h (2 Bft) W-SW 252 ° 0 min 0,025 mm 0,0 UV-I 0 W/m² -1,0 °C -2,0 °C 17,7 km/h (3 Bft)
08.03.2018 01:01 1,5 °C 84 % 1005,3 hPa 0,0 mm 5,6 km/h (1 Bft) W-SW 255 ° 0 min 0,000 mm 0,0 UV-I 0 W/m² -0,9 °C -0,1 °C 6,4 km/h (2 Bft)
08.03.2018 01:02 1,5 °C 84 % 1005,2 hPa 0,0 mm 6,2 km/h (2 Bft) W 270 ° 0 min 0,000 mm 0,0 UV-I 0 W/m² -0,9 °C -0,4 °C 9,7 km/h (2 Bft)
08.03.2018 01:03 1,5 °C 85 % 1005,3 hPa 0,0 mm 8,5 km/h (2 Bft) W 263 ° 0 min 0,000 mm 0,0 UV-I 0 W/m² -0,7 °C -1,1 °C 12,9 km/h (3 Bft)
08.03.2018 01:04 1,6 °C 85 % 1005,3 hPa 0,0 mm 9,8 km/h (2 Bft) W 274 ° 0 min 0,000 mm 0,0 UV-I 0 W/m² -0,6 °C -1,4 °C 14,5 km/h (3 Bft)
08.03.2018 01:05 1,6 °C 84 % 1005,3 hPa 0,0 mm 8,3 km/h (2 Bft) W 281 ° 0 min 0,000 mm 0,0 UV-I 0 W/m² -0,8 °C -0,9 °C 12,9 km/h (3 Bft)
08.03.2018 01:06 1,6 °C 84 % 1005,3 hPa 0,0 mm 7,0 km/h (2 Bft) W 273 ° 0 min 0,000 mm 0,0 UV-I 0 W/m² -0,8 °C -0,5 °C 11,3 km/h (2 Bft)
08.03.2018 01:07 1,7 °C 84 % 1005,3 hPa 0,0 mm 8,4 km/h (2 Bft) W 265 ° 0 min 0,000 mm 0,0 UV-I 0 W/m² -0,7 °C -0,9 °C 11,3 km/h (2 Bft)
08.03.2018 01:08 1,6 °C 84 % 1005,4 hPa 0,0 mm 5,0 km/h (1 Bft) W 259 ° 0 min 0,000 mm 0,0 UV-I 0 W/m² -0,8 °C 0,2 °C 6,4 km/h (2 Bft)
08.03.2018 01:09 1,6 °C 84 % 1005,4 hPa 0,0 mm 5,6 km/h (1 Bft) W 266 ° 0 min 0,000 mm 0,0 UV-I 0 W/m² -0,8 °C -0,0 °C 9,7 km/h (2 Bft)
08.03.2018 01:10 1,6 °C 84 % 1005,5 hPa 0,0 mm 10,5 km/h (2 Bft) W 269 ° 0 min 0,000 mm 0,0 UV-I 0 W/m² -0,8 °C -1,5 °C 14,5 km/h (3 Bft)
08.03.2018 01:11 1,6 °C 84 % 1005,5 hPa 0,0 mm 9,0 km/h (2 Bft) W 263 ° 0 min 0,000 mm 0,0 UV-I 0 W/m² -0,8 °C -1,1 °C 14,5 km/h (3 Bft)
08.03.2018 01:12 1,6 °C 84 % 1005,5 hPa 0,0 mm 7,9 km/h (2 Bft) W 273 ° 0 min 0,000 mm 0,0 UV-I 0 W/m² -0,8 °C -0,8 °C 12,9 km/h (3 Bft)
08.03.2018 01:13 1,6 °C 84 % 1005,5 hPa 0,0 mm 11,1 km/h (2 Bft) W-SW 257 ° 0 min 0,000 mm 0,0 UV-I 0 W/m² -0,8 °C -1,7 °C 16,1 km/h (3 Bft)
08.03.2018 01:14 1,6 °C 84 % 1005,5 hPa 0,0 mm 10,1 km/h (2 Bft) W-SW 254 ° 0 min 0,000 mm 0,0 UV-I 0 W/m² -0,8 °C -1,4 °C 16,1 km/h (3 Bft)
08.03.2018 01:15 1,6 °C 84 % 1005,5 hPa 0,0 mm 9,1 km/h (2 Bft) W 263 ° 0 min 0,000 mm 0,0 UV-I 0 W/m² -0,8 °C -1,2 °C 12,9 km/h (3 Bft)
08.03.2018 01:16 1,6 °C 84 % 1005,5 hPa 0,0 mm 5,1 km/h (1 Bft) W 259 ° 0 min 0,000 mm 0,0 UV-I 0 W/m² -0,8 °C 0,2 °C 8,0 km/h (2 Bft)
08.03.2018 01:17 1,6 °C 84 % 1005,5 hPa 0,0 mm 8,3 km/h (2 Bft) W 277 ° 0 min 0,000 mm 0,0 UV-I 0 W/m² -0,8 °C -0,9 °C 12,9 km/h (3 Bft)
08.03.2018 01:18 1,6 °C 84 % 1005,6 hPa 0,0 mm 7,1 km/h (2 Bft) W 261 ° 0 min 0,000 mm 0,0 UV-I 0 W/m² -0,8 °C -0,6 °C 9,7 km/h (2 Bft)
08.03.2018 01:19 1,6 °C 84 % 1005,6 hPa 0,0 mm 5,3 km/h (1 Bft) W 277 ° 0 min 0,000 mm 0,0 UV-I 0 W/m² -0,8 °C 0,1 °C 9,7 km/h (2 Bft)
08.03.2018 01:20 1,6 °C 84 % 1005,6 hPa 0,0 mm 5,1 km/h (1 Bft) W-SW 257 ° 0 min 0,000 mm 0,0 UV-I 0 W/m² -0,8 °C 0,2 °C 6,4 km/h (2 Bft)
08.03.2018 01:21 1,6 °C 84 % 1005,7 hPa 0,0 mm 6,6 km/h (2 Bft) W 267 ° 0 min 0,000 mm 0,0 UV-I 0 W/m² -0,8 °C -0,4 °C 11,3 km/h (2 Bft)
08.03.2018 01:22 1,6 °C 84 % 1005,7 hPa 0,0 mm 5,3 km/h (1 Bft) W 264 ° 0 min 0,000 mm 0,0 UV-I 0 W/m² -0,8 °C 0,1 °C 9,7 km/h (2 Bft)
08.03.2018 01:23 1,6 °C 84 % 1005,7 hPa 0,0 mm 6,5 km/h (2 Bft) W 266 ° 0 min 0,000 mm 0,0 UV-I 0 W/m² -0,8 °C -0,4 °C 9,7 km/h (2 Bft)
08.03.2018 01:24 1,6 °C 84 % 1005,7 hPa 0,0 mm 10,5 km/h (2 Bft) W 259 ° 0 min 0,000 mm 0,0 UV-I 0 W/m² -0,8 °C -1,5 °C 16,1 km/h (3 Bft)
08.03.2018 01:25 1,6 °C 84 % 1005,8 hPa 0,0 mm 9,5 km/h (2 Bft) W 277 ° 0 min 0,000 mm 0,0 UV-I 0 W/m² -0,8 °C -1,3 °C 14,5 km/h (3 Bft)
08.03.2018 01:26 1,6 °C 84 % 1005,7 hPa 0,0 mm 7,4 km/h (2 Bft) W 269 ° 0 min 0,000 mm 0,0 UV-I 0 W/m² -0,8 °C -0,7 °C 11,3 km/h (2 Bft)
08.03.2018 01:27 1,6 °C 84 % 1005,8 hPa 0,0 mm 5,6 km/h (1 Bft) W 266 ° 0 min 0,000 mm 0,0 UV-I 0 W/m² -0,8 °C -0,0 °C 11,3 km/h (2 Bft)
08.03.2018 01:28 1,6 °C 84 % 1005,8 hPa 0,0 mm 7,0 km/h (2 Bft) W-SW 257 ° 0 min 0,000 mm 0,0 UV-I 0 W/m² -0,8 °C -0,5 °C 11,3 km/h (2 Bft)
08.03.2018 01:29 1,6 °C 84 % 1005,8 hPa 0,0 mm 6,3 km/h (2 Bft) W 273 ° 0 min 0,000 mm 0,0 UV-I 0 W/m² -0,8 °C -0,3 °C 9,7 km/h (2 Bft)
08.03.2018 01:30 1,6 °C 84 % 1005,8 hPa 0,0 mm 5,0 km/h (1 Bft) W 276 ° 0 min 0,000 mm 0,0 UV-I 0 W/m² -0,8 °C 0,2 °C 6,4 km/h (2 Bft)
08.03.2018 01:31 1,6 °C 84 % 1005,8 hPa 0,0 mm 3,1 km/h (1 Bft) W 264 ° 0 min 0,000 mm 0,0 UV-I 0 W/m² -0,8 °C 1,6 °C 4,8 km/h (1 Bft)
08.03.2018 01:32 1,6 °C 83 % 1005,8 hPa 0,0 mm 4,9 km/h (1 Bft) W 259 ° 0 min 0,000 mm 0,0 UV-I 0 W/m² -1,0 °C 0,3 °C 6,4 km/h (2 Bft)
08.03.2018 01:33 1,7 °C 84 % 1005,8 hPa 0,0 mm 4,7 km/h (1 Bft) W 261 ° 0 min 0,000 mm 0,0 UV-I 0 W/m² -0,7 °C 0,5 °C 6,4 km/h (2 Bft)
08.03.2018 01:34 1,7 °C 83 % 1005,8 hPa 0,0 mm 2,6 km/h (1 Bft) W 261 ° 0 min 0,000 mm 0,0 UV-I 0 W/m² -0,9 °C 1,7 °C 3,2 km/h (1 Bft)
08.03.2018 01:35 1,7 °C 83 % 1005,8 hPa 0,0 mm 2,0 km/h (1 Bft) W 261 ° 0 min 0,000 mm 0,0 UV-I 0 W/m² -0,9 °C 1,7 °C 4,8 km/h (1 Bft)
08.03.2018 01:36 1,7 °C 83 % 1005,8 hPa 0,0 mm 0,7 km/h (0 Bft) W 261 ° 0 min 0,000 mm 0,0 UV-I 0 W/m² -0,9 °C 1,7 °C 3,2 km/h (1 Bft)
08.03.2018 01:37 1,7 °C 83 % 1005,7 hPa 0,0 mm 3,2 km/h (1 Bft) W-SW 251 ° 0 min 0,000 mm 0,0 UV-I 0 W/m² -0,9 °C 1,7 °C 8,0 km/h (2 Bft)
08.03.2018 01:38 1,7 °C 83 % 1005,7 hPa 0,0 mm 4,1 km/h (1 Bft) W 261 ° 0 min 0,000 mm 0,0 UV-I 0 W/m² -0,9 °C 1,7 °C 6,4 km/h (2 Bft)
08.03.2018 01:39 1,6 °C 82 % 1005,7 hPa 0,0 mm 2,7 km/h (1 Bft) W-SW 258 ° 0 min 0,000 mm 0,0 UV-I 0 W/m² -1,1 °C 1,6 °C 4,8 km/h (1 Bft)
08.03.2018 01:40 1,6 °C 83 % 1005,7 hPa 0,0 mm 4,0 km/h (1 Bft) W-SW 258 ° 0 min 0,000 mm 0,0 UV-I 0 W/m² -1,0 °C 1,6 °C 6,4 km/h (2 Bft)
08.03.2018 01:41 1,6 °C 82 % 1005,7 hPa 0,0 mm 3,0 km/h (1 Bft) W-SW 257 ° 0 min 0,000 mm 0,0 UV-I 0 W/m² -1,1 °C 1,6 °C 4,8 km/h (1 Bft)
08.03.2018 01:42 1,6 °C 82 % 1005,7 hPa 0,0 mm 1,4 km/h (1 Bft) W-SW 257 ° 0 min 0,000 mm 0,0 UV-I 0 W/m² -1,1 °C 1,6 °C 3,2 km/h (1 Bft)
08.03.2018 01:43 1,6 °C 82 % 1005,7 hPa 0,0 mm 1,8 km/h (1 Bft) W 272 ° 0 min 0,000 mm 0,0 UV-I 0 W/m² -1,1 °C 1,6 °C 6,4 km/h (2 Bft)
08.03.2018 01:44 1,6 °C 82 % 1005,7 hPa 0,0 mm 1,5 km/h (1 Bft) W-SW 254 ° 0 min 0,000 mm 0,0 UV-I 0 W/m² -1,1 °C 1,6 °C 6,4 km/h (2 Bft)
08.03.2018 01:45 1,6 °C 82 % 1005,7 hPa 0,0 mm 3,0 km/h (1 Bft) W-SW 249 ° 0 min 0,000 mm 0,0 UV-I 0 W/m² -1,1 °C 1,6 °C 4,8 km/h (1 Bft)
08.03.2018 01:46 1,7 °C 82 % 1005,7 hPa 0,0 mm 4,6 km/h (1 Bft) W-SW 254 ° 0 min 0,000 mm 0,0 UV-I 0 W/m² -1,0 °C 0,5 °C 8,0 km/h (2 Bft)
08.03.2018 01:47 1,6 °C 82 % 1005,8 hPa 0,0 mm 5,4 km/h (1 Bft) W-SW 244 ° 0 min 0,000 mm 0,0 UV-I 0 W/m² -1,1 °C 0,1 °C 8,0 km/h (2 Bft)
08.03.2018 01:48 1,7 °C 82 % 1005,8 hPa 0,0 mm 4,3 km/h (1 Bft) W-SW 237 ° 0 min 0,000 mm 0,0 UV-I 0 W/m² -1,0 °C 1,7 °C 6,4 km/h (2 Bft)
08.03.2018 01:49 1,7 °C 82 % 1005,7 hPa 0,0 mm 4,1 km/h (1 Bft) SW 233 ° 0 min 0,000 mm 0,0 UV-I 0 W/m² -1,0 °C 1,7 °C 6,4 km/h (2 Bft)
08.03.2018 01:50 1,7 °C 82 % 1005,7 hPa 0,0 mm 9,4 km/h (2 Bft) W-SW 252 ° 0 min 0,000 mm 0,0 UV-I 0 W/m² -1,0 °C -1,1 °C 14,5 km/h (3 Bft)
08.03.2018 01:51 1,6 °C 81 % 1005,8 hPa 0,0 mm 8,0 km/h (2 Bft) W-SW 244 ° 0 min 0,000 mm 0,0 UV-I 0 W/m² -1,3 °C -0,9 °C 11,3 km/h (2 Bft)
08.03.2018 01:52 1,6 °C 82 % 1005,8 hPa 0,0 mm 3,7 km/h (1 Bft) W 279 ° 0 min 0,000 mm 0,0 UV-I 0 W/m² -1,1 °C 1,6 °C 6,4 km/h (2 Bft)
08.03.2018 01:53 1,6 °C 82 % 1005,9 hPa 0,0 mm 3,1 km/h (1 Bft) SW 234 ° 0 min 0,000 mm 0,0 UV-I 0 W/m² -1,1 °C 1,6 °C 6,4 km/h (2 Bft)
08.03.2018 01:54 1,7 °C 82 % 1005,8 hPa 0,0 mm 2,8 km/h (1 Bft) SW 219 ° 0 min 0,000 mm 0,0 UV-I 0 W/m² -1,0 °C 1,7 °C 4,8 km/h (1 Bft)
08.03.2018 01:55 1,7 °C 82 % 1005,8 hPa 0,0 mm 8,2 km/h (2 Bft) W 267 ° 0 min 0,000 mm 0,0 UV-I 0 W/m² -1,0 °C -0,8 °C 12,9 km/h (3 Bft)
08.03.2018 01:56 1,7 °C 82 % 1005,8 hPa 0,0 mm 6,8 km/h (2 Bft) W-SW 240 ° 0 min 0,000 mm 0,0 UV-I 0 W/m² -1,0 °C -0,4 °C 12,9 km/h (3 Bft)
08.03.2018 01:57 1,7 °C 81 % 1005,8 hPa 0,0 mm 9,2 km/h (2 Bft) SW 221 ° 0 min 0,000 mm 0,0 UV-I 0 W/m² -1,2 °C -1,1 °C 16,1 km/h (3 Bft)
08.03.2018 01:58 1,8 °C 81 % 1005,8 hPa 0,0 mm 13,4 km/h (3 Bft) W 277 ° 0 min 0,000 mm 0,0 UV-I 0 W/m² -1,1 °C -1,9 °C 17,7 km/h (3 Bft)
08.03.2018 01:59 1,7 °C 81 % 1005,8 hPa 0,0 mm 7,2 km/h (2 Bft) W-SW 251 ° 0 min 0,000 mm 0,0 UV-I 0 W/m² -1,2 °C -0,5 °C 12,9 km/h (3 Bft)
08.03.2018 02:00 1,8 °C 81 % 1005,8 hPa 0,0 mm 5,8 km/h (2 Bft) S-SW 202 ° 0 min 0,026 mm 0,0 UV-I 0 W/m² -1,1 °C 0,1 °C 8,0 km/h (2 Bft)
08.03.2018 02:01 1,8 °C 81 % 1005,8 hPa 0,0 mm 5,4 km/h (1 Bft) SW 218 ° 0 min 0,000 mm 0,0 UV-I 0 W/m² -1,1 °C 0,3 °C 8,0 km/h (2 Bft)
08.03.2018 02:02 1,8 °C 81 % 1005,8 hPa 0,0 mm 7,6 km/h (2 Bft) W-SW 253 ° 0 min 0,000 mm 0,0 UV-I 0 W/m² -1,1 °C -0,5 °C 11,3 km/h (2 Bft)
08.03.2018 02:03 1,8 °C 81 % 1005,8 hPa 0,0 mm 4,4 km/h (1 Bft) W-SW 237 ° 0 min 0,000 mm 0,0 UV-I 0 W/m² -1,1 °C 1,8 °C 6,4 km/h (2 Bft)
08.03.2018 02:04 1,9 °C 81 % 1005,8 hPa 0,0 mm 6,2 km/h (2 Bft) W-NW 285 ° 0 min 0,000 mm 0,0 UV-I 0 W/m² -1,0 °C 0,1 °C 12,9 km/h (3 Bft)
08.03.2018 02:05 1,9 °C 81 % 1005,8 hPa 0,0 mm 8,0 km/h (2 Bft) W-SW 237 ° 0 min 0,000 mm 0,0 UV-I 0 W/m² -1,0 °C -0,5 °C 14,5 km/h (3 Bft)
08.03.2018 02:06 1,9 °C 81 % 1005,8 hPa 0,0 mm 6,7 km/h (2 Bft) SW 234 ° 0 min 0,000 mm 0,0 UV-I 0 W/m² -1,0 °C -0,1 °C 12,9 km/h (3 Bft)
08.03.2018 02:07 1,9 °C 81 % 1005,9 hPa 0,0 mm 3,6 km/h (1 Bft) W 269 ° 0 min 0,000 mm 0,0 UV-I 0 W/m² -1,0 °C 1,9 °C 6,4 km/h (2 Bft)
08.03.2018 02:08 1,9 °C 81 % 1005,8 hPa 0,0 mm 3,8 km/h (1 Bft) W-SW 253 ° 0 min 0,000 mm 0,0 UV-I 0 W/m² -1,0 °C 1,9 °C 6,4 km/h (2 Bft)
08.03.2018 02:09 1,9 °C 81 % 1005,9 hPa 0,0 mm 11,4 km/h (2 Bft) W 265 ° 0 min 0,000 mm 0,0 UV-I 0 W/m² -1,0 °C -1,4 °C 17,7 km/h (3 Bft)
08.03.2018 02:10 1,8 °C 81 % 1005,9 hPa 0,0 mm 8,5 km/h (2 Bft) W-SW 248 ° 0 min 0,000 mm 0,0 UV-I 0 W/m² -1,1 °C -0,8 °C 12,9 km/h (3 Bft)
08.03.2018 02:11 1,8 °C 81 % 1005,9 hPa 0,0 mm 6,8 km/h (2 Bft) W-SW 254 ° 0 min 0,000 mm 0,0 UV-I 0 W/m² -1,1 °C -0,2 °C 9,7 km/h (2 Bft)
08.03.2018 02:12 1,8 °C 81 % 1005,9 hPa 0,0 mm 4,4 km/h (1 Bft) W-SW 247 ° 0 min 0,000 mm 0,0 UV-I 0 W/m² -1,1 °C 1,8 °C 11,3 km/h (2 Bft)
08.03.2018 02:13 1,8 °C 81 % 1005,9 hPa 0,0 mm 0,9 km/h (0 Bft) W 269 ° 0 min 0,000 mm 0,0 UV-I 0 W/m² -1,1 °C 1,8 °C 4,8 km/h (1 Bft)
08.03.2018 02:14 1,8 °C 81 % 1005,9 hPa 0,0 mm 7,4 km/h (2 Bft) W-SW 252 ° 0 min 0,000 mm 0,0 UV-I 0 W/m² -1,1 °C -0,4 °C 12,9 km/h (3 Bft)
08.03.2018 02:15 1,8 °C 81 % 1005,9 hPa 0,0 mm 4,3 km/h (1 Bft) W 262 ° 0 min 0,000 mm 0,0 UV-I 0 W/m² -1,1 °C 1,8 °C 6,4 km/h (2 Bft)
08.03.2018 02:16 1,8 °C 81 % 1006,0 hPa 0,0 mm 6,6 km/h (2 Bft) W 263 ° 0 min 0,000 mm 0,0 UV-I 0 W/m² -1,1 °C -0,2 °C 12,9 km/h (3 Bft)
08.03.2018 02:17 1,8 °C 81 % 1006,0 hPa 0,0 mm 9,1 km/h (2 Bft) W-SW 249 ° 0 min 0,000 mm 0,0 UV-I 0 W/m² -1,1 °C -0,9 °C 14,5 km/h (3 Bft)
08.03.2018 02:18 1,8 °C 81 % 1006,0 hPa 0,0 mm 8,3 km/h (2 Bft) W 275 ° 0 min 0,000 mm 0,0 UV-I 0 W/m² -1,1 °C -0,7 °C 14,5 km/h (3 Bft)
08.03.2018 02:19 1,8 °C 81 % 1006,0 hPa 0,0 mm 9,1 km/h (2 Bft) W-SW 244 ° 0 min 0,000 mm 0,0 UV-I 0 W/m² -1,1 °C -0,9 °C 14,5 km/h (3 Bft)
08.03.2018 02:20 1,8 °C 81 % 1006,0 hPa 0,0 mm 4,9 km/h (1 Bft) W-SW 240 ° 0 min 0,000 mm 0,0 UV-I 0 W/m² -1,1 °C 0,5 °C 8,0 km/h (2 Bft)
08.03.2018 02:21 1,8 °C 81 % 1006,0 hPa 0,0 mm 4,5 km/h (1 Bft) W-SW 251 ° 0 min 0,000 mm 0,0 UV-I 0 W/m² -1,1 °C 1,8 °C 4,8 km/h (1 Bft)
08.03.2018 02:22 1,8 °C 81 % 1006,1 hPa 0,0 mm 2,8 km/h (1 Bft) W 274 ° 0 min 0,000 mm 0,0 UV-I 0 W/m² -1,1 °C 1,8 °C 4,8 km/h (1 Bft)
08.03.2018 02:23 1,8 °C 81 % 1006,1 hPa 0,0 mm 8,7 km/h (2 Bft) W-SW 246 ° 0 min 0,000 mm 0,0 UV-I 0 W/m² -1,1 °C -0,8 °C 12,9 km/h (3 Bft)
08.03.2018 02:24 1,8 °C 81 % 1006,0 hPa 0,0 mm 3,1 km/h (1 Bft) W-SW 240 ° 0 min 0,000 mm 0,0 UV-I 0 W/m² -1,1 °C 1,8 °C 4,8 km/h (1 Bft)
08.03.2018 02:25 1,8 °C 81 % 1006,1 hPa 0,0 mm 4,2 km/h (1 Bft) W-SW 244 ° 0 min 0,000 mm 0,0 UV-I 0 W/m² -1,1 °C 1,8 °C 6,4 km/h (2 Bft)
08.03.2018 02:26 1,9 °C 81 % 1006,1 hPa 0,0 mm 4,6 km/h (1 Bft) W-SW 244 ° 0 min 0,000 mm 0,0 UV-I 0 W/m² -1,0 °C 0,7 °C 11,3 km/h (2 Bft)
08.03.2018 02:27 1,8 °C 81 % 1006,1 hPa 0,0 mm 8,0 km/h (2 Bft) SW 226 ° 0 min 0,000 mm 0,0 UV-I 0 W/m² -1,1 °C -0,6 °C 14,5 km/h (3 Bft)
08.03.2018 02:28 1,8 °C 82 % 1006,1 hPa 0,0 mm 5,3 km/h (1 Bft) W-SW 246 ° 0 min 0,000 mm 0,0 UV-I 0 W/m² -0,9 °C 0,3 °C 8,0 km/h (2 Bft)
08.03.2018 02:29 1,8 °C 82 % 1006,1 hPa 0,0 mm 3,9 km/h (1 Bft) W 269 ° 0 min 0,000 mm 0,0 UV-I 0 W/m² -0,9 °C 1,8 °C 11,3 km/h (2 Bft)
08.03.2018 02:30 1,8 °C 82 % 1006,2 hPa 0,0 mm 8,3 km/h (2 Bft) SW 228 ° 0 min 0,000 mm 0,0 UV-I 0 W/m² -0,9 °C -0,7 °C 11,3 km/h (2 Bft)
08.03.2018 02:31 1,8 °C 82 % 1006,2 hPa 0,0 mm 4,1 km/h (1 Bft) W-NW 298 ° 0 min 0,000 mm 0,0 UV-I 0 W/m² -0,9 °C 1,8 °C 6,4 km/h (2 Bft)
08.03.2018 02:32 1,8 °C 82 % 1006,1 hPa 0,0 mm 7,6 km/h (2 Bft) W 271 ° 0 min 0,000 mm 0,0 UV-I 0 W/m² -0,9 °C -0,5 °C 12,9 km/h (3 Bft)
08.03.2018 02:33 1,8 °C 82 % 1006,1 hPa 0,0 mm 7,3 km/h (2 Bft) W 266 ° 0 min 0,000 mm 0,0 UV-I 0 W/m² -0,9 °C -0,4 °C 11,3 km/h (2 Bft)
08.03.2018 02:34 1,8 °C 82 % 1006,1 hPa 0,0 mm 5,7 km/h (1 Bft) W-SW 255 ° 0 min 0,000 mm 0,0 UV-I 0 W/m² -0,9 °C 0,2 °C 8,0 km/h (2 Bft)
08.03.2018 02:35 1,7 °C 82 % 1006,1 hPa 0,0 mm 4,9 km/h (1 Bft) W-SW 242 ° 0 min 0,000 mm 0,0 UV-I 0 W/m² -1,0 °C 0,4 °C 9,7 km/h (2 Bft)
08.03.2018 02:36 1,7 °C 82 % 1006,1 hPa 0,0 mm 6,0 km/h (2 Bft) W 279 ° 0 min 0,000 mm 0,0 UV-I 0 W/m² -1,0 °C -0,1 °C 9,7 km/h (2 Bft)
08.03.2018 02:37 1,7 °C 82 % 1006,1 hPa 0,0 mm 7,7 km/h (2 Bft) W-SW 253 ° 0 min 0,000 mm 0,0 UV-I 0 W/m² -1,0 °C -0,7 °C 12,9 km/h (3 Bft)
08.03.2018 02:38 1,7 °C 82 % 1006,1 hPa 0,0 mm 3,8 km/h (1 Bft) W 279 ° 0 min 0,000 mm 0,0 UV-I 0 W/m² -1,0 °C 1,7 °C 6,4 km/h (2 Bft)
08.03.2018 02:39 1,7 °C 82 % 1006,1 hPa 0,0 mm 5,3 km/h (1 Bft) W-SW 257 ° 0 min 0,000 mm 0,0 UV-I 0 W/m² -1,0 °C 0,2 °C 9,7 km/h (2 Bft)
08.03.2018 02:40 1,7 °C 82 % 1006,1 hPa 0,0 mm 6,4 km/h (2 Bft) W 266 ° 0 min 0,000 mm 0,0 UV-I 0 W/m² -1,0 °C -0,2 °C 11,3 km/h (2 Bft)
08.03.2018 02:41 1,7 °C 82 % 1006,0 hPa 0,0 mm 4,7 km/h (1 Bft) W 269 ° 0 min 0,000 mm 0,0 UV-I 0 W/m² -1,0 °C 0,5 °C 9,7 km/h (2 Bft)
08.03.2018 02:42 1,7 °C 82 % 1006,1 hPa 0,0 mm 8,7 km/h (2 Bft) W-SW 248 ° 0 min 0,000 mm 0,0 UV-I 0 W/m² -1,0 °C -0,9 °C 12,9 km/h (3 Bft)
08.03.2018 02:43 1,7 °C 82 % 1006,1 hPa 0,0 mm 3,8 km/h (1 Bft) W 265 ° 0 min 0,000 mm 0,0 UV-I 0 W/m² -1,0 °C 1,7 °C 11,3 km/h (2 Bft)
08.03.2018 02:44 1,7 °C 82 % 1006,0 hPa 0,0 mm 9,5 km/h (2 Bft) W-SW 252 ° 0 min 0,000 mm 0,0 UV-I 0 W/m² -1,0 °C -1,2 °C 14,5 km/h (3 Bft)
08.03.2018 02:45 1,7 °C 82 % 1006,0 hPa 0,0 mm 2,9 km/h (1 Bft) SW 235 ° 0 min 0,000 mm 0,0 UV-I 0 W/m² -1,0 °C 1,7 °C 6,4 km/h (2 Bft)
08.03.2018 02:46 1,7 °C 82 % 1006,0 hPa 0,0 mm 4,0 km/h (1 Bft) W-SW 258 ° 0 min 0,000 mm 0,0 UV-I 0 W/m² -1,0 °C 1,7 °C 4,8 km/h (1 Bft)
08.03.2018 02:47 1,7 °C 82 % 1006,0 hPa 0,0 mm 3,8 km/h (1 Bft) W-SW 246 ° 0 min 0,000 mm 0,0 UV-I 0 W/m² -1,0 °C 1,7 °C 4,8 km/h (1 Bft)
08.03.2018 02:48 1,7 °C 82 % 1006,0 hPa 0,0 mm 3,9 km/h (1 Bft) W-SW 238 ° 0 min 0,000 mm 0,0 UV-I 0 W/m² -1,0 °C 1,7 °C 6,4 km/h (2 Bft)
08.03.2018 02:49 1,7 °C 82 % 1006,1 hPa 0,0 mm 2,2 km/h (1 Bft) W 259 ° 0 min 0,000 mm 0,0 UV-I 0 W/m² -1,0 °C 1,7 °C 4,8 km/h (1 Bft)
08.03.2018 02:50 1,7 °C 82 % 1006,1 hPa 0,0 mm 0,0 km/h (0 Bft) W 259 ° 0 min 0,000 mm 0,0 UV-I 0 W/m² -1,0 °C 1,7 °C 0,0 km/h (0 Bft)
08.03.2018 02:51 1,7 °C 82 % 1006,0 hPa 0,0 mm 0,7 km/h (0 Bft) W 259 ° 0 min 0,000 mm 0,0 UV-I 0 W/m² -1,0 °C 1,7 °C 1,6 km/h (1 Bft)
08.03.2018 02:52 1,6 °C 82 % 1006,0 hPa 0,0 mm 0,0 km/h (0 Bft) W 259 ° 0 min 0,000 mm 0,0 UV-I 0 W/m² -1,1 °C 1,6 °C 0,0 km/h (0 Bft)
08.03.2018 02:53 1,6 °C 82 % 1005,9 hPa 0,0 mm 2,5 km/h (1 Bft) W-SW 246 ° 0 min 0,000 mm 0,0 UV-I 0 W/m² -1,1 °C 1,6 °C 4,8 km/h (1 Bft)
08.03.2018 02:54 1,6 °C 82 % 1005,9 hPa 0,0 mm 1,8 km/h (1 Bft) S-SW 205 ° 0 min 0,000 mm 0,0 UV-I 0 W/m² -1,1 °C 1,6 °C 6,4 km/h (2 Bft)
08.03.2018 02:55 1,6 °C 82 % 1005,8 hPa 0,0 mm 8,7 km/h (2 Bft) SW 227 ° 0 min 0,000 mm 0,0 UV-I 0 W/m² -1,1 °C -1,1 °C 14,5 km/h (3 Bft)
08.03.2018 02:56 1,6 °C 82 % 1005,8 hPa 0,0 mm 7,3 km/h (2 Bft) S-SW 205 ° 0 min 0,000 mm 0,0 UV-I 0 W/m² -1,1 °C -0,6 °C 9,7 km/h (2 Bft)
08.03.2018 02:57 1,7 °C 82 % 1005,9 hPa 0,0 mm 5,7 km/h (1 Bft) SW 218 ° 0 min 0,000 mm 0,0 UV-I 0 W/m² -1,0 °C 0,0 °C 8,0 km/h (2 Bft)
08.03.2018 02:58 1,7 °C 81 % 1005,8 hPa 0,0 mm 3,4 km/h (1 Bft) SW 219 ° 0 min 0,000 mm 0,0 UV-I 0 W/m² -1,2 °C 1,7 °C 4,8 km/h (1 Bft)
08.03.2018 02:59 1,7 °C 81 % 1005,8 hPa 0,0 mm 2,8 km/h (1 Bft) SW 219 ° 0 min 0,000 mm 0,0 UV-I 0 W/m² -1,2 °C 1,7 °C 4,8 km/h (1 Bft)
08.03.2018 03:00 1,7 °C 81 % 1005,9 hPa 0,0 mm 0,2 km/h (0 Bft) SW 219 ° 0 min 0,025 mm 0,0 UV-I 0 W/m² -1,2 °C 1,7 °C 1,6 km/h (1 Bft)
08.03.2018 03:01 1,7 °C 81 % 1005,9 hPa 0,0 mm 1,5 km/h (1 Bft) W 274 ° 0 min 0,000 mm 0,0 UV-I 0 W/m² -1,2 °C 1,7 °C 4,8 km/h (1 Bft)
08.03.2018 03:02 1,6 °C 81 % 1005,9 hPa 0,0 mm 2,3 km/h (1 Bft) W 274 ° 0 min 0,000 mm 0,0 UV-I 0 W/m² -1,3 °C 1,6 °C 4,8 km/h (1 Bft)
08.03.2018 03:03 1,6 °C 81 % 1006,0 hPa 0,0 mm 2,3 km/h (1 Bft) W-SW 249 ° 0 min 0,000 mm 0,0 UV-I 0 W/m² -1,3 °C 1,6 °C 4,8 km/h (1 Bft)
08.03.2018 03:04 1,6 °C 81 % 1006,0 hPa 0,0 mm 3,6 km/h (1 Bft) W 270 ° 0 min 0,000 mm 0,0 UV-I 0 W/m² -1,3 °C 1,6 °C 6,4 km/h (2 Bft)
08.03.2018 03:05 1,4 °C 81 % 1006,0 hPa 0,0 mm 3,7 km/h (1 Bft) W-NW 302 ° 0 min 0,000 mm 0,0 UV-I 0 W/m² -1,5 °C 1,4 °C 4,8 km/h (1 Bft)
08.03.2018 03:06 1,4 °C 82 % 1006,0 hPa 0,0 mm 0,8 km/h (0 Bft) W-NW 302 ° 0 min 0,000 mm 0,0 UV-I 0 W/m² -1,3 °C 1,4 °C 3,2 km/h (1 Bft)
08.03.2018 03:07 1,3 °C 82 % 1006,0 hPa 0,0 mm 0,6 km/h (0 Bft) W-NW 302 ° 0 min 0,000 mm 0,0 UV-I 0 W/m² -1,4 °C 1,3 °C 3,2 km/h (1 Bft)
08.03.2018 03:08 1,3 °C 82 % 1006,0 hPa 0,0 mm 0,0 km/h (0 Bft) W-NW 302 ° 0 min 0,000 mm 0,0 UV-I 0 W/m² -1,4 °C 1,3 °C 0,0 km/h (0 Bft)
08.03.2018 03:09 1,2 °C 82 % 1006,0 hPa 0,0 mm 0,0 km/h (0 Bft) W-NW 302 ° 0 min 0,000 mm 0,0 UV-I 0 W/m² -1,5 °C 1,2 °C 0,0 km/h (0 Bft)
08.03.2018 03:10 1,2 °C 83 % 1006,0 hPa 0,0 mm 0,0 km/h (0 Bft) W-NW 302 ° 0 min 0,000 mm 0,0 UV-I 0 W/m² -1,4 °C 1,2 °C 0,0 km/h (0 Bft)
08.03.2018 03:11 1,2 °C 83 % 1006,1 hPa 0,0 mm 0,0 km/h (0 Bft) W-NW 302 ° 0 min 0,000 mm 0,0 UV-I 0 W/m² -1,4 °C 1,2 °C 0,0 km/h (0 Bft)
08.03.2018 03:12 1,2 °C 83 % 1006,0 hPa 0,0 mm 0,0 km/h (0 Bft) W-NW 302 ° 0 min 0,000 mm 0,0 UV-I 0 W/m² -1,4 °C 1,2 °C 0,0 km/h (0 Bft)
08.03.2018 03:13 1,2 °C 83 % 1006,0 hPa 0,0 mm 0,0 km/h (0 Bft) W-NW 302 ° 0 min 0,000 mm 0,0 UV-I 0 W/m² -1,4 °C 1,2 °C 0,0 km/h (0 Bft)
08.03.2018 03:14 1,2 °C 83 % 1006,0 hPa 0,0 mm 0,0 km/h (0 Bft) W-SW 241 ° 0 min 0,000 mm 0,0 UV-I 0 W/m² -1,4 °C 1,2 °C 0,0 km/h (0 Bft)
08.03.2018 03:15 1,3 °C 83 % 1006,0 hPa 0,0 mm 0,0 km/h (0 Bft) W-SW 241 ° 0 min 0,000 mm 0,0 UV-I 0 W/m² -1,3 °C 1,3 °C 0,0 km/h (0 Bft)
08.03.2018 03:16 1,3 °C 83 % 1006,0 hPa 0,0 mm 0,0 km/h (0 Bft) W-SW 241 ° 0 min 0,000 mm 0,0 UV-I 0 W/m² -1,3 °C 1,3 °C 0,0 km/h (0 Bft)
08.03.2018 03:17 1,3 °C 83 % 1006,0 hPa 0,0 mm 0,0 km/h (0 Bft) W-SW 241 ° 0 min 0,000 mm 0,0 UV-I 0 W/m² -1,3 °C 1,3 °C 0,0 km/h (0 Bft)
08.03.2018 03:18 1,3 °C 83 % 1006,0 hPa 0,0 mm 0,0 km/h (0 Bft) W-SW 241 ° 0 min 0,000 mm 0,0 UV-I 0 W/m² -1,3 °C 1,3 °C 0,0 km/h (0 Bft)
08.03.2018 03:19 1,3 °C 83 % 1006,0 hPa 0,0 mm 0,0 km/h (0 Bft) W-SW 241 ° 0 min 0,000 mm 0,0 UV-I 0 W/m² -1,3 °C 1,3 °C 0,0 km/h (0 Bft)
08.03.2018 03:20 1,4 °C 83 % 1006,0 hPa 0,0 mm 0,0 km/h (0 Bft) W-SW 241 ° 0 min 0,000 mm 0,0 UV-I 0 W/m² -1,2 °C 1,4 °C 0,0 km/h (0 Bft)
08.03.2018 03:21 1,4 °C 83 % 1006,0 hPa 0,0 mm 0,0 km/h (0 Bft) W-SW 241 ° 0 min 0,000 mm 0,0 UV-I 0 W/m² -1,2 °C 1,4 °C 0,0 km/h (0 Bft)
08.03.2018 03:22 1,4 °C 82 % 1006,0 hPa 0,0 mm 0,0 km/h (0 Bft) W-SW 241 ° 0 min 0,000 mm 0,0 UV-I 0 W/m² -1,3 °C 1,4 °C 0,0 km/h (0 Bft)
08.03.2018 03:23 1,4 °C 82 % 1006,0 hPa 0,0 mm 0,0 km/h (0 Bft) W-SW 241 ° 0 min 0,000 mm 0,0 UV-I 0 W/m² -1,3 °C 1,4 °C 0,0 km/h (0 Bft)
08.03.2018 03:24 1,4 °C 82 % 1006,0 hPa 0,0 mm 0,0 km/h (0 Bft) W-SW 241 ° 0 min 0,000 mm 0,0 UV-I 0 W/m² -1,3 °C 1,4 °C 0,0 km/h (0 Bft)
08.03.2018 03:25 1,4 °C 82 % 1006,0 hPa 0,0 mm 0,0 km/h (0 Bft) W-SW 241 ° 0 min 0,000 mm 0,0 UV-I 0 W/m² -1,3 °C 1,4 °C 0,0 km/h (0 Bft)
08.03.2018 03:26 1,4 °C 82 % 1006,0 hPa 0,0 mm 0,0 km/h (0 Bft) W-SW 241 ° 0 min 0,000 mm 0,0 UV-I 0 W/m² -1,3 °C 1,4 °C 0,0 km/h (0 Bft)
08.03.2018 03:27 1,4 °C 82 % 1006,0 hPa 0,0 mm 0,0 km/h (0 Bft) W-SW 241 ° 0 min 0,000 mm 0,0 UV-I 0 W/m² -1,3 °C 1,4 °C 0,0 km/h (0 Bft)
08.03.2018 03:28 1,4 °C 83 % 1006,0 hPa 0,0 mm 0,0 km/h (0 Bft) W-SW 241 ° 0 min 0,000 mm 0,0 UV-I 0 W/m² -1,2 °C 1,4 °C 0,0 km/h (0 Bft)
08.03.2018 03:29 1,4 °C 83 % 1005,9 hPa 0,0 mm 0,0 km/h (0 Bft) W-SW 241 ° 0 min 0,000 mm 0,0 UV-I 0 W/m² -1,2 °C 1,4 °C 0,0 km/h (0 Bft)
08.03.2018 03:30 1,4 °C 82 % 1006,0 hPa 0,0 mm 0,0 km/h (0 Bft) W-SW 241 ° 0 min 0,000 mm 0,0 UV-I 0 W/m² -1,3 °C 1,4 °C 0,0 km/h (0 Bft)
08.03.2018 03:31 1,4 °C 82 % 1006,0 hPa 0,0 mm 0,0 km/h (0 Bft) W-SW 241 ° 0 min 0,000 mm 0,0 UV-I 0 W/m² -1,3 °C 1,4 °C 0,0 km/h (0 Bft)
08.03.2018 03:32 1,4 °C 83 % 1005,9 hPa 0,0 mm 0,0 km/h (0 Bft) W-SW 241 ° 0 min 0,000 mm 0,0 UV-I 0 W/m² -1,2 °C 1,4 °C 0,0 km/h (0 Bft)
08.03.2018 03:33 1,4 °C 83 % 1005,9 hPa 0,0 mm 0,0 km/h (0 Bft) W-SW 241 ° 0 min 0,000 mm 0,0 UV-I 0 W/m² -1,2 °C 1,4 °C 0,0 km/h (0 Bft)
08.03.2018 03:34 1,4 °C 83 % 1005,9 hPa 0,0 mm 0,0 km/h (0 Bft) W-SW 241 ° 0 min 0,000 mm 0,0 UV-I 0 W/m² -1,2 °C 1,4 °C 0,0 km/h (0 Bft)
08.03.2018 03:35 1,3 °C 83 % 1006,0 hPa 0,0 mm 0,0 km/h (0 Bft) W-SW 241 ° 0 min 0,000 mm 0,0 UV-I 0 W/m² -1,3 °C 1,3 °C 0,0 km/h (0 Bft)
08.03.2018 03:36 1,4 °C 83 % 1006,0 hPa 0,0 mm 0,0 km/h (0 Bft) W-SW 241 ° 0 min 0,000 mm 0,0 UV-I 0 W/m² -1,2 °C 1,4 °C 0,0 km/h (0 Bft)
08.03.2018 03:37 1,4 °C 82 % 1006,1 hPa 0,0 mm 1,7 km/h (1 Bft) W-SW 254 ° 0 min 0,000 mm 0,0 UV-I 0 W/m² -1,3 °C 1,4 °C 3,2 km/h (1 Bft)
08.03.2018 03:38 1,4 °C 82 % 1006,1 hPa 0,0 mm 0,7 km/h (0 Bft) W-SW 254 ° 0 min 0,000 mm 0,0 UV-I 0 W/m² -1,3 °C 1,4 °C 3,2 km/h (1 Bft)
08.03.2018 03:39 1,4 °C 82 % 1006,1 hPa 0,0 mm 0,5 km/h (0 Bft) W-SW 254 ° 0 min 0,000 mm 0,0 UV-I 0 W/m² -1,3 °C 1,4 °C 1,6 km/h (1 Bft)
08.03.2018 03:40 1,4 °C 82 % 1006,1 hPa 0,0 mm 0,0 km/h (0 Bft) W-SW 254 ° 0 min 0,000 mm 0,0 UV-I 0 W/m² -1,3 °C 1,4 °C 0,0 km/h (0 Bft)
08.03.2018 03:41 1,4 °C 82 % 1006,1 hPa 0,0 mm 0,0 km/h (0 Bft) W-SW 254 ° 0 min 0,000 mm 0,0 UV-I 0 W/m² -1,3 °C 1,4 °C 0,0 km/h (0 Bft)
08.03.2018 03:42 1,4 °C 82 % 1006,1 hPa 0,0 mm 0,6 km/h (0 Bft) W-SW 254 ° 0 min 0,000 mm 0,0 UV-I 0 W/m² -1,3 °C 1,4 °C 1,6 km/h (1 Bft)
08.03.2018 03:43 1,4 °C 82 % 1006,1 hPa 0,0 mm 1,5 km/h (1 Bft) W-SW 254 ° 0 min 0,000 mm 0,0 UV-I 0 W/m² -1,3 °C 1,4 °C 3,2 km/h (1 Bft)
08.03.2018 03:44 1,3 °C 83 % 1006,1 hPa 0,0 mm 2,5 km/h (1 Bft) W-SW 254 ° 0 min 0,000 mm 0,0 UV-I 0 W/m² -1,3 °C 1,3 °C 4,8 km/h (1 Bft)
08.03.2018 03:45 1,3 °C 83 % 1006,1 hPa 0,0 mm 0,3 km/h (0 Bft) W-SW 254 ° 0 min 0,000 mm 0,0 UV-I 0 W/m² -1,3 °C 1,3 °C 1,6 km/h (1 Bft)
08.03.2018 03:46 1,3 °C 83 % 1006,2 hPa 0,0 mm 0,0 km/h (0 Bft) W-SW 254 ° 0 min 0,000 mm 0,0 UV-I 0 W/m² -1,3 °C 1,3 °C 0,0 km/h (0 Bft)
08.03.2018 03:47 1,4 °C 83 % 1006,2 hPa 0,0 mm 0,0 km/h (0 Bft) W-SW 254 ° 0 min 0,000 mm 0,0 UV-I 0 W/m² -1,2 °C 1,4 °C 0,0 km/h (0 Bft)
08.03.2018 03:48 1,4 °C 83 % 1006,3 hPa 0,0 mm 0,0 km/h (0 Bft) W-SW 254 ° 0 min 0,000 mm 0,0 UV-I 0 W/m² -1,2 °C 1,4 °C 0,0 km/h (0 Bft)
08.03.2018 03:49 1,4 °C 83 % 1006,3 hPa 0,0 mm 0,0 km/h (0 Bft) W-SW 254 ° 0 min 0,000 mm 0,0 UV-I 0 W/m² -1,2 °C 1,4 °C 0,0 km/h (0 Bft)
08.03.2018 03:50 1,5 °C 83 % 1006,3 hPa 0,0 mm 0,0 km/h (0 Bft) W-SW 254 ° 0 min 0,000 mm 0,0 UV-I 0 W/m² -1,1 °C 1,5 °C 0,0 km/h (0 Bft)
08.03.2018 03:51 1,5 °C 83 % 1006,3 hPa 0,0 mm 0,2 km/h (0 Bft) W-SW 254 ° 0 min 0,000 mm 0,0 UV-I 0 W/m² -1,1 °C 1,5 °C 1,6 km/h (1 Bft)
08.03.2018 03:52 1,5 °C 83 % 1006,3 hPa 0,0 mm 0,4 km/h (0 Bft) W-SW 254 ° 0 min 0,000 mm 0,0 UV-I 0 W/m² -1,1 °C 1,5 °C 1,6 km/h (1 Bft)
08.03.2018 03:53 1,6 °C 82 % 1006,3 hPa 0,0 mm 0,1 km/h (0 Bft) W-SW 254 ° 0 min 0,000 mm 0,0 UV-I 0 W/m² -1,1 °C 1,6 °C 1,6 km/h (1 Bft)
08.03.2018 03:54 1,6 °C 82 % 1006,3 hPa 0,0 mm 0,0 km/h (0 Bft) W-SW 254 ° 0 min 0,000 mm 0,0 UV-I 0 W/m² -1,1 °C 1,6 °C 0,0 km/h (0 Bft)
08.03.2018 03:55 1,6 °C 82 % 1006,3 hPa 0,0 mm 3,2 km/h (1 Bft) SW 232 ° 0 min 0,000 mm 0,0 UV-I 0 W/m² -1,1 °C 1,6 °C 4,8 km/h (1 Bft)
08.03.2018 03:56 1,6 °C 82 % 1006,3 hPa 0,0 mm 1,1 km/h (1 Bft) SW 232 ° 0 min 0,000 mm 0,0 UV-I 0 W/m² -1,1 °C 1,6 °C 3,2 km/h (1 Bft)
08.03.2018 03:57 1,6 °C 82 % 1006,2 hPa 0,0 mm 5,0 km/h (1 Bft) SW 217 ° 0 min 0,000 mm 0,0 UV-I 0 W/m² -1,1 °C 0,2 °C 8,0 km/h (2 Bft)
08.03.2018 03:58 1,6 °C 82 % 1006,3 hPa 0,0 mm 4,8 km/h (1 Bft) W 271 ° 0 min 0,000 mm 0,0 UV-I 0 W/m² -1,1 °C 0,3 °C 11,3 km/h (2 Bft)
08.03.2018 03:59 1,6 °C 82 % 1006,3 hPa 0,0 mm 8,0 km/h (2 Bft) SW 221 ° 0 min 0,000 mm 0,0 UV-I 0 W/m² -1,1 °C -0,9 °C 12,9 km/h (3 Bft)
08.03.2018 04:00 1,6 °C 82 % 1006,2 hPa 0,0 mm 6,2 km/h (2 Bft) W-SW 237 ° 0 min 0,000 mm 0,0 UV-I 0 W/m² -1,1 °C -0,3 °C 9,7 km/h (2 Bft)
08.03.2018 04:01 1,6 °C 81 % 1006,2 hPa 0,0 mm 3,4 km/h (1 Bft) W 269 ° 0 min 0,000 mm 0,0 UV-I 0 W/m² -1,3 °C 1,6 °C 6,4 km/h (2 Bft)
08.03.2018 04:02 1,6 °C 81 % 1006,2 hPa 0,0 mm 8,0 km/h (2 Bft) W-NW 282 ° 0 min 0,000 mm 0,0 UV-I 0 W/m² -1,3 °C -0,9 °C 16,1 km/h (3 Bft)
08.03.2018 04:03 1,6 °C 81 % 1006,2 hPa 0,0 mm 4,2 km/h (1 Bft) W-SW 256 ° 0 min 0,000 mm 0,0 UV-I 0 W/m² -1,3 °C 1,6 °C 6,4 km/h (2 Bft)
08.03.2018 04:04 1,5 °C 82 % 1006,3 hPa 0,0 mm 4,1 km/h (1 Bft) W 260 ° 0 min 0,000 mm 0,0 UV-I 0 W/m² -1,2 °C 1,5 °C 4,8 km/h (1 Bft)
08.03.2018 04:05 1,5 °C 82 % 1006,2 hPa 0,0 mm 2,9 km/h (1 Bft) W 260 ° 0 min 0,000 mm 0,0 UV-I 0 W/m² -1,2 °C 1,5 °C 4,8 km/h (1 Bft)
08.03.2018 04:06 1,4 °C 82 % 1006,2 hPa 0,0 mm 4,6 km/h (1 Bft) W 264 ° 0 min 0,000 mm 0,0 UV-I 0 W/m² -1,3 °C 0,2 °C 6,4 km/h (2 Bft)
08.03.2018 04:07 1,4 °C 82 % 1006,2 hPa 0,0 mm 4,1 km/h (1 Bft) W-NW 283 ° 0 min 0,000 mm 0,0 UV-I 0 W/m² -1,3 °C 1,4 °C 6,4 km/h (2 Bft)
08.03.2018 04:08 1,4 °C 82 % 1006,2 hPa 0,0 mm 3,0 km/h (1 Bft) W-SW 254 ° 0 min 0,000 mm 0,0 UV-I 0 W/m² -1,3 °C 1,4 °C 4,8 km/h (1 Bft)
08.03.2018 04:09 1,4 °C 82 % 1006,2 hPa 0,0 mm 4,4 km/h (1 Bft) W 263 ° 0 min 0,000 mm 0,0 UV-I 0 W/m² -1,3 °C 1,4 °C 6,4 km/h (2 Bft)
08.03.2018 04:10 1,4 °C 82 % 1006,3 hPa 0,0 mm 3,7 km/h (1 Bft) W 270 ° 0 min 0,000 mm 0,0 UV-I 0 W/m² -1,3 °C 1,4 °C 4,8 km/h (1 Bft)
08.03.2018 04:11 1,4 °C 82 % 1006,3 hPa 0,0 mm 4,5 km/h (1 Bft) W 264 ° 0 min 0,000 mm 0,0 UV-I 0 W/m² -1,3 °C 1,4 °C 6,4 km/h (2 Bft)
08.03.2018 04:12 1,3 °C 82 % 1006,2 hPa 0,0 mm 4,0 km/h (1 Bft) W 271 ° 0 min 0,000 mm 0,0 UV-I 0 W/m² -1,4 °C 1,3 °C 6,4 km/h (2 Bft)
08.03.2018 04:13 1,3 °C 82 % 1006,2 hPa 0,0 mm 3,2 km/h (1 Bft) W 271 ° 0 min 0,000 mm 0,0 UV-I 0 W/m² -1,4 °C 1,3 °C 4,8 km/h (1 Bft)
08.03.2018 04:14 1,3 °C 82 % 1006,2 hPa 0,0 mm 3,2 km/h (1 Bft) W 271 ° 0 min 0,000 mm 0,0 UV-I 0 W/m² -1,4 °C 1,3 °C 4,8 km/h (1 Bft)
08.03.2018 04:15 1,3 °C 82 % 1006,3 hPa 0,0 mm 2,5 km/h (1 Bft) W 271 ° 0 min 0,000 mm 0,0 UV-I 0 W/m² -1,4 °C 1,3 °C 4,8 km/h (1 Bft)
08.03.2018 04:16 1,4 °C 82 % 1006,3 hPa 0,0 mm 3,4 km/h (1 Bft) W 273 ° 0 min 0,000 mm 0,0 UV-I 0 W/m² -1,3 °C 1,4 °C 6,4 km/h (2 Bft)
08.03.2018 04:17 1,4 °C 82 % 1006,3 hPa 0,0 mm 4,1 km/h (1 Bft) W 273 ° 0 min 0,000 mm 0,0 UV-I 0 W/m² -1,3 °C 1,4 °C 4,8 km/h (1 Bft)
08.03.2018 04:18 1,4 °C 82 % 1006,3 hPa 0,0 mm 4,2 km/h (1 Bft) W 273 ° 0 min 0,000 mm 0,0 UV-I 0 W/m² -1,3 °C 1,4 °C 6,4 km/h (2 Bft)
08.03.2018 04:19 1,4 °C 82 % 1006,3 hPa 0,0 mm 6,6 km/h (2 Bft) W 263 ° 0 min 0,000 mm 0,0 UV-I 0 W/m² -1,3 °C -0,6 °C 11,3 km/h (2 Bft)
08.03.2018 04:20 1,4 °C 82 % 1006,4 hPa 0,0 mm 9,1 km/h (2 Bft) W 260 ° 0 min 0,000 mm 0,0 UV-I 0 W/m² -1,3 °C -1,4 °C 11,3 km/h (2 Bft)
08.03.2018 04:21 1,4 °C 82 % 1006,4 hPa 0,0 mm 6,7 km/h (2 Bft) W 271 ° 0 min 0,000 mm 0,0 UV-I 0 W/m² -1,3 °C -0,7 °C 11,3 km/h (2 Bft)
08.03.2018 04:22 1,4 °C 82 % 1006,4 hPa 0,0 mm 8,3 km/h (2 Bft) W 280 ° 0 min 0,000 mm 0,0 UV-I 0 W/m² -1,3 °C -1,2 °C 11,3 km/h (2 Bft)
08.03.2018 04:23 1,5 °C 82 % 1006,4 hPa 0,0 mm 10,5 km/h (2 Bft) W 266 ° 0 min 0,000 mm 0,0 UV-I 0 W/m² -1,2 °C -1,6 °C 12,9 km/h (3 Bft)
08.03.2018 04:24 1,5 °C 83 % 1006,5 hPa 0,0 mm 11,0 km/h (2 Bft) W-SW 256 ° 0 min 0,000 mm 0,0 UV-I 0 W/m² -1,1 °C -1,8 °C 14,5 km/h (3 Bft)
08.03.2018 04:25 1,5 °C 83 % 1006,5 hPa 0,0 mm 11,1 km/h (2 Bft) W 265 ° 0 min 0,000 mm 0,0 UV-I 0 W/m² -1,1 °C -1,8 °C 17,7 km/h (3 Bft)
08.03.2018 04:26 1,5 °C 83 % 1006,5 hPa 0,0 mm 5,9 km/h (2 Bft) W 272 ° 0 min 0,000 mm 0,0 UV-I 0 W/m² -1,1 °C -0,3 °C 9,7 km/h (2 Bft)
08.03.2018 04:27 1,5 °C 83 % 1006,5 hPa 0,0 mm 6,6 km/h (2 Bft) W 275 ° 0 min 0,000 mm 0,0 UV-I 0 W/m² -1,1 °C -0,5 °C 11,3 km/h (2 Bft)
08.03.2018 04:28 1,5 °C 83 % 1006,5 hPa 0,0 mm 5,4 km/h (1 Bft) W-SW 257 ° 0 min 0,000 mm 0,0 UV-I 0 W/m² -1,1 °C -0,1 °C 9,7 km/h (2 Bft)
08.03.2018 04:29 1,4 °C 83 % 1006,5 hPa 0,0 mm 7,8 km/h (2 Bft) W 271 ° 0 min 0,000 mm 0,0 UV-I 0 W/m² -1,2 °C -1,0 °C 11,3 km/h (2 Bft)
08.03.2018 04:30 1,4 °C 83 % 1006,5 hPa 0,0 mm 8,0 km/h (2 Bft) W 259 ° 0 min 0,000 mm 0,0 UV-I 0 W/m² -1,2 °C -1,1 °C 11,3 km/h (2 Bft)
08.03.2018 04:31 1,3 °C 83 % 1006,5 hPa 0,0 mm 7,4 km/h (2 Bft) W 261 ° 0 min 0,000 mm 0,0 UV-I 0 W/m² -1,3 °C -1,0 °C 11,3 km/h (2 Bft)
08.03.2018 04:32 1,3 °C 83 % 1006,5 hPa 0,0 mm 3,5 km/h (1 Bft) W-SW 254 ° 0 min 0,000 mm 0,0 UV-I 0 W/m² -1,3 °C 1,3 °C 6,4 km/h (2 Bft)
08.03.2018 04:33 1,3 °C 83 % 1006,5 hPa 0,0 mm 3,0 km/h (1 Bft) W-SW 255 ° 0 min 0,000 mm 0,0 UV-I 0 W/m² -1,3 °C 1,3 °C 4,8 km/h (1 Bft)
08.03.2018 04:34 1,3 °C 83 % 1006,5 hPa 0,0 mm 4,8 km/h (1 Bft) W-SW 250 ° 0 min 0,000 mm 0,0 UV-I 0 W/m² -1,3 °C -0,0 °C 8,0 km/h (2 Bft)
08.03.2018 04:35 1,3 °C 83 % 1006,5 hPa 0,0 mm 5,2 km/h (1 Bft) W-SW 258 ° 0 min 0,000 mm 0,0 UV-I 0 W/m² -1,3 °C -0,2 °C 9,7 km/h (2 Bft)
08.03.2018 04:36 1,3 °C 83 % 1006,5 hPa 0,0 mm 5,8 km/h (2 Bft) W-SW 250 ° 0 min 0,000 mm 0,0 UV-I 0 W/m² -1,3 °C -0,5 °C 9,7 km/h (2 Bft)
08.03.2018 04:37 1,4 °C 83 % 1006,5 hPa 0,0 mm 2,7 km/h (1 Bft) W-SW 248 ° 0 min 0,000 mm 0,0 UV-I 0 W/m² -1,2 °C 1,4 °C 6,4 km/h (2 Bft)
08.03.2018 04:38 1,3 °C 83 % 1006,5 hPa 0,0 mm 5,6 km/h (1 Bft) S-SW 199 ° 0 min 0,000 mm 0,0 UV-I 0 W/m² -1,3 °C -0,4 °C 9,7 km/h (2 Bft)
08.03.2018 04:39 1,4 °C 83 % 1006,4 hPa 0,0 mm 5,4 km/h (1 Bft) W-SW 248 ° 0 min 0,000 mm 0,0 UV-I 0 W/m² -1,2 °C -0,2 °C 8,0 km/h (2 Bft)
08.03.2018 04:40 1,4 °C 83 % 1006,4 hPa 0,0 mm 5,3 km/h (1 Bft) W 273 ° 0 min 0,000 mm 0,0 UV-I 0 W/m² -1,2 °C -0,1 °C 9,7 km/h (2 Bft)
08.03.2018 04:41 1,4 °C 83 % 1006,4 hPa 0,0 mm 4,3 km/h (1 Bft) SW 221 ° 0 min 0,000 mm 0,0 UV-I 0 W/m² -1,2 °C 1,4 °C 8,0 km/h (2 Bft)
08.03.2018 04:42 1,3 °C 83 % 1006,4 hPa 0,0 mm 8,3 km/h (2 Bft) W-SW 252 ° 0 min 0,000 mm 0,0 UV-I 0 W/m² -1,3 °C -1,3 °C 11,3 km/h (2 Bft)
08.03.2018 04:43 1,3 °C 83 % 1006,4 hPa 0,0 mm 8,3 km/h (2 Bft) W 276 ° 0 min 0,000 mm 0,0 UV-I 0 W/m² -1,3 °C -1,3 °C 11,3 km/h (2 Bft)
08.03.2018 04:44 1,3 °C 83 % 1006,4 hPa 0,0 mm 7,8 km/h (2 Bft) SW 234 ° 0 min 0,000 mm 0,0 UV-I 0 W/m² -1,3 °C -1,2 °C 12,9 km/h (3 Bft)
08.03.2018 04:45 1,3 °C 83 % 1006,4 hPa 0,0 mm 9,3 km/h (2 Bft) W 275 ° 0 min 0,000 mm 0,0 UV-I 0 W/m² -1,3 °C -1,6 °C 14,5 km/h (3 Bft)
08.03.2018 04:46 1,2 °C 83 % 1006,4 hPa 0,0 mm 6,2 km/h (2 Bft) W 274 ° 0 min 0,000 mm 0,0 UV-I 0 W/m² -1,4 °C -0,7 °C 14,5 km/h (3 Bft)
08.03.2018 04:47 1,3 °C 83 % 1006,4 hPa 0,0 mm 8,4 km/h (2 Bft) W 268 ° 0 min 0,000 mm 0,0 UV-I 0 W/m² -1,3 °C -1,3 °C 11,3 km/h (2 Bft)
08.03.2018 04:48 1,2 °C 83 % 1006,4 hPa 0,0 mm 5,0 km/h (1 Bft) W 274 ° 0 min 0,000 mm 0,0 UV-I 0 W/m² -1,4 °C -0,2 °C 11,3 km/h (2 Bft)
08.03.2018 04:49 1,1 °C 83 % 1006,4 hPa 0,0 mm 11,8 km/h (2 Bft) W 280 ° 0 min 0,000 mm 0,0 UV-I 0 W/m² -1,5 °C -2,4 °C 16,1 km/h (3 Bft)
08.03.2018 04:50 1,1 °C 84 % 1006,5 hPa 0,0 mm 7,3 km/h (2 Bft) W-SW 237 ° 0 min 0,000 mm 0,0 UV-I 0 W/m² -1,3 °C -1,2 °C 12,9 km/h (3 Bft)
08.03.2018 04:51 1,1 °C 84 % 1006,5 hPa 0,0 mm 9,9 km/h (2 Bft) W-SW 248 ° 0 min 0,000 mm 0,0 UV-I 0 W/m² -1,3 °C -2,0 °C 16,1 km/h (3 Bft)
08.03.2018 04:52 1,1 °C 84 % 1006,5 hPa 0,0 mm 6,0 km/h (2 Bft) W-SW 254 ° 0 min 0,000 mm 0,0 UV-I 0 W/m² -1,3 °C -0,8 °C 11,3 km/h (2 Bft)
08.03.2018 04:53 1,1 °C 84 % 1006,5 hPa 0,0 mm 10,3 km/h (2 Bft) W 259 ° 0 min 0,000 mm 0,0 UV-I 0 W/m² -1,3 °C -2,1 °C 14,5 km/h (3 Bft)
08.03.2018 04:54 1,1 °C 84 % 1006,5 hPa 0,0 mm 9,9 km/h (2 Bft) W-SW 251 ° 0 min 0,000 mm 0,0 UV-I 0 W/m² -1,3 °C -2,0 °C 12,9 km/h (3 Bft)
08.03.2018 04:55 1,1 °C 84 % 1006,5 hPa 0,0 mm 12,5 km/h (3 Bft) W 260 ° 0 min 0,000 mm 0,0 UV-I 0 W/m² -1,3 °C -2,6 °C 17,7 km/h (3 Bft)
08.03.2018 04:56 1,1 °C 84 % 1006,5 hPa 0,0 mm 5,7 km/h (1 Bft) SW 234 ° 0 min 0,000 mm 0,0 UV-I 0 W/m² -1,3 °C -0,6 °C 9,7 km/h (2 Bft)
08.03.2018 04:57 1,1 °C 85 % 1006,5 hPa 0,0 mm 2,4 km/h (1 Bft) W 265 ° 0 min 0,000 mm 0,0 UV-I 0 W/m² -1,1 °C 1,1 °C 4,8 km/h (1 Bft)
08.03.2018 04:58 1,1 °C 85 % 1006,5 hPa 0,0 mm 4,2 km/h (1 Bft) W 274 ° 0 min 0,000 mm 0,0 UV-I 0 W/m² -1,1 °C 1,1 °C 11,3 km/h (2 Bft)
08.03.2018 04:59 1,1 °C 85 % 1006,5 hPa 0,0 mm 6,6 km/h (2 Bft) W-SW 254 ° 0 min 0,000 mm 0,0 UV-I 0 W/m² -1,1 °C -1,0 °C 11,3 km/h (2 Bft)
08.03.2018 05:00 1,1 °C 85 % 1006,5 hPa 0,0 mm 3,8 km/h (1 Bft) W-SW 239 ° 0 min 0,000 mm 0,0 UV-I 0 W/m² -1,1 °C 1,1 °C 4,8 km/h (1 Bft)
08.03.2018 05:01 1,0 °C 85 % 1006,4 hPa 0,0 mm 4,9 km/h (1 Bft) SW 226 ° 0 min 0,026 mm 0,0 UV-I 0 W/m² -1,2 °C -0,4 °C 8,0 km/h (2 Bft)
08.03.2018 05:02 1,0 °C 85 % 1006,5 hPa 0,0 mm 3,6 km/h (1 Bft) SW 232 ° 0 min 0,000 mm 0,0 UV-I 0 W/m² -1,2 °C 1,0 °C 4,8 km/h (1 Bft)
08.03.2018 05:03 1,0 °C 85 % 1006,5 hPa 0,0 mm 3,5 km/h (1 Bft) W-SW 256 ° 0 min 0,000 mm 0,0 UV-I 0 W/m² -1,2 °C 1,0 °C 6,4 km/h (2 Bft)
08.03.2018 05:04 1,0 °C 85 % 1006,4 hPa 0,0 mm 2,0 km/h (1 Bft) W-SW 240 ° 0 min 0,000 mm 0,0 UV-I 0 W/m² -1,2 °C 1,0 °C 3,2 km/h (1 Bft)
08.03.2018 05:05 1,0 °C 85 % 1006,5 hPa 0,0 mm 1,1 km/h (1 Bft) W-SW 240 ° 0 min 0,000 mm 0,0 UV-I 0 W/m² -1,2 °C 1,0 °C 3,2 km/h (1 Bft)
08.03.2018 05:06 1,0 °C 85 % 1006,5 hPa 0,0 mm 0,8 km/h (0 Bft) W-SW 240 ° 0 min 0,000 mm 0,0 UV-I 0 W/m² -1,2 °C 1,0 °C 3,2 km/h (1 Bft)
08.03.2018 05:07 1,0 °C 85 % 1006,4 hPa 0,0 mm 2,7 km/h (1 Bft) SW 233 ° 0 min 0,000 mm 0,0 UV-I 0 W/m² -1,2 °C 1,0 °C 6,4 km/h (2 Bft)
08.03.2018 05:08 1,0 °C 85 % 1006,5 hPa 0,0 mm 1,9 km/h (1 Bft) SW 234 ° 0 min 0,000 mm 0,0 UV-I 0 W/m² -1,2 °C 1,0 °C 4,8 km/h (1 Bft)
08.03.2018 05:09 1,0 °C 85 % 1006,5 hPa 0,0 mm 2,0 km/h (1 Bft) SW 234 ° 0 min 0,000 mm 0,0 UV-I 0 W/m² -1,2 °C 1,0 °C 4,8 km/h (1 Bft)
08.03.2018 05:10 1,0 °C 85 % 1006,5 hPa 0,0 mm 4,2 km/h (1 Bft) W 263 ° 0 min 0,000 mm 0,0 UV-I 0 W/m² -1,2 °C 1,0 °C 11,3 km/h (2 Bft)
08.03.2018 05:11 1,0 °C 85 % 1006,6 hPa 0,0 mm 4,9 km/h (1 Bft) W 265 ° 0 min 0,000 mm 0,0 UV-I 0 W/m² -1,2 °C -0,4 °C 9,7 km/h (2 Bft)
08.03.2018 05:12 0,9 °C 85 % 1006,6 hPa 0,0 mm 3,9 km/h (1 Bft) W 261 ° 0 min 0,000 mm 0,0 UV-I 0 W/m² -1,3 °C 0,9 °C 9,7 km/h (2 Bft)
08.03.2018 05:13 1,0 °C 85 % 1006,6 hPa 0,0 mm 5,2 km/h (1 Bft) W 266 ° 0 min 0,000 mm 0,0 UV-I 0 W/m² -1,2 °C -0,5 °C 9,7 km/h (2 Bft)
08.03.2018 05:14 1,0 °C 85 % 1006,7 hPa 0,0 mm 6,5 km/h (2 Bft) W-SW 248 ° 0 min 0,000 mm 0,0 UV-I 0 W/m² -1,2 °C -1,1 °C 11,3 km/h (2 Bft)
08.03.2018 05:15 1,0 °C 85 % 1006,7 hPa 0,0 mm 5,1 km/h (1 Bft) W 273 ° 0 min 0,000 mm 0,0 UV-I 0 W/m² -1,2 °C -0,5 °C 11,3 km/h (2 Bft)
08.03.2018 05:16 1,0 °C 85 % 1006,8 hPa 0,0 mm 4,3 km/h (1 Bft) W-NW 292 ° 0 min 0,000 mm 0,0 UV-I 0 W/m² -1,2 °C 1,0 °C 4,8 km/h (1 Bft)
08.03.2018 05:17 1,0 °C 86 % 1006,8 hPa 0,0 mm 4,4 km/h (1 Bft) W 262 ° 0 min 0,000 mm 0,0 UV-I 0 W/m² -1,1 °C 1,0 °C 6,4 km/h (2 Bft)
08.03.2018 05:18 0,9 °C 86 % 1006,8 hPa 0,0 mm 5,0 km/h (1 Bft) W 266 ° 0 min 0,000 mm 0,0 UV-I 0 W/m² -1,2 °C -0,6 °C 8,0 km/h (2 Bft)
08.03.2018 05:19 1,0 °C 86 % 1006,8 hPa 0,0 mm 7,2 km/h (2 Bft) W 271 ° 0 min 0,000 mm 0,0 UV-I 0 W/m² -1,1 °C -1,3 °C 9,7 km/h (2 Bft)
08.03.2018 05:20 1,0 °C 86 % 1006,9 hPa 0,0 mm 4,5 km/h (1 Bft) W-NW 292 ° 0 min 0,000 mm 0,0 UV-I 0 W/m² -1,1 °C 1,0 °C 6,4 km/h (2 Bft)
08.03.2018 05:21 1,0 °C 86 % 1006,9 hPa 0,0 mm 3,0 km/h (1 Bft) W 259 ° 0 min 0,000 mm 0,0 UV-I 0 W/m² -1,1 °C 1,0 °C 4,8 km/h (1 Bft)
08.03.2018 05:22 1,0 °C 86 % 1006,9 hPa 0,0 mm 6,8 km/h (2 Bft) W 281 ° 0 min 0,000 mm 0,0 UV-I 0 W/m² -1,1 °C -1,2 °C 11,3 km/h (2 Bft)
08.03.2018 05:23 1,0 °C 87 % 1007,0 hPa 0,0 mm 7,1 km/h (2 Bft) W-NW 284 ° 0 min 0,000 mm 0,0 UV-I 0 W/m² -0,9 °C -1,3 °C 12,9 km/h (3 Bft)
08.03.2018 05:24 1,0 °C 87 % 1007,0 hPa 0,0 mm 7,6 km/h (2 Bft) W 277 ° 0 min 0,000 mm 0,0 UV-I 0 W/m² -0,9 °C -1,4 °C 14,5 km/h (3 Bft)
08.03.2018 05:25 1,0 °C 87 % 1006,9 hPa 0,0 mm 6,0 km/h (2 Bft) W 264 ° 0 min 0,000 mm 0,0 UV-I 0 W/m² -0,9 °C -0,9 °C 9,7 km/h (2 Bft)
08.03.2018 05:26 1,1 °C 87 % 1006,9 hPa 0,0 mm 9,2 km/h (2 Bft) W 261 ° 0 min 0,000 mm 0,0 UV-I 0 W/m² -0,8 °C -1,8 °C 16,1 km/h (3 Bft)
08.03.2018 05:27 1,1 °C 87 % 1006,9 hPa 0,0 mm 10,4 km/h (2 Bft) W 259 ° 0 min 0,000 mm 0,0 UV-I 0 W/m² -0,8 °C -2,1 °C 16,1 km/h (3 Bft)
08.03.2018 05:28 1,1 °C 87 % 1006,9 hPa 0,0 mm 13,1 km/h (3 Bft) W-NW 292 ° 0 min 0,000 mm 0,0 UV-I 0 W/m² -0,8 °C -2,7 °C 17,7 km/h (3 Bft)
08.03.2018 05:29 1,0 °C 88 % 1007,0 hPa 0,0 mm 14,9 km/h (3 Bft) W-SW 258 ° 0 min 0,000 mm 0,0 UV-I 0 W/m² -0,8 °C -3,2 °C 19,3 km/h (3 Bft)
08.03.2018 05:30 1,0 °C 87 % 1007,0 hPa 0,0 mm 11,6 km/h (2 Bft) W-NW 290 ° 0 min 0,000 mm 0,0 UV-I 0 W/m² -0,9 °C -2,5 °C 16,1 km/h (3 Bft)
08.03.2018 05:31 1,0 °C 88 % 1007,0 hPa 0,0 mm 11,5 km/h (2 Bft) W-SW 248 ° 0 min 0,000 mm 0,0 UV-I 0 W/m² -0,8 °C -2,5 °C 16,1 km/h (3 Bft)
08.03.2018 05:32 0,9 °C 88 % 1007,0 hPa 0,0 mm 6,2 km/h (2 Bft) W-SW 250 ° 0 min 0,000 mm 0,0 UV-I 0 W/m² -0,9 °C -1,1 °C 8,0 km/h (2 Bft)
08.03.2018 05:33 0,9 °C 88 % 1007,1 hPa 0,0 mm 7,6 km/h (2 Bft) W-NW 290 ° 0 min 0,000 mm 0,0 UV-I 0 W/m² -0,9 °C -1,6 °C 11,3 km/h (2 Bft)
08.03.2018 05:34 0,9 °C 88 % 1007,0 hPa 0,0 mm 7,7 km/h (2 Bft) W-NW 289 ° 0 min 0,000 mm 0,0 UV-I 0 W/m² -0,9 °C -1,6 °C 14,5 km/h (3 Bft)
08.03.2018 05:35 0,9 °C 88 % 1007,0 hPa 0,0 mm 6,8 km/h (2 Bft) W-SW 245 ° 0 min 0,000 mm 0,0 UV-I 0 W/m² -0,9 °C -1,3 °C 11,3 km/h (2 Bft)
08.03.2018 05:36 0,9 °C 88 % 1007,0 hPa 0,0 mm 6,4 km/h (2 Bft) W 263 ° 0 min 0,000 mm 0,0 UV-I 0 W/m² -0,9 °C -1,1 °C 11,3 km/h (2 Bft)
08.03.2018 05:37 0,9 °C 88 % 1007,1 hPa 0,0 mm 10,2 km/h (2 Bft) W 273 ° 0 min 0,000 mm 0,0 UV-I 0 W/m² -0,9 °C -2,3 °C 14,5 km/h (3 Bft)
08.03.2018 05:38 0,9 °C 88 % 1007,1 hPa 0,0 mm 9,3 km/h (2 Bft) W-SW 248 ° 0 min 0,000 mm 0,0 UV-I 0 W/m² -0,9 °C -2,1 °C 16,1 km/h (3 Bft)
08.03.2018 05:39 0,9 °C 88 % 1007,1 hPa 0,0 mm 12,1 km/h (2 Bft) W 269 ° 0 min 0,000 mm 0,0 UV-I 0 W/m² -0,9 °C -2,7 °C 17,7 km/h (3 Bft)
08.03.2018 05:40 0,9 °C 88 % 1007,1 hPa 0,0 mm 13,6 km/h (3 Bft) W 269 ° 0 min 0,000 mm 0,0 UV-I 0 W/m² -0,9 °C -3,0 °C 17,7 km/h (3 Bft)
08.03.2018 05:41 0,9 °C 88 % 1007,1 hPa 0,0 mm 10,0 km/h (2 Bft) W-NW 302 ° 0 min 0,000 mm 0,0 UV-I 0 W/m² -0,9 °C -2,2 °C 17,7 km/h (3 Bft)
08.03.2018 05:42 0,9 °C 88 % 1007,1 hPa 0,0 mm 13,7 km/h (3 Bft) W 260 ° 0 min 0,000 mm 0,0 UV-I 0 W/m² -0,9 °C -3,1 °C 17,7 km/h (3 Bft)
08.03.2018 05:43 0,9 °C 88 % 1007,1 hPa 0,0 mm 10,5 km/h (2 Bft) W 264 ° 0 min 0,000 mm 0,0 UV-I 0 W/m² -0,9 °C -2,4 °C 14,5 km/h (3 Bft)
08.03.2018 05:44 0,9 °C 88 % 1007,1 hPa 0,0 mm 10,8 km/h (2 Bft) W-SW 257 ° 0 min 0,000 mm 0,0 UV-I 0 W/m² -0,9 °C -2,4 °C 14,5 km/h (3 Bft)
08.03.2018 05:45 0,9 °C 88 % 1007,1 hPa 0,0 mm 10,4 km/h (2 Bft) W 267 ° 0 min 0,000 mm 0,0 UV-I 0 W/m² -0,9 °C -2,3 °C 14,5 km/h (3 Bft)
08.03.2018 05:46 0,9 °C 88 % 1007,1 hPa 0,0 mm 6,9 km/h (2 Bft) W-SW 255 ° 0 min 0,000 mm 0,0 UV-I 0 W/m² -0,9 °C -1,3 °C 9,7 km/h (2 Bft)
08.03.2018 05:47 0,9 °C 88 % 1007,1 hPa 0,0 mm 7,1 km/h (2 Bft) NW 310 ° 0 min 0,000 mm 0,0 UV-I 0 W/m² -0,9 °C -1,4 °C 14,5 km/h (3 Bft)
08.03.2018 05:48 0,9 °C 88 % 1007,0 hPa 0,0 mm 12,4 km/h (3 Bft) W 267 ° 0 min 0,000 mm 0,0 UV-I 0 W/m² -0,9 °C -2,8 °C 17,7 km/h (3 Bft)
08.03.2018 05:49 0,9 °C 89 % 1007,1 hPa 0,0 mm 9,4 km/h (2 Bft) W 266 ° 0 min 0,000 mm 0,0 UV-I 0 W/m² -0,7 °C -2,1 °C 14,5 km/h (3 Bft)
08.03.2018 05:50 0,9 °C 88 % 1007,1 hPa 0,0 mm 9,7 km/h (2 Bft) W 267 ° 0 min 0,000 mm 0,0 UV-I 0 W/m² -0,9 °C -2,2 °C 16,1 km/h (3 Bft)
08.03.2018 05:51 0,9 °C 89 % 1007,1 hPa 0,0 mm 11,5 km/h (2 Bft) W 268 ° 0 min 0,000 mm 0,0 UV-I 0 W/m² -0,7 °C -2,6 °C 19,3 km/h (3 Bft)
08.03.2018 05:52 0,9 °C 88 % 1007,1 hPa 0,0 mm 15,0 km/h (3 Bft) W 273 ° 0 min 0,000 mm 0,0 UV-I 0 W/m² -0,9 °C -3,3 °C 22,5 km/h (4 Bft)
08.03.2018 05:53 0,9 °C 88 % 1007,2 hPa 0,0 mm 8,2 km/h (2 Bft) W 277 ° 0 min 0,000 mm 0,0 UV-I 0 W/m² -0,9 °C -1,7 °C 17,7 km/h (3 Bft)
08.03.2018 05:54 0,9 °C 88 % 1007,2 hPa 0,0 mm 8,4 km/h (2 Bft) W 280 ° 0 min 0,000 mm 0,0 UV-I 0 W/m² -0,9 °C -1,8 °C 14,5 km/h (3 Bft)
08.03.2018 05:55 0,9 °C 88 % 1007,2 hPa 0,0 mm 14,3 km/h (3 Bft) W 263 ° 0 min 0,000 mm 0,0 UV-I 0 W/m² -0,9 °C -3,2 °C 17,7 km/h (3 Bft)
08.03.2018 05:56 0,9 °C 88 % 1007,1 hPa 0,0 mm 16,0 km/h (3 Bft) W 265 ° 0 min 0,000 mm 0,0 UV-I 0 W/m² -0,9 °C -3,5 °C 22,5 km/h (4 Bft)
08.03.2018 05:57 0,9 °C 88 % 1007,2 hPa 0,0 mm 9,4 km/h (2 Bft) W-SW 239 ° 0 min 0,000 mm 0,0 UV-I 0 W/m² -0,9 °C -2,1 °C 14,5 km/h (3 Bft)
08.03.2018 05:58 0,8 °C 88 % 1007,1 hPa 0,0 mm 13,8 km/h (3 Bft) W 263 ° 0 min 0,000 mm 0,0 UV-I 0 W/m² -1,0 °C -3,2 °C 20,9 km/h (4 Bft)
08.03.2018 05:59 0,8 °C 88 % 1007,1 hPa 0,0 mm 11,7 km/h (2 Bft) SW 227 ° 0 min 0,000 mm 0,0 UV-I 0 W/m² -1,0 °C -2,8 °C 17,7 km/h (3 Bft)
08.03.2018 06:00 0,8 °C 88 % 1007,1 hPa 0,0 mm 3,6 km/h (1 Bft) SW 228 ° 0 min 0,000 mm 0,0 UV-I 0 W/m² -1,0 °C 0,8 °C 8,0 km/h (2 Bft)
08.03.2018 06:01 0,8 °C 88 % 1007,1 hPa 0,0 mm 5,2 km/h (1 Bft) W 269 ° 0 min 0,000 mm 0,0 UV-I 0 W/m² -1,0 °C -0,8 °C 11,3 km/h (2 Bft)
08.03.2018 06:02 0,8 °C 88 % 1007,1 hPa 0,0 mm 8,3 km/h (2 Bft) W-SW 243 ° 0 min 0,000 mm 0,0 UV-I 0 W/m² -1,0 °C -1,9 °C 12,9 km/h (3 Bft)
08.03.2018 06:03 0,8 °C 88 % 1007,1 hPa 0,0 mm 10,4 km/h (2 Bft) W-SW 255 ° 0 min 0,000 mm 0,0 UV-I 0 W/m² -1,0 °C -2,5 °C 17,7 km/h (3 Bft)
08.03.2018 06:04 0,7 °C 88 % 1007,1 hPa 0,0 mm 11,3 km/h (2 Bft) W-SW 242 ° 0 min 0,000 mm 0,0 UV-I 0 W/m² -1,1 °C -2,8 °C 14,5 km/h (3 Bft)
08.03.2018 06:05 0,7 °C 88 % 1007,1 hPa 0,0 mm 10,3 km/h (2 Bft) W 261 ° 0 min 0,000 mm 0,0 UV-I 0 W/m² -1,1 °C -2,6 °C 12,9 km/h (3 Bft)
08.03.2018 06:06 0,7 °C 88 % 1007,1 hPa 0,0 mm 10,6 km/h (2 Bft) W 265 ° 0 min 0,000 mm 0,0 UV-I 0 W/m² -1,1 °C -2,6 °C 14,5 km/h (3 Bft)
08.03.2018 06:07 0,7 °C 88 % 1007,1 hPa 0,0 mm 8,1 km/h (2 Bft) W-SW 250 ° 0 min 0,000 mm 0,0 UV-I 0 W/m² -1,1 °C -1,9 °C 11,3 km/h (2 Bft)
08.03.2018 06:08 0,7 °C 88 % 1007,2 hPa 0,0 mm 7,9 km/h (2 Bft) W 263 ° 0 min 0,000 mm 0,0 UV-I 0 W/m² -1,1 °C -1,9 °C 12,9 km/h (3 Bft)
08.03.2018 06:09 0,7 °C 88 % 1007,2 hPa 0,0 mm 5,8 km/h (2 Bft) W-SW 248 ° 0 min 0,000 mm 0,0 UV-I 0 W/m² -1,1 °C -1,1 °C 9,7 km/h (2 Bft)
08.03.2018 06:10 0,7 °C 89 % 1007,1 hPa 0,0 mm 11,8 km/h (2 Bft) S-SW 207 ° 0 min 0,000 mm 0,0 UV-I 0 W/m² -0,9 °C -2,9 °C 16,1 km/h (3 Bft)
08.03.2018 06:11 0,7 °C 89 % 1007,2 hPa 0,0 mm 5,3 km/h (1 Bft) W-SW 238 ° 0 min 0,000 mm 0,0 UV-I 0 W/m² -0,9 °C -0,9 °C 8,0 km/h (2 Bft)
08.03.2018 06:12 0,7 °C 88 % 1007,2 hPa 0,0 mm 9,5 km/h (2 Bft) SW 223 ° 0 min 0,000 mm 0,0 UV-I 0 W/m² -1,1 °C -2,3 °C 16,1 km/h (3 Bft)
08.03.2018 06:13 0,7 °C 88 % 1007,2 hPa 0,0 mm 12,8 km/h (3 Bft) W-SW 254 ° 0 min 0,000 mm 0,0 UV-I 0 W/m² -1,1 °C -3,1 °C 19,3 km/h (3 Bft)
08.03.2018 06:14 0,7 °C 88 % 1007,2 hPa 0,0 mm 12,2 km/h (2 Bft) S-SW 212 ° 0 min 0,000 mm 0,0 UV-I 0 W/m² -1,1 °C -3,0 °C 17,7 km/h (3 Bft)
08.03.2018 06:15 0,7 °C 88 % 1007,2 hPa 0,0 mm 5,9 km/h (2 Bft) W-SW 256 ° 0 min 0,000 mm 0,0 UV-I 0 W/m² -1,1 °C -1,2 °C 14,5 km/h (3 Bft)
08.03.2018 06:16 0,7 °C 88 % 1007,2 hPa 0,0 mm 11,3 km/h (2 Bft) W-SW 244 ° 0 min 0,000 mm 0,0 UV-I 0 W/m² -1,1 °C -2,8 °C 17,7 km/h (3 Bft)
08.03.2018 06:17 0,7 °C 88 % 1007,2 hPa 0,0 mm 7,6 km/h (2 Bft) W 263 ° 0 min 0,000 mm 0,0 UV-I 0 W/m² -1,1 °C -1,8 °C 12,9 km/h (3 Bft)
08.03.2018 06:18 0,7 °C 88 % 1007,3 hPa 0,0 mm 11,9 km/h (2 Bft) W 261 ° 0 min 0,000 mm 0,0 UV-I 0 W/m² -1,1 °C -2,9 °C 16,1 km/h (3 Bft)
08.03.2018 06:19 0,7 °C 87 % 1007,2 hPa 0,0 mm 8,9 km/h (2 Bft) W-SW 251 ° 0 min 0,000 mm 0,0 UV-I 0 W/m² -1,2 °C -2,2 °C 14,5 km/h (3 Bft)
08.03.2018 06:20 0,7 °C 87 % 1007,2 hPa 0,0 mm 9,3 km/h (2 Bft) W 266 ° 0 min 0,000 mm 0,0 UV-I 0 W/m² -1,2 °C -2,3 °C 12,9 km/h (3 Bft)
08.03.2018 06:21 0,7 °C 87 % 1007,2 hPa 0,0 mm 8,1 km/h (2 Bft) W 266 ° 0 min 0,000 mm 0,0 UV-I 0 W/m² -1,2 °C -1,9 °C 17,7 km/h (3 Bft)
08.03.2018 06:22 0,7 °C 87 % 1007,3 hPa 0,0 mm 12,0 km/h (2 Bft) W 274 ° 0 min 0,000 mm 0,0 UV-I 0 W/m² -1,2 °C -3,0 °C 19,3 km/h (3 Bft)
08.03.2018 06:23 0,6 °C 87 % 1007,3 hPa 0,0 mm 15,3 km/h (3 Bft) W-SW 243 ° 0 min 0,000 mm 0,0 UV-I 0 W/m² -1,3 °C -3,7 °C 19,3 km/h (3 Bft)
08.03.2018 06:24 0,7 °C 87 % 1007,3 hPa 0,0 mm 15,7 km/h (3 Bft) W-NW 282 ° 0 min 0,000 mm 0,0 UV-I 0 W/m² -1,2 °C -3,7 °C 19,3 km/h (3 Bft)
08.03.2018 06:25 0,6 °C 87 % 1007,4 hPa 0,0 mm 11,1 km/h (2 Bft) W-SW 250 ° 0 min 0,000 mm 0,0 UV-I 0 W/m² -1,3 °C -2,9 °C 17,7 km/h (3 Bft)
08.03.2018 06:26 0,6 °C 87 % 1007,4 hPa 0,0 mm 14,4 km/h (3 Bft) W 269 ° 0 min 0,000 mm 0,0 UV-I 0 W/m² -1,3 °C -3,6 °C 22,5 km/h (4 Bft)
08.03.2018 06:27 0,7 °C 87 % 1007,4 hPa 0,0 mm 12,6 km/h (3 Bft) W-SW 251 ° 0 min 0,000 mm 0,0 UV-I 0 W/m² -1,2 °C -3,1 °C 14,5 km/h (3 Bft)
08.03.2018 06:28 0,7 °C 87 % 1007,4 hPa 0,0 mm 14,0 km/h (3 Bft) W 271 ° 0 min 0,000 mm 0,0 UV-I 0 W/m² -1,2 °C -3,4 °C 19,3 km/h (3 Bft)
08.03.2018 06:29 0,7 °C 87 % 1007,4 hPa 0,0 mm 12,7 km/h (3 Bft) W 279 ° 0 min 0,000 mm 0,0 UV-I 0 W/m² -1,2 °C -3,1 °C 19,3 km/h (3 Bft)
08.03.2018 06:30 0,7 °C 87 % 1007,4 hPa 0,0 mm 12,6 km/h (3 Bft) W-SW 257 ° 0 min 0,000 mm 0,0 UV-I 0 W/m² -1,2 °C -3,1 °C 20,9 km/h (4 Bft)
08.03.2018 06:31 0,7 °C 87 % 1007,4 hPa 0,0 mm 12,7 km/h (3 Bft) W 264 ° 0 min 0,000 mm 0,0 UV-I 0 W/m² -1,2 °C -3,1 °C 17,7 km/h (3 Bft)
08.03.2018 06:32 0,7 °C 87 % 1007,4 hPa 0,0 mm 8,7 km/h (2 Bft) W-SW 246 ° 0 min 0,000 mm 0,0 UV-I 0 W/m² -1,2 °C -2,1 °C 16,1 km/h (3 Bft)
08.03.2018 06:33 0,7 °C 86 % 1007,4 hPa 0,0 mm 6,9 km/h (2 Bft) W-SW 254 ° 0 min 0,000 mm 0,0 UV-I 0 W/m² -1,4 °C -1,6 °C 11,3 km/h (2 Bft)
08.03.2018 06:34 0,7 °C 86 % 1007,5 hPa 0,0 mm 10,1 km/h (2 Bft) W-SW 253 ° 0 min 0,000 mm 0,0 UV-I 0 W/m² -1,4 °C -2,5 °C 16,1 km/h (3 Bft)
08.03.2018 06:35 0,7 °C 86 % 1007,5 hPa 0,0 mm 5,2 km/h (1 Bft) W-NW 289 ° 0 min 0,000 mm 0,0 UV-I 0 W/m² -1,4 °C -0,9 °C 9,7 km/h (2 Bft)
08.03.2018 06:36 0,7 °C 86 % 1007,5 hPa 0,0 mm 8,3 km/h (2 Bft) W 260 ° 0 min 0,000 mm 0,0 UV-I 0 W/m² -1,4 °C -2,0 °C 12,9 km/h (3 Bft)
08.03.2018 06:37 0,7 °C 86 % 1007,5 hPa 0,0 mm 13,7 km/h (3 Bft) W-SW 254 ° 0 min 0,000 mm 0,0 UV-I 0 W/m² -1,4 °C -3,3 °C 20,9 km/h (4 Bft)
08.03.2018 06:38 0,7 °C 86 % 1007,5 hPa 0,0 mm 10,9 km/h (2 Bft) SW 223 ° 0 min 0,000 mm 0,0 UV-I 0 W/m² -1,4 °C -2,7 °C 14,5 km/h (3 Bft)
08.03.2018 06:39 0,8 °C 86 % 1007,5 hPa 0,0 mm 6,3 km/h (2 Bft) W-SW 253 ° 0 min 0,000 mm 0,0 UV-I 0 W/m² -1,3 °C -1,2 °C 11,3 km/h (2 Bft)
08.03.2018 06:40 0,8 °C 86 % 1007,5 hPa 0,0 mm 11,7 km/h (2 Bft) W 261 ° 0 min 0,000 mm 0,0 UV-I 0 W/m² -1,3 °C -2,8 °C 16,1 km/h (3 Bft)
08.03.2018 06:41 0,8 °C 86 % 1007,5 hPa 0,0 mm 9,5 km/h (2 Bft) W 266 ° 0 min 0,000 mm 0,0 UV-I 0 W/m² -1,3 °C -2,2 °C 14,5 km/h (3 Bft)
08.03.2018 06:42 0,8 °C 86 % 1007,6 hPa 0,0 mm 12,8 km/h (3 Bft) W 268 ° 0 min 0,000 mm 0,0 UV-I 0 W/m² -1,3 °C -3,0 °C 14,5 km/h (3 Bft)
08.03.2018 06:43 0,8 °C 86 % 1007,6 hPa 0,0 mm 11,6 km/h (2 Bft) W 268 ° 0 min 0,000 mm 0,0 UV-I 0 W/m² -1,3 °C -2,7 °C 17,7 km/h (3 Bft)
08.03.2018 06:44 0,8 °C 86 % 1007,6 hPa 0,0 mm 8,6 km/h (2 Bft) W 264 ° 0 min 0,000 mm 0,0 UV-I 0 W/m² -1,3 °C -2,0 °C 12,9 km/h (3 Bft)
08.03.2018 06:45 0,8 °C 86 % 1007,6 hPa 0,0 mm 13,8 km/h (3 Bft) W-SW 248 ° 0 min 0,000 mm 0,0 UV-I 5 W/m² -1,3 °C -3,2 °C 22,5 km/h (4 Bft)
08.03.2018 06:46 0,8 °C 86 % 1007,6 hPa 0,0 mm 11,3 km/h (2 Bft) W-SW 258 ° 0 min 0,000 mm 0,0 UV-I 5 W/m² -1,3 °C -2,7 °C 20,9 km/h (4 Bft)
08.03.2018 06:47 0,8 °C 86 % 1007,6 hPa 0,0 mm 6,4 km/h (2 Bft) W-SW 254 ° 0 min 0,000 mm 0,0 UV-I 5 W/m² -1,3 °C -1,3 °C 11,3 km/h (2 Bft)
08.03.2018 06:48 0,8 °C 86 % 1007,6 hPa 0,0 mm 6,6 km/h (2 Bft) SW 236 ° 0 min 0,000 mm 0,0 UV-I 5 W/m² -1,3 °C -1,3 °C 9,7 km/h (2 Bft)
08.03.2018 06:49 0,8 °C 86 % 1007,6 hPa 0,0 mm 10,0 km/h (2 Bft) W-SW 247 ° 0 min 0,000 mm 0,0 UV-I 7 W/m² -1,3 °C -2,4 °C 16,1 km/h (3 Bft)
08.03.2018 06:50 0,8 °C 86 % 1007,7 hPa 0,0 mm 8,3 km/h (2 Bft) W 265 ° 0 min 0,000 mm 0,0 UV-I 7 W/m² -1,3 °C -1,9 °C 12,9 km/h (3 Bft)
08.03.2018 06:51 0,9 °C 85 % 1007,6 hPa 0,0 mm 7,1 km/h (2 Bft) W 270 ° 0 min 0,000 mm 0,0 UV-I 7 W/m² -1,3 °C -1,4 °C 11,3 km/h (2 Bft)
08.03.2018 06:52 0,9 °C 85 % 1007,7 hPa 0,0 mm 4,0 km/h (1 Bft) W-NW 286 ° 0 min 0,000 mm 0,0 UV-I 7 W/m² -1,3 °C 0,9 °C 6,4 km/h (2 Bft)
08.03.2018 06:53 0,9 °C 85 % 1007,7 hPa 0,0 mm 5,4 km/h (1 Bft) W-SW 244 ° 0 min 0,000 mm 0,0 UV-I 7 W/m² -1,3 °C -0,7 °C 11,3 km/h (2 Bft)
08.03.2018 06:54 0,9 °C 85 % 1007,7 hPa 0,0 mm 8,9 km/h (2 Bft) W 264 ° 0 min 0,000 mm 0,0 UV-I 7 W/m² -1,3 °C -1,9 °C 16,1 km/h (3 Bft)
08.03.2018 06:55 0,9 °C 85 % 1007,7 hPa 0,0 mm 7,6 km/h (2 Bft) W-SW 257 ° 0 min 0,000 mm 0,0 UV-I 7 W/m² -1,3 °C -1,6 °C 16,1 km/h (3 Bft)
08.03.2018 06:56 1,0 °C 85 % 1007,8 hPa 0,0 mm 7,9 km/h (2 Bft) W 281 ° 0 min 0,000 mm 0,0 UV-I 7 W/m² -1,2 °C -1,5 °C 12,9 km/h (3 Bft)
08.03.2018 06:57 1,0 °C 85 % 1007,7 hPa 0,0 mm 9,3 km/h (2 Bft) W 264 ° 0 min 0,000 mm 0,0 UV-I 7 W/m² -1,2 °C -1,9 °C 12,9 km/h (3 Bft)
08.03.2018 06:58 1,1 °C 84 % 1007,8 hPa 0,0 mm 6,4 km/h (2 Bft) SW 223 ° 0 min 0,000 mm 0,0 UV-I 7 W/m² -1,3 °C -0,9 °C 11,3 km/h (2 Bft)
08.03.2018 06:59 1,1 °C 84 % 1007,8 hPa 0,0 mm 8,0 km/h (2 Bft) W 271 ° 0 min 0,000 mm 0,0 UV-I 7 W/m² -1,3 °C -1,4 °C 14,5 km/h (3 Bft)
08.03.2018 07:00 1,1 °C 84 % 1007,8 hPa 0,0 mm 7,2 km/h (2 Bft) W-SW 250 ° 0 min 0,000 mm 0,0 UV-I 7 W/m² -1,3 °C -1,2 °C 12,9 km/h (3 Bft)
08.03.2018 07:01 1,1 °C 84 % 1007,8 hPa 0,0 mm 15,2 km/h (3 Bft) W-NW 286 ° 0 min 0,000 mm 0,0 UV-I 7 W/m² -1,3 °C -3,1 °C 22,5 km/h (4 Bft)
08.03.2018 07:02 1,1 °C 83 % 1007,9 hPa 0,0 mm 8,4 km/h (2 Bft) SW 229 ° 0 min 0,000 mm 0,0 UV-I 7 W/m² -1,5 °C -1,6 °C 14,5 km/h (3 Bft)
08.03.2018 07:03 1,1 °C 83 % 1007,9 hPa 0,0 mm 9,6 km/h (2 Bft) W 259 ° 0 min 0,000 mm 0,0 UV-I 7 W/m² -1,5 °C -1,9 °C 17,7 km/h (3 Bft)
08.03.2018 07:04 1,1 °C 83 % 1007,9 hPa 0,0 mm 14,5 km/h (3 Bft) W 278 ° 0 min 0,000 mm 0,0 UV-I 9 W/m² -1,5 °C -3,0 °C 17,7 km/h (3 Bft)
08.03.2018 07:05 1,1 °C 83 % 1007,9 hPa 0,0 mm 9,3 km/h (2 Bft) W-SW 241 ° 0 min 0,000 mm 0,0 UV-I 9 W/m² -1,5 °C -1,8 °C 14,5 km/h (3 Bft)
08.03.2018 07:06 1,1 °C 83 % 1007,9 hPa 0,0 mm 12,7 km/h (3 Bft) W 275 ° 0 min 0,000 mm 0,0 UV-I 11 W/m² -1,5 °C -2,6 °C 16,1 km/h (3 Bft)
08.03.2018 07:07 1,1 °C 83 % 1007,8 hPa 0,0 mm 18,8 km/h (3 Bft) W 259 ° 0 min 0,000 mm 0,0 UV-I 11 W/m² -1,5 °C -3,7 °C 25,7 km/h (4 Bft)
08.03.2018 07:08 1,1 °C 83 % 1007,9 hPa 0,0 mm 8,0 km/h (2 Bft) SW 236 ° 0 min 0,000 mm 0,0 UV-I 11 W/m² -1,5 °C -1,4 °C 19,3 km/h (3 Bft)
08.03.2018 07:09 1,1 °C 83 % 1007,9 hPa 0,0 mm 5,2 km/h (1 Bft) W 271 ° 0 min 0,000 mm 0,0 UV-I 11 W/m² -1,5 °C -0,4 °C 8,0 km/h (2 Bft)
08.03.2018 07:10 1,1 °C 83 % 1007,9 hPa 0,0 mm 4,9 km/h (1 Bft) SW 236 ° 0 min 0,000 mm 0,0 UV-I 12 W/m² -1,5 °C -0,3 °C 8,0 km/h (2 Bft)
08.03.2018 07:11 1,1 °C 83 % 1007,9 hPa 0,0 mm 3,9 km/h (1 Bft) S-SW 211 ° 0 min 0,000 mm 0,0 UV-I 12 W/m² -1,5 °C 1,1 °C 6,4 km/h (2 Bft)
08.03.2018 07:12 1,1 °C 83 % 1007,9 hPa 0,0 mm 7,1 km/h (2 Bft) W 277 ° 0 min 0,000 mm 0,0 UV-I 12 W/m² -1,5 °C -1,2 °C 12,9 km/h (3 Bft)
08.03.2018 07:13 1,1 °C 83 % 1007,9 hPa 0,0 mm 5,9 km/h (2 Bft) S-SW 207 ° 0 min 0,000 mm 0,0 UV-I 12 W/m² -1,5 °C -0,7 °C 9,7 km/h (2 Bft)
08.03.2018 07:14 1,1 °C 83 % 1008,0 hPa 0,0 mm 3,5 km/h (1 Bft) W 270 ° 0 min 0,000 mm 0,0 UV-I 12 W/m² -1,5 °C 1,1 °C 9,7 km/h (2 Bft)
08.03.2018 07:15 1,2 °C 82 % 1008,0 hPa 0,0 mm 8,7 km/h (2 Bft) SW 228 ° 0 min 0,000 mm 0,0 UV-I 12 W/m² -1,5 °C -1,5 °C 22,5 km/h (4 Bft)
08.03.2018 07:16 1,2 °C 82 % 1008,0 hPa 0,0 mm 3,7 km/h (1 Bft) SW 214 ° 0 min 0,000 mm 0,0 UV-I 12 W/m² -1,5 °C 1,2 °C 4,8 km/h (1 Bft)
08.03.2018 07:17 1,2 °C 82 % 1008,0 hPa 0,0 mm 3,1 km/h (1 Bft) W-SW 250 ° 0 min 0,000 mm 0,0 UV-I 14 W/m² -1,5 °C 1,2 °C 14,5 km/h (3 Bft)
08.03.2018 07:18 1,2 °C 82 % 1008,0 hPa 0,0 mm 4,8 km/h (1 Bft) SW 217 ° 0 min 0,000 mm 0,0 UV-I 14 W/m² -1,5 °C -0,1 °C 16,1 km/h (3 Bft)
08.03.2018 07:19 1,2 °C 82 % 1008,0 hPa 0,0 mm 3,6 km/h (1 Bft) W 266 ° 0 min 0,000 mm 0,0 UV-I 14 W/m² -1,5 °C 1,2 °C 6,4 km/h (2 Bft)
08.03.2018 07:20 1,2 °C 82 % 1008,1 hPa 0,0 mm 3,3 km/h (1 Bft) W-SW 238 ° 0 min 0,000 mm 0,0 UV-I 14 W/m² -1,5 °C 1,2 °C 4,8 km/h (1 Bft)
08.03.2018 07:21 1,1 °C 82 % 1008,1 hPa 0,0 mm 2,1 km/h (1 Bft) W-SW 252 ° 0 min 0,000 mm 0,0 UV-I 14 W/m² -1,6 °C 1,1 °C 4,8 km/h (1 Bft)
08.03.2018 07:22 1,1 °C 82 % 1008,1 hPa 0,0 mm 3,3 km/h (1 Bft) SW 216 ° 0 min 0,000 mm 0,0 UV-I 14 W/m² -1,6 °C 1,1 °C 6,4 km/h (2 Bft)
08.03.2018 07:23 1,1 °C 83 % 1008,1 hPa 0,0 mm 3,2 km/h (1 Bft) SW 216 ° 0 min 0,000 mm 0,0 UV-I 16 W/m² -1,5 °C 1,1 °C 6,4 km/h (2 Bft)
08.03.2018 07:24 1,1 °C 83 % 1008,2 hPa 0,0 mm 2,1 km/h (1 Bft) W-SW 257 ° 0 min 0,000 mm 0,0 UV-I 16 W/m² -1,5 °C 1,1 °C 4,8 km/h (1 Bft)
08.03.2018 07:25 1,1 °C 83 % 1008,2 hPa 0,0 mm 2,6 km/h (1 Bft) SW 227 ° 0 min 0,000 mm 0,0 UV-I 16 W/m² -1,5 °C 1,1 °C 4,8 km/h (1 Bft)
08.03.2018 07:26 1,1 °C 83 % 1008,2 hPa 0,0 mm 2,2 km/h (1 Bft) SW 221 ° 0 min 0,000 mm 0,0 UV-I 16 W/m² -1,5 °C 1,1 °C 3,2 km/h (1 Bft)
08.03.2018 07:27 1,1 °C 83 % 1008,2 hPa 0,0 mm 2,6 km/h (1 Bft) SW 221 ° 0 min 0,000 mm 0,0 UV-I 18 W/m² -1,5 °C 1,1 °C 4,8 km/h (1 Bft)
08.03.2018 07:28 1,1 °C 83 % 1008,2 hPa 0,0 mm 3,8 km/h (1 Bft) SW 232 ° 0 min 0,000 mm 0,0 UV-I 19 W/m² -1,5 °C 1,1 °C 11,3 km/h (2 Bft)
08.03.2018 07:29 1,1 °C 83 % 1008,2 hPa 0,0 mm 3,6 km/h (1 Bft) W 263 ° 0 min 0,000 mm 0,0 UV-I 23 W/m² -1,5 °C 1,1 °C 6,4 km/h (2 Bft)
08.03.2018 07:30 1,1 °C 83 % 1008,3 hPa 0,0 mm 2,3 km/h (1 Bft) SW 230 ° 0 min 0,000 mm 0,0 UV-I 26 W/m² -1,5 °C 1,1 °C 4,8 km/h (1 Bft)
08.03.2018 07:31 1,1 °C 82 % 1008,2 hPa 0,0 mm 2,3 km/h (1 Bft) SW 230 ° 0 min 0,000 mm 0,0 UV-I 28 W/m² -1,6 °C 1,1 °C 3,2 km/h (1 Bft)
08.03.2018 07:32 1,1 °C 83 % 1008,3 hPa 0,0 mm 0,3 km/h (0 Bft) SW 230 ° 0 min 0,000 mm 0,0 UV-I 33 W/m² -1,5 °C 1,1 °C 1,6 km/h (1 Bft)
08.03.2018 07:33 1,1 °C 82 % 1008,3 hPa 0,0 mm 0,0 km/h (0 Bft) SW 230 ° 0 min 0,000 mm 0,0 UV-I 37 W/m² -1,6 °C 1,1 °C 0,0 km/h (0 Bft)
08.03.2018 07:34 1,1 °C 83 % 1008,3 hPa 0,0 mm 0,0 km/h (0 Bft) SW 230 ° 0 min 0,000 mm 0,0 UV-I 39 W/m² -1,5 °C 1,1 °C 0,0 km/h (0 Bft)
08.03.2018 07:35 1,1 °C 83 % 1008,3 hPa 0,0 mm 1,3 km/h (1 Bft) SW 229 ° 0 min 0,000 mm 0,0 UV-I 40 W/m² -1,5 °C 1,1 °C 3,2 km/h (1 Bft)
08.03.2018 07:36 1,1 °C 83 % 1008,3 hPa 0,0 mm 1,6 km/h (1 Bft) SW 229 ° 0 min 0,000 mm 0,0 UV-I 42 W/m² -1,5 °C 1,1 °C 3,2 km/h (1 Bft)
08.03.2018 07:37 1,1 °C 83 % 1008,3 hPa 0,0 mm 0,3 km/h (0 Bft) SW 230 ° 0 min 0,000 mm 0,0 UV-I 44 W/m² -1,5 °C 1,1 °C 1,6 km/h (1 Bft)
08.03.2018 07:38 1,1 °C 83 % 1008,3 hPa 0,0 mm 2,2 km/h (1 Bft) SW 230 ° 0 min 0,000 mm 0,0 UV-I 44 W/m² -1,5 °C 1,1 °C 3,2 km/h (1 Bft)
08.03.2018 07:39 1,0 °C 83 % 1008,3 hPa 0,0 mm 0,7 km/h (0 Bft) SW 230 ° 0 min 0,000 mm 0,0 UV-I 47 W/m² -1,6 °C 1,0 °C 1,6 km/h (1 Bft)
08.03.2018 07:40 0,9 °C 83 % 1008,3 hPa 0,0 mm 0,0 km/h (0 Bft) SW 229 ° 0 min 0,000 mm 0,0 UV-I 44 W/m² -1,7 °C 0,9 °C 0,0 km/h (0 Bft)
08.03.2018 07:41 0,9 °C 83 % 1008,3 hPa 0,0 mm 1,9 km/h (1 Bft) SW 229 ° 0 min 0,000 mm 0,0 UV-I 40 W/m² -1,7 °C 0,9 °C 6,4 km/h (2 Bft)
08.03.2018 07:42 1,0 °C 83 % 1008,3 hPa 0,0 mm 0,9 km/h (0 Bft) SW 229 ° 0 min 0,000 mm 0,0 UV-I 39 W/m² -1,6 °C 1,0 °C 4,8 km/h (1 Bft)
08.03.2018 07:43 0,9 °C 83 % 1008,3 hPa 0,0 mm 0,9 km/h (0 Bft) SW 229 ° 0 min 0,000 mm 0,0 UV-I 37 W/m² -1,7 °C 0,9 °C 3,2 km/h (1 Bft)
08.03.2018 07:44 0,9 °C 83 % 1008,3 hPa 0,0 mm 1,7 km/h (1 Bft) SW 229 ° 0 min 0,000 mm 0,0 UV-I 35 W/m² -1,7 °C 0,9 °C 3,2 km/h (1 Bft)
08.03.2018 07:45 0,9 °C 83 % 1008,4 hPa 0,0 mm 0,0 km/h (0 Bft) SW 229 ° 0 min 0,000 mm 0,0 UV-I 33 W/m² -1,7 °C 0,9 °C 0,0 km/h (0 Bft)
08.03.2018 07:46 0,9 °C 83 % 1008,4 hPa 0,0 mm 0,4 km/h (0 Bft) SW 229 ° 0 min 0,000 mm 0,0 UV-I 32 W/m² -1,7 °C 0,9 °C 1,6 km/h (1 Bft)
08.03.2018 07:47 0,8 °C 83 % 1008,4 hPa 0,0 mm 3,5 km/h (1 Bft) SW 225 ° 0 min 0,000 mm 0,0 UV-I 30 W/m² -1,8 °C 0,8 °C 4,8 km/h (1 Bft)
08.03.2018 07:48 0,8 °C 83 % 1008,4 hPa 0,0 mm 2,3 km/h (1 Bft) S-SW 205 ° 0 min 0,000 mm 0,0 UV-I 30 W/m² -1,8 °C 0,8 °C 4,8 km/h (1 Bft)
08.03.2018 07:49 0,8 °C 83 % 1008,4 hPa 0,0 mm 2,7 km/h (1 Bft) S-SW 205 ° 0 min 0,000 mm 0,0 UV-I 28 W/m² -1,8 °C 0,8 °C 4,8 km/h (1 Bft)
08.03.2018 07:50 0,8 °C 83 % 1008,4 hPa 0,0 mm 3,3 km/h (1 Bft) S-SW 201 ° 0 min 0,000 mm 0,0 UV-I 28 W/m² -1,8 °C 0,8 °C 6,4 km/h (2 Bft)
08.03.2018 07:51 0,7 °C 82 % 1008,4 hPa 0,0 mm 0,1 km/h (0 Bft) S-SW 201 ° 0 min 0,000 mm 0,0 UV-I 28 W/m² -2,0 °C 0,7 °C 1,6 km/h (1 Bft)
08.03.2018 07:52 0,7 °C 84 % 1008,4 hPa 0,0 mm 0,7 km/h (0 Bft) S-SW 201 ° 0 min 0,000 mm 0,0 UV-I 25 W/m² -1,7 °C 0,7 °C 1,6 km/h (1 Bft)
08.03.2018 07:53 0,7 °C 84 % 1008,4 hPa 0,0 mm 0,4 km/h (0 Bft) S-SW 201 ° 0 min 0,000 mm 0,0 UV-I 25 W/m² -1,7 °C 0,7 °C 1,6 km/h (1 Bft)
08.03.2018 07:54 0,7 °C 84 % 1008,4 hPa 0,0 mm 1,7 km/h (1 Bft) S-SW 200 ° 0 min 0,000 mm 0,0 UV-I 25 W/m² -1,7 °C 0,7 °C 3,2 km/h (1 Bft)
08.03.2018 07:55 0,7 °C 84 % 1008,4 hPa 0,0 mm 4,2 km/h (1 Bft) W-SW 248 ° 0 min 0,000 mm 0,0 UV-I 23 W/m² -1,7 °C 0,7 °C 9,7 km/h (2 Bft)
08.03.2018 07:56 0,6 °C 84 % 1008,4 hPa 0,0 mm 2,2 km/h (1 Bft) SW 233 ° 0 min 0,000 mm 0,0 UV-I 23 W/m² -1,8 °C 0,6 °C 4,8 km/h (1 Bft)
08.03.2018 07:57 0,7 °C 83 % 1008,4 hPa 0,0 mm 2,1 km/h (1 Bft) SW 229 ° 0 min 0,000 mm 0,0 UV-I 21 W/m² -1,8 °C 0,7 °C 3,2 km/h (1 Bft)
08.03.2018 07:58 0,7 °C 83 % 1008,4 hPa 0,0 mm 1,0 km/h (0 Bft) SW 229 ° 0 min 0,000 mm 0,0 UV-I 23 W/m² -1,8 °C 0,7 °C 3,2 km/h (1 Bft)
08.03.2018 07:59 0,7 °C 84 % 1008,5 hPa 0,0 mm 0,0 km/h (0 Bft) SW 229 ° 0 min 0,000 mm 0,0 UV-I 23 W/m² -1,7 °C 0,7 °C 0,0 km/h (0 Bft)
08.03.2018 08:00 0,7 °C 83 % 1008,5 hPa 0,0 mm 0,0 km/h (0 Bft) SW 229 ° 0 min 0,025 mm 0,0 UV-I 25 W/m² -1,8 °C 0,7 °C 0,0 km/h (0 Bft)
08.03.2018 08:01 0,7 °C 83 % 1008,5 hPa 0,0 mm 0,5 km/h (0 Bft) SW 229 ° 0 min 0,000 mm 0,0 UV-I 26 W/m² -1,8 °C 0,7 °C 1,6 km/h (1 Bft)
08.03.2018 08:02 0,8 °C 83 % 1008,5 hPa 0,0 mm 0,1 km/h (0 Bft) SW 229 ° 0 min 0,000 mm 0,0 UV-I 28 W/m² -1,8 °C 0,8 °C 1,6 km/h (1 Bft)
08.03.2018 08:03 0,8 °C 83 % 1008,5 hPa 0,0 mm 3,0 km/h (1 Bft) S-SW 206 ° 0 min 0,000 mm 0,0 UV-I 28 W/m² -1,8 °C 0,8 °C 4,8 km/h (1 Bft)
08.03.2018 08:04 0,9 °C 82 % 1008,6 hPa 0,0 mm 3,4 km/h (1 Bft) S-SW 192 ° 0 min 0,000 mm 0,0 UV-I 33 W/m² -1,8 °C 0,9 °C 6,4 km/h (2 Bft)
08.03.2018 08:05 1,1 °C 82 % 1008,5 hPa 0,0 mm 3,4 km/h (1 Bft) S 187 ° 0 min 0,000 mm 0,0 UV-I 46 W/m² -1,6 °C 1,1 °C 8,0 km/h (2 Bft)
08.03.2018 08:06 1,2 °C 81 % 1008,6 hPa 0,0 mm 0,8 km/h (0 Bft) S 187 ° 0 min 0,000 mm 0,6 UV-I 60 W/m² -1,7 °C 1,2 °C 1,6 km/h (1 Bft)
08.03.2018 08:07 1,3 °C 80 % 1008,5 hPa 0,0 mm 3,3 km/h (1 Bft) W-SW 238 ° 0 min 0,000 mm 0,6 UV-I 76 W/m² -1,8 °C 1,3 °C 4,8 km/h (1 Bft)
08.03.2018 08:08 1,4 °C 80 % 1008,5 hPa 0,0 mm 1,7 km/h (1 Bft) W-SW 240 ° 0 min 0,000 mm 0,6 UV-I 90 W/m² -1,7 °C 1,4 °C 4,8 km/h (1 Bft)
08.03.2018 08:09 1,4 °C 80 % 1008,5 hPa 0,0 mm 1,9 km/h (1 Bft) S-SW 199 ° 0 min 0,000 mm 0,6 UV-I 100 W/m² -1,7 °C 1,4 °C 4,8 km/h (1 Bft)
08.03.2018 08:10 1,6 °C 80 % 1008,6 hPa 0,0 mm 2,3 km/h (1 Bft) W 270 ° 0 min 0,000 mm 0,6 UV-I 120 W/m² -1,5 °C 1,6 °C 6,4 km/h (2 Bft)
08.03.2018 08:11 1,7 °C 80 % 1008,6 hPa 0,0 mm 2,6 km/h (1 Bft) S-SW 205 ° 0 min 0,000 mm 0,6 UV-I 125 W/m² -1,4 °C 1,7 °C 4,8 km/h (1 Bft)
08.03.2018 08:12 1,8 °C 79 % 1008,5 hPa 0,0 mm 2,2 km/h (1 Bft) W 272 ° 0 min 0,000 mm 0,6 UV-I 128 W/m² -1,4 °C 1,8 °C 3,2 km/h (1 Bft)
08.03.2018 08:13 1,8 °C 80 % 1008,6 hPa 0,0 mm 2,2 km/h (1 Bft) W 271 ° 0 min 0,000 mm 0,6 UV-I 130 W/m² -1,3 °C 1,8 °C 4,8 km/h (1 Bft)
08.03.2018 08:14 1,9 °C 79 % 1008,6 hPa 0,0 mm 3,0 km/h (1 Bft) W-SW 248 ° 0 min 0,000 mm 0,5 UV-I 127 W/m² -1,3 °C 1,9 °C 4,8 km/h (1 Bft)
08.03.2018 08:15 1,9 °C 79 % 1008,6 hPa 0,0 mm 4,7 km/h (1 Bft) W-SW 244 ° 0 min 0,000 mm 0,5 UV-I 111 W/m² -1,3 °C 0,7 °C 9,7 km/h (2 Bft)
08.03.2018 08:16 2,0 °C 79 % 1008,6 hPa 0,0 mm 6,1 km/h (2 Bft) W 264 ° 0 min 0,000 mm 0,5 UV-I 104 W/m² -1,2 °C 0,2 °C 11,3 km/h (2 Bft)
08.03.2018 08:17 2,0 °C 78 % 1008,5 hPa 0,0 mm 4,9 km/h (1 Bft) W 259 ° 0 min 0,000 mm 0,5 UV-I 98 W/m² -1,4 °C 0,7 °C 6,4 km/h (2 Bft)
08.03.2018 08:18 2,1 °C 79 % 1008,6 hPa 0,0 mm 2,5 km/h (1 Bft) W 267 ° 0 min 0,000 mm 0,5 UV-I 97 W/m² -1,2 °C 2,1 °C 6,4 km/h (2 Bft)
08.03.2018 08:19 2,1 °C 78 % 1008,6 hPa 0,0 mm 3,2 km/h (1 Bft) W 267 ° 0 min 0,000 mm 0,5 UV-I 90 W/m² -1,3 °C 2,1 °C 4,8 km/h (1 Bft)
08.03.2018 08:20 2,1 °C 78 % 1008,5 hPa 0,0 mm 5,6 km/h (1 Bft) W 268 ° 0 min 0,000 mm 0,5 UV-I 88 W/m² -1,3 °C 0,5 °C 9,7 km/h (2 Bft)
08.03.2018 08:21 2,1 °C 78 % 1008,6 hPa 0,0 mm 3,6 km/h (1 Bft) W 269 ° 0 min 0,000 mm 0,5 UV-I 93 W/m² -1,3 °C 2,1 °C 9,7 km/h (2 Bft)
08.03.2018 08:22 2,1 °C 78 % 1008,6 hPa 0,0 mm 7,8 km/h (2 Bft) W-SW 258 ° 0 min 0,000 mm 0,6 UV-I 98 W/m² -1,3 °C -0,2 °C 11,3 km/h (2 Bft)
08.03.2018 08:23 2,1 °C 78 % 1008,6 hPa 0,0 mm 2,5 km/h (1 Bft) W-SW 258 ° 0 min 0,000 mm 0,6 UV-I 107 W/m² -1,3 °C 2,1 °C 4,8 km/h (1 Bft)
08.03.2018 08:24 2,2 °C 78 % 1008,6 hPa 0,0 mm 3,0 km/h (1 Bft) W 269 ° 0 min 0,000 mm 0,6 UV-I 111 W/m² -1,2 °C 2,2 °C 6,4 km/h (2 Bft)
08.03.2018 08:25 2,2 °C 78 % 1008,6 hPa 0,0 mm 3,7 km/h (1 Bft) W 269 ° 0 min 0,000 mm 0,6 UV-I 114 W/m² -1,2 °C 2,2 °C 4,8 km/h (1 Bft)
08.03.2018 08:26 2,2 °C 78 % 1008,6 hPa 0,0 mm 3,4 km/h (1 Bft) W-SW 257 ° 0 min 0,000 mm 0,5 UV-I 118 W/m² -1,2 °C 2,2 °C 4,8 km/h (1 Bft)
08.03.2018 08:27 2,2 °C 78 % 1008,6 hPa 0,0 mm 3,3 km/h (1 Bft) W-SW 257 ° 0 min 0,000 mm 0,5 UV-I 113 W/m² -1,2 °C 2,2 °C 4,8 km/h (1 Bft)
08.03.2018 08:28 2,2 °C 78 % 1008,7 hPa 0,0 mm 3,7 km/h (1 Bft) S-SW 198 ° 0 min 0,000 mm 0,5 UV-I 105 W/m² -1,2 °C 2,2 °C 8,0 km/h (2 Bft)
08.03.2018 08:29 2,2 °C 76 % 1008,7 hPa 0,0 mm 3,6 km/h (1 Bft) W-NW 286 ° 0 min 0,000 mm 0,0 UV-I 93 W/m² -1,6 °C 2,2 °C 6,4 km/h (2 Bft)
08.03.2018 08:30 2,3 °C 76 % 1008,7 hPa 0,0 mm 1,9 km/h (1 Bft) W-NW 286 ° 0 min 0,000 mm 0,0 UV-I 81 W/m² -1,5 °C 2,3 °C 4,8 km/h (1 Bft)
08.03.2018 08:31 2,3 °C 77 % 1008,7 hPa 0,0 mm 4,0 km/h (1 Bft) W 265 ° 0 min 0,000 mm 0,0 UV-I 76 W/m² -1,3 °C 2,3 °C 9,7 km/h (2 Bft)
08.03.2018 08:32 2,3 °C 76 % 1008,6 hPa 0,0 mm 4,8 km/h (1 Bft) W-SW 242 ° 0 min 0,000 mm 0,0 UV-I 72 W/m² -1,5 °C 1,1 °C 9,7 km/h (2 Bft)
08.03.2018 08:33 2,3 °C 75 % 1008,6 hPa 0,0 mm 4,8 km/h (1 Bft) W-SW 246 ° 0 min 0,000 mm 0,0 UV-I 65 W/m² -1,7 °C 1,1 °C 6,4 km/h (2 Bft)
08.03.2018 08:34 2,3 °C 74 % 1008,7 hPa 0,0 mm 3,6 km/h (1 Bft) W-SW 257 ° 0 min 0,000 mm 0,0 UV-I 60 W/m² -1,8 °C 2,3 °C 6,4 km/h (2 Bft)
08.03.2018 08:35 2,4 °C 74 % 1008,7 hPa 0,0 mm 2,3 km/h (1 Bft) W 275 ° 0 min 0,000 mm 0,0 UV-I 58 W/m² -1,7 °C 2,4 °C 4,8 km/h (1 Bft)
08.03.2018 08:36 2,4 °C 74 % 1008,7 hPa 0,0 mm 6,0 km/h (2 Bft) W 281 ° 0 min 0,000 mm 0,0 UV-I 63 W/m² -1,7 °C 0,7 °C 9,7 km/h (2 Bft)
08.03.2018 08:37 2,4 °C 74 % 1008,6 hPa 0,0 mm 1,0 km/h (0 Bft) W-SW 247 ° 0 min 0,000 mm 0,5 UV-I 67 W/m² -1,7 °C 2,4 °C 1,6 km/h (1 Bft)
08.03.2018 08:38 2,4 °C 74 % 1008,7 hPa 0,0 mm 6,1 km/h (2 Bft) W 269 ° 0 min 0,000 mm 0,6 UV-I 72 W/m² -1,7 °C 0,7 °C 11,3 km/h (2 Bft)
08.03.2018 08:39 2,4 °C 74 % 1008,7 hPa 0,0 mm 6,7 km/h (2 Bft) W-SW 252 ° 0 min 0,000 mm 0,6 UV-I 93 W/m² -1,7 °C 0,5 °C 11,3 km/h (2 Bft)
08.03.2018 08:40 2,4 °C 74 % 1008,6 hPa 0,0 mm 8,1 km/h (2 Bft) W 264 ° 0 min 0,000 mm 0,7 UV-I 111 W/m² -1,7 °C 0,1 °C 14,5 km/h (3 Bft)
08.03.2018 08:41 2,4 °C 74 % 1008,6 hPa 0,0 mm 5,1 km/h (1 Bft) W 271 ° 0 min 0,000 mm 0,8 UV-I 130 W/m² -1,7 °C 1,1 °C 9,7 km/h (2 Bft)
08.03.2018 08:42 2,4 °C 75 % 1008,7 hPa 0,0 mm 4,4 km/h (1 Bft) W 259 ° 0 min 0,000 mm 0,8 UV-I 146 W/m² -1,6 °C 2,4 °C 6,4 km/h (2 Bft)
08.03.2018 08:43 2,4 °C 74 % 1008,6 hPa 0,0 mm 12,1 km/h (2 Bft) W 272 ° 0 min 0,000 mm 0,8 UV-I 144 W/m² -1,7 °C -0,9 °C 22,5 km/h (4 Bft)
08.03.2018 08:44 2,5 °C 74 % 1008,6 hPa 0,0 mm 8,1 km/h (2 Bft) SW 233 ° 0 min 0,000 mm 0,8 UV-I 141 W/m² -1,7 °C 0,2 °C 19,3 km/h (3 Bft)
08.03.2018 08:45 2,6 °C 74 % 1008,6 hPa 0,0 mm 8,0 km/h (2 Bft) W-SW 245 ° 0 min 0,000 mm 0,8 UV-I 128 W/m² -1,6 °C 0,3 °C 16,1 km/h (3 Bft)
08.03.2018 08:46 2,6 °C 75 % 1008,6 hPa 0,0 mm 8,1 km/h (2 Bft) W 265 ° 0 min 0,000 mm 0,8 UV-I 116 W/m² -1,4 °C 0,3 °C 16,1 km/h (3 Bft)
08.03.2018 08:47 2,6 °C 74 % 1008,6 hPa 0,0 mm 2,2 km/h (1 Bft) W-SW 246 ° 0 min 0,000 mm 0,8 UV-I 107 W/m² -1,6 °C 2,6 °C 4,8 km/h (1 Bft)
08.03.2018 08:48 2,6 °C 73 % 1008,6 hPa 0,0 mm 5,3 km/h (1 Bft) W 260 ° 0 min 0,000 mm 0,9 UV-I 105 W/m² -1,7 °C 1,2 °C 12,9 km/h (3 Bft)
08.03.2018 08:49 2,6 °C 73 % 1008,6 hPa 0,0 mm 10,2 km/h (2 Bft) W 259 ° 0 min 0,000 mm 0,9 UV-I 100 W/m² -1,7 °C -0,3 °C 14,5 km/h (3 Bft)
08.03.2018 08:50 2,7 °C 73 % 1008,6 hPa 0,0 mm 9,6 km/h (2 Bft) W 260 ° 0 min 0,000 mm 0,9 UV-I 97 W/m² -1,6 °C 0,0 °C 12,9 km/h (3 Bft)
08.03.2018 08:51 2,7 °C 73 % 1008,6 hPa 0,0 mm 9,9 km/h (2 Bft) W 260 ° 0 min 0,000 mm 0,9 UV-I 67 W/m² -1,6 °C -0,1 °C 14,5 km/h (3 Bft)
08.03.2018 08:52 2,7 °C 74 % 1008,5 hPa 0,0 mm 2,6 km/h (1 Bft) W-SW 249 ° 0 min 0,000 mm 0,9 UV-I 58 W/m² -1,5 °C 2,7 °C 3,2 km/h (1 Bft)
08.03.2018 08:53 2,7 °C 74 % 1008,6 hPa 0,0 mm 2,9 km/h (1 Bft) W 261 ° 0 min 0,000 mm 0,0 UV-I 53 W/m² -1,5 °C 2,7 °C 11,3 km/h (2 Bft)
08.03.2018 08:54 2,7 °C 74 % 1008,6 hPa 0,0 mm 7,3 km/h (2 Bft) W 278 ° 0 min 0,000 mm 0,0 UV-I 54 W/m² -1,5 °C 0,6 °C 11,3 km/h (2 Bft)
08.03.2018 08:55 2,7 °C 73 % 1008,6 hPa 0,0 mm 6,6 km/h (2 Bft) W 277 ° 0 min 0,000 mm 1,0 UV-I 65 W/m² -1,6 °C 0,9 °C 11,3 km/h (2 Bft)
08.03.2018 08:56 2,7 °C 73 % 1008,5 hPa 0,0 mm 12,1 km/h (2 Bft) W-SW 245 ° 0 min 0,000 mm 1,0 UV-I 102 W/m² -1,6 °C -0,6 °C 19,3 km/h (3 Bft)
08.03.2018 08:57 2,7 °C 72 % 1008,5 hPa 0,0 mm 4,5 km/h (1 Bft) W 262 ° 0 min 0,000 mm 1,1 UV-I 213 W/m² -1,8 °C 2,7 °C 8,0 km/h (2 Bft)
08.03.2018 08:58 2,8 °C 72 % 1008,5 hPa 0,0 mm 5,1 km/h (1 Bft) W 271 ° 0 min 0,000 mm 1,2 UV-I 200 W/m² -1,7 °C 1,5 °C 9,7 km/h (2 Bft)
08.03.2018 08:59 2,9 °C 73 % 1008,5 hPa 0,0 mm 8,4 km/h (2 Bft) SW 229 ° 0 min 0,000 mm 1,2 UV-I 183 W/m² -1,5 °C 0,6 °C 12,9 km/h (3 Bft)
08.03.2018 09:00 3,0 °C 72 % 1008,5 hPa 0,0 mm 5,6 km/h (1 Bft) W-SW 252 ° 0 min 0,000 mm 1,2 UV-I 162 W/m² -1,5 °C 1,6 °C 9,7 km/h (2 Bft)
08.03.2018 09:01 3,0 °C 72 % 1008,4 hPa 0,0 mm 6,2 km/h (2 Bft) W 263 ° 0 min 0,051 mm 1,1 UV-I 121 W/m² -1,5 °C 1,4 °C 9,7 km/h (2 Bft)
08.03.2018 09:02 3,1 °C 72 % 1008,4 hPa 0,0 mm 9,6 km/h (2 Bft) SW 236 ° 0 min 0,000 mm 1,0 UV-I 84 W/m² -1,4 °C 0,5 °C 16,1 km/h (3 Bft)
08.03.2018 09:03 3,2 °C 71 % 1008,4 hPa 0,0 mm 6,2 km/h (2 Bft) S-SW 193 ° 0 min 0,000 mm 1,0 UV-I 67 W/m² -1,5 °C 1,6 °C 11,3 km/h (2 Bft)
08.03.2018 09:04 3,2 °C 71 % 1008,3 hPa 0,0 mm 4,1 km/h (1 Bft) W 273 ° 0 min 0,000 mm 1,0 UV-I 69 W/m² -1,5 °C 3,2 °C 6,4 km/h (2 Bft)
08.03.2018 09:05 3,2 °C 71 % 1008,3 hPa 0,0 mm 10,8 km/h (2 Bft) W 270 ° 0 min 0,000 mm 1,0 UV-I 77 W/m² -1,5 °C 0,3 °C 12,9 km/h (3 Bft)
08.03.2018 09:06 3,3 °C 71 % 1008,3 hPa 0,0 mm 5,4 km/h (1 Bft) W 262 ° 0 min 0,000 mm 1,1 UV-I 98 W/m² -1,4 °C 2,0 °C 9,7 km/h (2 Bft)
08.03.2018 09:07 3,3 °C 71 % 1008,3 hPa 0,0 mm 7,8 km/h (2 Bft) W 279 ° 0 min 0,000 mm 1,1 UV-I 128 W/m² -1,4 °C 1,2 °C 12,9 km/h (3 Bft)
08.03.2018 09:08 3,3 °C 71 % 1008,4 hPa 0,0 mm 8,9 km/h (2 Bft) W-SW 255 ° 0 min 0,000 mm 1,2 UV-I 153 W/m² -1,4 °C 0,9 °C 12,9 km/h (3 Bft)
08.03.2018 09:09 3,4 °C 70 % 1008,4 hPa 0,0 mm 9,5 km/h (2 Bft) W-NW 296 ° 0 min 0,000 mm 1,2 UV-I 146 W/m² -1,5 °C 0,9 °C 14,5 km/h (3 Bft)
08.03.2018 09:10 3,4 °C 70 % 1008,4 hPa 0,0 mm 6,5 km/h (2 Bft) W 271 ° 0 min 0,000 mm 1,2 UV-I 141 W/m² -1,5 °C 1,7 °C 11,3 km/h (2 Bft)
08.03.2018 09:11 3,5 °C 70 % 1008,4 hPa 0,0 mm 9,0 km/h (2 Bft) W 279 ° 0 min 0,000 mm 1,2 UV-I 135 W/m² -1,4 °C 1,1 °C 11,3 km/h (2 Bft)
08.03.2018 09:12 3,5 °C 70 % 1008,4 hPa 0,0 mm 5,8 km/h (2 Bft) W 262 ° 0 min 0,000 mm 1,2 UV-I 137 W/m² -1,4 °C 2,1 °C 9,7 km/h (2 Bft)
08.03.2018 09:13 3,6 °C 71 % 1008,4 hPa 0,0 mm 11,7 km/h (2 Bft) W-SW 254 ° 0 min 0,000 mm 1,3 UV-I 183 W/m² -1,2 °C 0,6 °C 17,7 km/h (3 Bft)
08.03.2018 09:14 3,5 °C 71 % 1008,4 hPa 0,0 mm 11,6 km/h (2 Bft) W 265 ° 0 min 0,000 mm 1,3 UV-I 190 W/m² -1,3 °C 0,5 °C 17,7 km/h (3 Bft)
08.03.2018 09:15 3,5 °C 71 % 1008,4 hPa 0,0 mm 13,5 km/h (3 Bft) W-SW 250 ° 0 min 0,000 mm 1,3 UV-I 142 W/m² -1,3 °C 0,2 °C 17,7 km/h (3 Bft)
08.03.2018 09:16 3,5 °C 70 % 1008,4 hPa 0,0 mm 12,8 km/h (3 Bft) W 267 ° 0 min 0,000 mm 1,3 UV-I 151 W/m² -1,4 °C 0,3 °C 19,3 km/h (3 Bft)
08.03.2018 09:17 3,5 °C 70 % 1008,4 hPa 0,0 mm 7,6 km/h (2 Bft) W 261 ° 0 min 0,000 mm 1,3 UV-I 199 W/m² -1,4 °C 1,5 °C 12,9 km/h (3 Bft)
08.03.2018 09:18 3,6 °C 71 % 1008,4 hPa 0,0 mm 10,5 km/h (2 Bft) W 272 ° 0 min 0,000 mm 1,4 UV-I 193 W/m² -1,2 °C 0,9 °C 14,5 km/h (3 Bft)
08.03.2018 09:19 3,6 °C 71 % 1008,4 hPa 0,0 mm 6,5 km/h (2 Bft) W-NW 284 ° 0 min 0,000 mm 1,4 UV-I 190 W/m² -1,2 °C 1,9 °C 12,9 km/h (3 Bft)
08.03.2018 09:20 3,7 °C 69 % 1008,4 hPa 0,0 mm 10,3 km/h (2 Bft) W 265 ° 0 min 0,000 mm 1,3 UV-I 185 W/m² -1,4 °C 1,0 °C 14,5 km/h (3 Bft)
08.03.2018 09:21 3,7 °C 70 % 1008,4 hPa 0,0 mm 13,1 km/h (3 Bft) W-NW 283 ° 0 min 0,000 mm 1,4 UV-I 202 W/m² -1,3 °C 0,5 °C 19,3 km/h (3 Bft)
08.03.2018 09:22 3,7 °C 69 % 1008,4 hPa 0,0 mm 9,2 km/h (2 Bft) W 267 ° 0 min 0,000 mm 1,4 UV-I 218 W/m² -1,4 °C 1,3 °C 14,5 km/h (3 Bft)
08.03.2018 09:23 3,7 °C 71 % 1008,3 hPa 0,0 mm 5,4 km/h (1 Bft) W 261 ° 0 min 0,000 mm 1,4 UV-I 230 W/m² -1,1 °C 2,4 °C 8,0 km/h (2 Bft)
08.03.2018 09:24 3,6 °C 71 % 1008,3 hPa 0,0 mm 6,6 km/h (2 Bft) W-SW 253 ° 0 min 0,000 mm 1,4 UV-I 237 W/m² -1,2 °C 1,9 °C 8,0 km/h (2 Bft)
08.03.2018 09:25 3,6 °C 70 % 1008,3 hPa 0,0 mm 11,9 km/h (2 Bft) NW 308 ° 0 min 0,000 mm 1,5 UV-I 262 W/m² -1,3 °C 0,6 °C 17,7 km/h (3 Bft)
08.03.2018 09:26 3,6 °C 71 % 1008,3 hPa 0,0 mm 10,7 km/h (2 Bft) W 259 ° 0 min 0,000 mm 1,5 UV-I 169 W/m² -1,2 °C 0,8 °C 16,1 km/h (3 Bft)
08.03.2018 09:27 3,6 °C 70 % 1008,3 hPa 0,0 mm 7,4 km/h (2 Bft) W-NW 283 ° 0 min 0,000 mm 1,3 UV-I 139 W/m² -1,3 °C 1,7 °C 11,3 km/h (2 Bft)
08.03.2018 09:28 3,6 °C 70 % 1008,3 hPa 0,0 mm 7,6 km/h (2 Bft) W-NW 302 ° 0 min 0,000 mm 1,3 UV-I 93 W/m² -1,3 °C 1,6 °C 11,3 km/h (2 Bft)
08.03.2018 09:29 3,7 °C 71 % 1008,3 hPa 0,0 mm 7,8 km/h (2 Bft) W 269 ° 0 min 0,000 mm 1,4 UV-I 176 W/m² -1,1 °C 1,7 °C 12,9 km/h (3 Bft)
08.03.2018 09:30 3,7 °C 70 % 1008,3 hPa 0,0 mm 8,1 km/h (2 Bft) W 280 ° 0 min 0,000 mm 1,4 UV-I 218 W/m² -1,3 °C 1,6 °C 12,9 km/h (3 Bft)
08.03.2018 09:31 3,7 °C 69 % 1008,3 hPa 0,0 mm 8,2 km/h (2 Bft) W 269 ° 0 min 0,000 mm 1,2 UV-I 200 W/m² -1,4 °C 1,6 °C 12,9 km/h (3 Bft)
08.03.2018 09:32 3,7 °C 70 % 1008,4 hPa 0,0 mm 5,9 km/h (2 Bft) W-NW 291 ° 0 min 0,000 mm 1,5 UV-I 214 W/m² -1,3 °C 2,3 °C 9,7 km/h (2 Bft)
08.03.2018 09:33 3,7 °C 70 % 1008,4 hPa 0,0 mm 2,6 km/h (1 Bft) W 270 ° 0 min 0,000 mm 1,5 UV-I 206 W/m² -1,3 °C 3,7 °C 4,8 km/h (1 Bft)
08.03.2018 09:34 3,7 °C 70 % 1008,3 hPa 0,0 mm 0,5 km/h (0 Bft) W 270 ° 0 min 0,000 mm 1,5 UV-I 202 W/m² -1,3 °C 3,7 °C 1,6 km/h (1 Bft)
08.03.2018 09:35 3,7 °C 70 % 1008,4 hPa 0,0 mm 3,2 km/h (1 Bft) W-SW 250 ° 0 min 0,000 mm 1,5 UV-I 206 W/m² -1,3 °C 3,7 °C 4,8 km/h (1 Bft)
08.03.2018 09:36 3,7 °C 69 % 1008,4 hPa 0,0 mm 4,2 km/h (1 Bft) W-SW 240 ° 0 min 0,000 mm 1,4 UV-I 188 W/m² -1,4 °C 3,7 °C 11,3 km/h (2 Bft)
08.03.2018 09:37 3,7 °C 69 % 1008,4 hPa 0,0 mm 4,1 km/h (1 Bft) W 261 ° 0 min 0,000 mm 1,5 UV-I 239 W/m² -1,4 °C 3,7 °C 6,4 km/h (2 Bft)
08.03.2018 09:38 3,8 °C 68 % 1008,4 hPa 0,0 mm 2,8 km/h (1 Bft) W 261 ° 0 min 0,000 mm 1,5 UV-I 248 W/m² -1,6 °C 3,8 °C 4,8 km/h (1 Bft)
08.03.2018 09:39 3,9 °C 69 % 1008,3 hPa 0,0 mm 4,3 km/h (1 Bft) W 260 ° 0 min 0,000 mm 1,6 UV-I 202 W/m² -1,3 °C 3,9 °C 6,4 km/h (2 Bft)
08.03.2018 09:40 3,9 °C 71 % 1008,4 hPa 0,0 mm 4,2 km/h (1 Bft) W 266 ° 0 min 0,000 mm 1,5 UV-I 181 W/m² -0,9 °C 3,9 °C 6,4 km/h (2 Bft)
08.03.2018 09:41 3,9 °C 70 % 1008,3 hPa 0,0 mm 3,8 km/h (1 Bft) W 274 ° 0 min 0,000 mm 1,5 UV-I 204 W/m² -1,1 °C 3,9 °C 4,8 km/h (1 Bft)
08.03.2018 09:42 3,9 °C 69 % 1008,4 hPa 0,0 mm 5,3 km/h (1 Bft) W 261 ° 0 min 0,000 mm 1,6 UV-I 206 W/m² -1,3 °C 2,7 °C 9,7 km/h (2 Bft)
08.03.2018 09:43 4,1 °C 71 % 1008,4 hPa 0,0 mm 3,1 km/h (1 Bft) W 272 ° 0 min 0,000 mm 1,5 UV-I 132 W/m² -0,7 °C 4,1 °C 6,4 km/h (2 Bft)
08.03.2018 09:44 4,1 °C 68 % 1008,4 hPa 0,0 mm 8,4 km/h (2 Bft) W-NW 292 ° 0 min 0,000 mm 1,4 UV-I 149 W/m² -1,3 °C 2,0 °C 11,3 km/h (2 Bft)
08.03.2018 09:45 4,2 °C 68 % 1008,4 hPa 0,0 mm 3,0 km/h (1 Bft) NW 311 ° 0 min 0,000 mm 1,5 UV-I 158 W/m² -1,2 °C 4,2 °C 8,0 km/h (2 Bft)
08.03.2018 09:46 4,3 °C 67 % 1008,3 hPa 0,0 mm 5,6 km/h (1 Bft) NW 304 ° 0 min 0,000 mm 1,5 UV-I 142 W/m² -1,3 °C 3,1 °C 8,0 km/h (2 Bft)
08.03.2018 09:47 4,4 °C 66 % 1008,3 hPa 0,0 mm 3,8 km/h (1 Bft) W-NW 294 ° 0 min 0,000 mm 1,5 UV-I 176 W/m² -1,4 °C 4,4 °C 4,8 km/h (1 Bft)
08.03.2018 09:48 4,3 °C 67 % 1008,3 hPa 0,0 mm 5,6 km/h (1 Bft) W 263 ° 0 min 0,000 mm 1,6 UV-I 229 W/m² -1,3 °C 3,1 °C 9,7 km/h (2 Bft)
08.03.2018 09:49 4,4 °C 67 % 1008,3 hPa 0,0 mm 5,5 km/h (1 Bft) W-SW 254 ° 0 min 0,000 mm 1,7 UV-I 207 W/m² -1,2 °C 3,2 °C 9,7 km/h (2 Bft)
08.03.2018 09:50 4,4 °C 66 % 1008,3 hPa 0,0 mm 6,4 km/h (2 Bft) W 270 ° 0 min 0,000 mm 1,6 UV-I 206 W/m² -1,4 °C 2,9 °C 11,3 km/h (2 Bft)
08.03.2018 09:51 4,3 °C 64 % 1008,3 hPa 0,0 mm 5,9 km/h (2 Bft) W 261 ° 0 min 0,000 mm 1,7 UV-I 248 W/m² -1,9 °C 3,0 °C 8,0 km/h (2 Bft)
08.03.2018 09:52 4,4 °C 65 % 1008,3 hPa 0,0 mm 5,9 km/h (2 Bft) W 264 ° 0 min 0,000 mm 1,8 UV-I 253 W/m² -1,6 °C 3,1 °C 9,7 km/h (2 Bft)
08.03.2018 09:53 4,6 °C 67 % 1008,3 hPa 0,0 mm 5,6 km/h (1 Bft) W-NW 286 ° 0 min 0,000 mm 1,7 UV-I 225 W/m² -1,0 °C 3,4 °C 11,3 km/h (2 Bft)
08.03.2018 09:54 4,7 °C 67 % 1008,3 hPa 0,0 mm 6,6 km/h (2 Bft) W 275 ° 0 min 0,000 mm 1,3 UV-I 216 W/m² -0,9 °C 3,2 °C 12,9 km/h (3 Bft)
08.03.2018 09:55 4,8 °C 65 % 1008,3 hPa 0,0 mm 5,2 km/h (1 Bft) W-SW 245 ° 0 min 0,000 mm 1,7 UV-I 255 W/m² -1,2 °C 3,8 °C 8,0 km/h (2 Bft)
08.03.2018 09:56 4,8 °C 64 % 1008,3 hPa 0,0 mm 8,1 km/h (2 Bft) W 270 ° 0 min 0,000 mm 1,7 UV-I 202 W/m² -1,4 °C 2,9 °C 12,9 km/h (3 Bft)
08.03.2018 09:57 4,8 °C 62 % 1008,3 hPa 0,0 mm 5,6 km/h (1 Bft) W-SW 255 ° 0 min 0,000 mm 1,4 UV-I 193 W/m² -1,9 °C 3,6 °C 11,3 km/h (2 Bft)
08.03.2018 09:58 4,8 °C 64 % 1008,3 hPa 0,0 mm 5,7 km/h (1 Bft) SW 222 ° 0 min 0,000 mm 1,8 UV-I 123 W/m² -1,4 °C 3,6 °C 8,0 km/h (2 Bft)
08.03.2018 09:59 4,7 °C 63 % 1008,3 hPa 0,0 mm 7,8 km/h (2 Bft) W-SW 243 ° 0 min 0,000 mm 0,0 UV-I 53 W/m² -1,7 °C 2,8 °C 12,9 km/h (3 Bft)
08.03.2018 10:00 4,6 °C 63 % 1008,3 hPa 0,0 mm 6,8 km/h (2 Bft) W 267 ° 0 min 0,000 mm 0,0 UV-I 46 W/m² -1,8 °C 3,0 °C 12,9 km/h (3 Bft)
08.03.2018 10:01 4,5 °C 64 % 1008,3 hPa 0,0 mm 5,1 km/h (1 Bft) NW 304 ° 0 min 0,076 mm 0,0 UV-I 51 W/m² -1,7 °C 3,5 °C 9,7 km/h (2 Bft)
08.03.2018 10:02 4,4 °C 64 % 1008,3 hPa 0,0 mm 5,0 km/h (1 Bft) W-NW 298 ° 0 min 0,000 mm 1,3 UV-I 63 W/m² -1,8 °C 3,4 °C 6,4 km/h (2 Bft)
08.03.2018 10:03 4,3 °C 63 % 1008,2 hPa 0,0 mm 6,5 km/h (2 Bft) W 280 ° 0 min 0,000 mm 1,3 UV-I 58 W/m² -2,1 °C 2,8 °C 9,7 km/h (2 Bft)
08.03.2018 10:04 4,3 °C 64 % 1008,2 hPa 0,0 mm 3,2 km/h (1 Bft) W-SW 258 ° 0 min 0,000 mm 2,0 UV-I 58 W/m² -1,9 °C 4,3 °C 4,8 km/h (1 Bft)
08.03.2018 10:05 4,1 °C 65 % 1008,3 hPa 0,0 mm 3,8 km/h (1 Bft) W-SW 257 ° 1 min 0,000 mm 1,9 UV-I 323 W/m² -1,9 °C 4,1 °C 4,8 km/h (1 Bft)
08.03.2018 10:06 4,1 °C 65 % 1008,3 hPa 0,0 mm 3,4 km/h (1 Bft) W-NW 292 ° 1 min 0,000 mm 2,0 UV-I 334 W/m² -1,9 °C 4,1 °C 4,8 km/h (1 Bft)
08.03.2018 10:07 4,3 °C 67 % 1008,3 hPa 0,0 mm 8,2 km/h (2 Bft) W 266 ° 1 min 0,000 mm 2,0 UV-I 376 W/m² -1,3 °C 2,3 °C 11,3 km/h (2 Bft)
08.03.2018 10:08 4,4 °C 67 % 1008,2 hPa 0,0 mm 10,2 km/h (2 Bft) W 259 ° 1 min 0,000 mm 1,4 UV-I 376 W/m² -1,2 °C 1,9 °C 14,5 km/h (3 Bft)
08.03.2018 10:09 4,6 °C 64 % 1008,2 hPa 0,0 mm 11,1 km/h (2 Bft) W-NW 287 ° 0 min 0,000 mm 1,4 UV-I 86 W/m² -1,6 °C 1,9 °C 16,1 km/h (3 Bft)
08.03.2018 10:10 4,6 °C 62 % 1008,2 hPa 0,0 mm 6,5 km/h (2 Bft) S-SW 206 ° 0 min 0,000 mm 2,2 UV-I 77 W/m² -2,0 °C 3,1 °C 11,3 km/h (2 Bft)
08.03.2018 10:11 4,5 °C 61 % 1008,2 hPa 0,0 mm 6,3 km/h (2 Bft) W 269 ° 0 min 0,000 mm 2,2 UV-I 77 W/m² -2,4 °C 3,0 °C 11,3 km/h (2 Bft)
08.03.2018 10:12 4,6 °C 62 % 1008,2 hPa 0,0 mm 4,1 km/h (1 Bft) W 281 ° 0 min 0,000 mm 2,4 UV-I 77 W/m² -2,0 °C 4,6 °C 6,4 km/h (2 Bft)
08.03.2018 10:13 4,7 °C 62 % 1008,2 hPa 0,0 mm 3,1 km/h (1 Bft) W-NW 286 ° 1 min 0,000 mm 2,0 UV-I 496 W/m² -1,9 °C 4,7 °C 4,8 km/h (1 Bft)
08.03.2018 10:14 4,8 °C 65 % 1008,2 hPa 0,0 mm 6,8 km/h (2 Bft) W-NW 300 ° 1 min 0,000 mm 2,5 UV-I 510 W/m² -1,2 °C 3,2 °C 8,0 km/h (2 Bft)
08.03.2018 10:15 4,9 °C 62 % 1008,2 hPa 0,0 mm 5,0 km/h (1 Bft) W-NW 282 ° 1 min 0,000 mm 2,2 UV-I 510 W/m² -1,8 °C 4,0 °C 8,0 km/h (2 Bft)
08.03.2018 10:16 5,1 °C 64 % 1008,2 hPa 0,0 mm 4,6 km/h (1 Bft) W 268 ° 1 min 0,000 mm 2,5 UV-I 413 W/m² -1,1 °C 4,4 °C 6,4 km/h (2 Bft)
08.03.2018 10:17 5,2 °C 61 % 1008,2 hPa 0,0 mm 7,1 km/h (2 Bft) W-SW 258 ° 1 min 0,000 mm 2,3 UV-I 390 W/m² -1,7 °C 3,6 °C 9,7 km/h (2 Bft)
08.03.2018 10:18 5,2 °C 62 % 1008,2 hPa 0,0 mm 5,5 km/h (1 Bft) W-SW 246 ° 1 min 0,000 mm 2,5 UV-I 390 W/m² -1,5 °C 4,1 °C 8,0 km/h (2 Bft)
08.03.2018 10:19 5,3 °C 63 % 1008,2 hPa 0,0 mm 6,8 km/h (2 Bft) W-NW 286 ° 1 min 0,000 mm 2,6 UV-I 390 W/m² -1,2 °C 3,8 °C 11,3 km/h (2 Bft)
08.03.2018 10:20 5,3 °C 60 % 1008,2 hPa 0,0 mm 8,6 km/h (2 Bft) W-NW 295 ° 1 min 0,000 mm 2,6 UV-I 510 W/m² -1,8 °C 3,3 °C 16,1 km/h (3 Bft)
08.03.2018 10:21 5,3 °C 61 % 1008,2 hPa 0,0 mm 6,3 km/h (2 Bft) SW 220 ° 1 min 0,000 mm 2,6 UV-I 512 W/m² -1,6 °C 4,0 °C 11,3 km/h (2 Bft)
08.03.2018 10:22 5,2 °C 60 % 1008,2 hPa 0,0 mm 5,1 km/h (1 Bft) W-NW 288 ° 1 min 0,000 mm 2,6 UV-I 513 W/m² -1,9 °C 4,3 °C 8,0 km/h (2 Bft)
08.03.2018 10:23 5,2 °C 63 % 1008,2 hPa 0,0 mm 6,4 km/h (2 Bft) N-NW 331 ° 1 min 0,000 mm 2,6 UV-I 513 W/m² -1,3 °C 3,8 °C 14,5 km/h (3 Bft)
08.03.2018 10:24 5,3 °C 63 % 1008,2 hPa 0,0 mm 7,4 km/h (2 Bft) NW 319 ° 1 min 0,000 mm 2,6 UV-I 515 W/m² -1,2 °C 3,6 °C 14,5 km/h (3 Bft)
08.03.2018 10:25 5,4 °C 62 % 1008,2 hPa 0,0 mm 10,6 km/h (2 Bft) W-NW 295 ° 1 min 0,000 mm 2,7 UV-I 519 W/m² -1,3 °C 3,0 °C 17,7 km/h (3 Bft)
08.03.2018 10:26 5,5 °C 64 % 1008,2 hPa 0,0 mm 10,6 km/h (2 Bft) W-NW 288 ° 1 min 0,000 mm 2,7 UV-I 522 W/m² -0,8 °C 3,1 °C 14,5 km/h (3 Bft)
08.03.2018 10:27 5,6 °C 63 % 1008,2 hPa 0,0 mm 12,9 km/h (3 Bft) W-NW 285 ° 1 min 0,000 mm 2,7 UV-I 522 W/m² -0,9 °C 2,8 °C 16,1 km/h (3 Bft)
08.03.2018 10:28 5,6 °C 60 % 1008,2 hPa 0,0 mm 9,5 km/h (2 Bft) W-NW 287 ° 1 min 0,000 mm 2,7 UV-I 524 W/m² -1,5 °C 3,5 °C 12,9 km/h (3 Bft)
08.03.2018 10:29 5,6 °C 63 % 1008,2 hPa 0,0 mm 4,5 km/h (1 Bft) NW 321 ° 1 min 0,000 mm 2,7 UV-I 529 W/m² -0,9 °C 5,6 °C 6,4 km/h (2 Bft)
08.03.2018 10:30 5,7 °C 63 % 1008,2 hPa 0,0 mm 4,0 km/h (1 Bft) W 270 ° 1 min 0,000 mm 2,7 UV-I 531 W/m² -0,8 °C 5,7 °C 8,0 km/h (2 Bft)
08.03.2018 10:31 5,7 °C 62 % 1008,2 hPa 0,0 mm 10,2 km/h (2 Bft) W-NW 286 ° 1 min 0,000 mm 2,7 UV-I 533 W/m² -1,0 °C 3,5 °C 16,1 km/h (3 Bft)
08.03.2018 10:32 5,8 °C 61 % 1008,2 hPa 0,0 mm 7,5 km/h (2 Bft) W-NW 300 ° 1 min 0,000 mm 0,0 UV-I 533 W/m² -1,1 °C 4,2 °C 14,5 km/h (3 Bft)
08.03.2018 10:33 5,7 °C 59 % 1008,2 hPa 0,0 mm 5,0 km/h (1 Bft) W 279 ° 1 min 0,000 mm 2,8 UV-I 533 W/m² -1,7 °C 4,9 °C 11,3 km/h (2 Bft)
08.03.2018 10:34 5,7 °C 61 % 1008,2 hPa 0,0 mm 8,1 km/h (2 Bft) W 271 ° 1 min 0,000 mm 2,8 UV-I 538 W/m² -1,2 °C 3,9 °C 12,9 km/h (3 Bft)
08.03.2018 10:35 5,7 °C 62 % 1008,2 hPa 0,0 mm 6,4 km/h (2 Bft) NW 306 ° 1 min 0,000 mm 2,8 UV-I 538 W/m² -1,0 °C 4,4 °C 12,9 km/h (3 Bft)
08.03.2018 10:36 5,7 °C 61 % 1008,1 hPa 0,0 mm 9,0 km/h (2 Bft) NW 313 ° 1 min 0,000 mm 2,8 UV-I 538 W/m² -1,2 °C 3,7 °C 14,5 km/h (3 Bft)
08.03.2018 10:37 5,7 °C 61 % 1008,2 hPa 0,0 mm 8,1 km/h (2 Bft) W-NW 284 ° 1 min 0,000 mm 2,8 UV-I 540 W/m² -1,2 °C 3,9 °C 12,9 km/h (3 Bft)
08.03.2018 10:38 5,7 °C 60 % 1008,1 hPa 0,0 mm 9,5 km/h (2 Bft) W-NW 288 ° 1 min 0,000 mm 2,8 UV-I 545 W/m² -1,4 °C 3,6 °C 16,1 km/h (3 Bft)
08.03.2018 10:39 5,7 °C 60 % 1008,2 hPa 0,0 mm 9,0 km/h (2 Bft) W-NW 296 ° 1 min 0,000 mm 2,9 UV-I 550 W/m² -1,4 °C 3,7 °C 16,1 km/h (3 Bft)
08.03.2018 10:40 5,8 °C 59 % 1008,1 hPa 0,0 mm 4,1 km/h (1 Bft) NW 319 ° 1 min 0,000 mm 2,9 UV-I 566 W/m² -1,6 °C 5,8 °C 6,4 km/h (2 Bft)
08.03.2018 10:41 5,8 °C 59 % 1008,2 hPa 0,0 mm 4,1 km/h (1 Bft) NW 323 ° 1 min 0,000 mm 2,6 UV-I 566 W/m² -1,6 °C 5,8 °C 8,0 km/h (2 Bft)
08.03.2018 10:42 5,8 °C 61 % 1008,2 hPa 0,0 mm 6,4 km/h (2 Bft) W-NW 285 ° 1 min 0,000 mm 1,7 UV-I 566 W/m² -1,1 °C 4,5 °C 11,3 km/h (2 Bft)
08.03.2018 10:43 5,7 °C 60 % 1008,2 hPa 0,0 mm 7,3 km/h (2 Bft) NW 304 ° 1 min 0,000 mm 2,9 UV-I 559 W/m² -1,4 °C 4,1 °C 12,9 km/h (3 Bft)
08.03.2018 10:44 5,7 °C 56 % 1008,2 hPa 0,0 mm 7,6 km/h (2 Bft) W-SW 252 ° 1 min 0,000 mm 2,9 UV-I 559 W/m² -2,4 °C 4,1 °C 12,9 km/h (3 Bft)
08.03.2018 10:45 5,7 °C 56 % 1008,1 hPa 0,0 mm 11,0 km/h (2 Bft) W 263 ° 1 min 0,000 mm 2,9 UV-I 563 W/m² -2,4 °C 3,3 °C 14,5 km/h (3 Bft)
08.03.2018 10:46 5,7 °C 59 % 1008,1 hPa 0,0 mm 5,4 km/h (1 Bft) W-NW 282 ° 1 min 0,000 mm 2,2 UV-I 563 W/m² -1,7 °C 4,7 °C 12,9 km/h (3 Bft)
08.03.2018 10:47 5,7 °C 57 % 1008,0 hPa 0,0 mm 6,4 km/h (2 Bft) W-NW 292 ° 1 min 0,000 mm 2,6 UV-I 563 W/m² -2,1 °C 4,4 °C 11,3 km/h (2 Bft)
08.03.2018 10:48 5,7 °C 57 % 1008,0 hPa 0,0 mm 4,3 km/h (1 Bft) NW 313 ° 1 min 0,000 mm 2,9 UV-I 492 W/m² -2,1 °C 5,7 °C 8,0 km/h (2 Bft)
08.03.2018 10:49 5,8 °C 61 % 1008,0 hPa 0,0 mm 4,9 km/h (1 Bft) W 263 ° 1 min 0,000 mm 3,0 UV-I 559 W/m² -1,1 °C 5,0 °C 6,4 km/h (2 Bft)
08.03.2018 10:50 5,8 °C 59 % 1008,0 hPa 0,0 mm 3,4 km/h (1 Bft) W 268 ° 1 min 0,000 mm 3,0 UV-I 563 W/m² -1,6 °C 5,8 °C 6,4 km/h (2 Bft)
08.03.2018 10:51 5,9 °C 61 % 1008,0 hPa 0,0 mm 2,4 km/h (1 Bft) W 273 ° 1 min 0,000 mm 3,0 UV-I 566 W/m² -1,0 °C 5,9 °C 4,8 km/h (1 Bft)
08.03.2018 10:52 5,8 °C 59 % 1008,0 hPa 0,0 mm 8,4 km/h (2 Bft) NW 307 ° 1 min 0,000 mm 3,0 UV-I 568 W/m² -1,6 °C 4,0 °C 14,5 km/h (3 Bft)
08.03.2018 10:53 5,9 °C 59 % 1008,0 hPa 0,0 mm 7,5 km/h (2 Bft) W-NW 282 ° 1 min 0,000 mm 3,0 UV-I 575 W/m² -1,5 °C 4,3 °C 12,9 km/h (3 Bft)
08.03.2018 10:54 5,9 °C 60 % 1008,0 hPa 0,0 mm 8,9 km/h (2 Bft) W-NW 296 ° 1 min 0,000 mm 3,0 UV-I 524 W/m² -1,3 °C 4,0 °C 12,9 km/h (3 Bft)
08.03.2018 10:55 5,9 °C 59 % 1008,0 hPa 0,0 mm 8,7 km/h (2 Bft) NW 311 ° 1 min 0,000 mm 3,1 UV-I 524 W/m² -1,5 °C 4,0 °C 11,3 km/h (2 Bft)
08.03.2018 10:56 5,8 °C 59 % 1008,1 hPa 0,0 mm 12,4 km/h (3 Bft) W 271 ° 1 min 0,000 mm 3,1 UV-I 524 W/m² -1,6 °C 3,2 °C 16,1 km/h (3 Bft)
08.03.2018 10:57 5,8 °C 59 % 1008,1 hPa 0,0 mm 7,8 km/h (2 Bft) W-NW 300 ° 1 min 0,000 mm 3,1 UV-I 575 W/m² -1,6 °C 4,1 °C 9,7 km/h (2 Bft)
08.03.2018 10:58 5,8 °C 58 % 1008,1 hPa 0,0 mm 9,6 km/h (2 Bft) NW 304 ° 1 min 0,000 mm 3,1 UV-I 573 W/m² -1,8 °C 3,7 °C 16,1 km/h (3 Bft)
08.03.2018 10:59 5,9 °C 58 % 1008,1 hPa 0,0 mm 8,9 km/h (2 Bft) NW 312 ° 1 min 0,000 mm 3,1 UV-I 582 W/m² -1,7 °C 4,0 °C 16,1 km/h (3 Bft)
08.03.2018 11:00 5,9 °C 58 % 1008,1 hPa 0,0 mm 7,2 km/h (2 Bft) NW 304 ° 1 min 0,203 mm 3,1 UV-I 584 W/m² -1,7 °C 4,4 °C 12,9 km/h (3 Bft)
08.03.2018 11:01 6,1 °C 58 % 1008,1 hPa 0,0 mm 8,8 km/h (2 Bft) W 277 ° 1 min 0,000 mm 3,1 UV-I 587 W/m² -1,5 °C 4,2 °C 14,5 km/h (3 Bft)
08.03.2018 11:02 6,2 °C 59 % 1008,1 hPa 0,0 mm 9,1 km/h (2 Bft) W 264 ° 1 min 0,000 mm 3,0 UV-I 603 W/m² -1,2 °C 4,3 °C 14,5 km/h (3 Bft)
08.03.2018 11:03 6,3 °C 61 % 1008,0 hPa 0,0 mm 6,3 km/h (2 Bft) W 275 ° 1 min 0,000 mm 2,2 UV-I 603 W/m² -0,7 °C 5,1 °C 9,7 km/h (2 Bft)
08.03.2018 11:04 6,3 °C 62 % 1008,0 hPa 0,0 mm 6,3 km/h (2 Bft) W-NW 284 ° 1 min 0,000 mm 3,1 UV-I 603 W/m² -0,4 °C 5,1 °C 9,7 km/h (2 Bft)
08.03.2018 11:05 6,3 °C 57 % 1008,0 hPa 0,0 mm 8,4 km/h (2 Bft) W 273 ° 1 min 0,000 mm 3,1 UV-I 587 W/m² -1,6 °C 4,6 °C 11,3 km/h (2 Bft)
08.03.2018 11:06 6,2 °C 58 % 1008,0 hPa 0,0 mm 5,2 km/h (1 Bft) NW 304 ° 1 min 0,000 mm 3,1 UV-I 587 W/m² -1,4 °C 5,4 °C 6,4 km/h (2 Bft)
08.03.2018 11:07 6,2 °C 57 % 1008,1 hPa 0,0 mm 4,4 km/h (1 Bft) W-NW 296 ° 1 min 0,000 mm 3,2 UV-I 587 W/m² -1,7 °C 6,2 °C 6,4 km/h (2 Bft)
08.03.2018 11:08 6,2 °C 59 % 1008,1 hPa 0,0 mm 3,5 km/h (1 Bft) W-NW 302 ° 1 min 0,000 mm 3,2 UV-I 587 W/m² -1,2 °C 6,2 °C 6,4 km/h (2 Bft)
08.03.2018 11:09 6,2 °C 58 % 1008,1 hPa 0,0 mm 4,8 km/h (1 Bft) NW 306 ° 1 min 0,000 mm 3,2 UV-I 589 W/m² -1,4 °C 5,5 °C 8,0 km/h (2 Bft)
08.03.2018 11:10 6,2 °C 59 % 1008,1 hPa 0,0 mm 5,4 km/h (1 Bft) W-NW 288 ° 1 min 0,000 mm 3,2 UV-I 591 W/m² -1,2 °C 5,3 °C 9,7 km/h (2 Bft)
08.03.2018 11:11 6,3 °C 57 % 1008,1 hPa 0,0 mm 6,2 km/h (2 Bft) NW 304 ° 1 min 0,000 mm 3,2 UV-I 591 W/m² -1,6 °C 5,2 °C 9,7 km/h (2 Bft)
08.03.2018 11:12 6,4 °C 58 % 1008,1 hPa 0,0 mm 14,9 km/h (3 Bft) W-NW 302 ° 1 min 0,000 mm 3,2 UV-I 592 W/m² -1,2 °C 3,5 °C 20,9 km/h (4 Bft)
08.03.2018 11:13 6,4 °C 57 % 1008,1 hPa 0,0 mm 8,7 km/h (2 Bft) W-NW 289 ° 1 min 0,000 mm 3,2 UV-I 594 W/m² -1,5 °C 4,6 °C 11,3 km/h (2 Bft)
08.03.2018 11:14 6,4 °C 56 % 1008,1 hPa 0,0 mm 9,9 km/h (2 Bft) NW 304 ° 1 min 0,000 mm 3,2 UV-I 594 W/m² -1,7 °C 4,4 °C 14,5 km/h (3 Bft)
08.03.2018 11:15 6,3 °C 56 % 1008,0 hPa 0,0 mm 8,8 km/h (2 Bft) NW 306 ° 1 min 0,000 mm 3,2 UV-I 592 W/m² -1,8 °C 4,5 °C 12,9 km/h (3 Bft)
08.03.2018 11:16 6,3 °C 56 % 1008,0 hPa 0,0 mm 12,0 km/h (2 Bft) W-NW 298 ° 1 min 0,000 mm 3,2 UV-I 592 W/m² -1,8 °C 3,8 °C 16,1 km/h (3 Bft)
08.03.2018 11:17 6,3 °C 56 % 1008,1 hPa 0,0 mm 14,3 km/h (3 Bft) W-NW 294 ° 1 min 0,000 mm 3,2 UV-I 598 W/m² -1,8 °C 3,5 °C 17,7 km/h (3 Bft)
08.03.2018 11:18 6,3 °C 57 % 1008,0 hPa 0,0 mm 7,6 km/h (2 Bft) W-NW 296 ° 1 min 0,000 mm 3,2 UV-I 599 W/m² -1,6 °C 4,8 °C 12,9 km/h (3 Bft)
08.03.2018 11:19 6,4 °C 57 % 1008,0 hPa 0,0 mm 8,7 km/h (2 Bft) W-NW 283 ° 1 min 0,000 mm 3,3 UV-I 601 W/m² -1,5 °C 4,6 °C 11,3 km/h (2 Bft)
08.03.2018 11:20 6,4 °C 56 % 1008,0 hPa 0,0 mm 6,8 km/h (2 Bft) NW 307 ° 1 min 0,000 mm 3,3 UV-I 601 W/m² -1,7 °C 5,1 °C 11,3 km/h (2 Bft)
08.03.2018 11:21 6,4 °C 57 % 1008,0 hPa 0,0 mm 5,7 km/h (1 Bft) W-NW 299 ° 1 min 0,000 mm 3,3 UV-I 603 W/m² -1,5 °C 5,4 °C 11,3 km/h (2 Bft)
08.03.2018 11:22 6,6 °C 59 % 1008,0 hPa 0,0 mm 11,5 km/h (2 Bft) W 271 ° 1 min 0,000 mm 3,3 UV-I 605 W/m² -0,8 °C 4,3 °C 16,1 km/h (3 Bft)
08.03.2018 11:23 6,6 °C 57 % 1008,1 hPa 0,0 mm 7,5 km/h (2 Bft) W 279 ° 1 min 0,000 mm 3,3 UV-I 608 W/m² -1,3 °C 5,1 °C 12,9 km/h (3 Bft)
08.03.2018 11:24 6,6 °C 57 % 1008,0 hPa 0,0 mm 7,1 km/h (2 Bft) W-NW 294 ° 1 min 0,000 mm 3,3 UV-I 610 W/m² -1,3 °C 5,2 °C 12,9 km/h (3 Bft)
08.03.2018 11:25 6,6 °C 59 % 1008,0 hPa 0,0 mm 7,0 km/h (2 Bft) NW 321 ° 1 min 0,000 mm 3,3 UV-I 612 W/m² -0,8 °C 5,3 °C 11,3 km/h (2 Bft)
08.03.2018 11:26 6,5 °C 57 % 1008,0 hPa 0,0 mm 4,3 km/h (1 Bft) NW 325 ° 1 min 0,000 mm 3,3 UV-I 612 W/m² -1,4 °C 6,5 °C 8,0 km/h (2 Bft)
08.03.2018 11:27 6,6 °C 58 % 1008,0 hPa 0,0 mm 6,8 km/h (2 Bft) W-NW 296 ° 1 min 0,000 mm 3,3 UV-I 608 W/m² -1,1 °C 5,3 °C 11,3 km/h (2 Bft)
08.03.2018 11:28 6,6 °C 58 % 1008,0 hPa 0,0 mm 13,4 km/h (3 Bft) W-NW 301 ° 1 min 0,000 mm 3,3 UV-I 612 W/m² -1,1 °C 4,0 °C 16,1 km/h (3 Bft)
08.03.2018 11:29 6,7 °C 58 % 1008,0 hPa 0,0 mm 7,2 km/h (2 Bft) NW 313 ° 1 min 0,000 mm 3,4 UV-I 612 W/m² -1,0 °C 5,3 °C 11,3 km/h (2 Bft)
08.03.2018 11:30 6,7 °C 59 % 1008,0 hPa 0,0 mm 7,3 km/h (2 Bft) W-NW 302 ° 1 min 0,000 mm 3,4 UV-I 612 W/m² -0,7 °C 5,3 °C 14,5 km/h (3 Bft)
08.03.2018 11:31 6,8 °C 58 % 1008,0 hPa 0,0 mm 10,1 km/h (2 Bft) W-NW 288 ° 1 min 0,000 mm 3,4 UV-I 615 W/m² -0,9 °C 4,8 °C 16,1 km/h (3 Bft)
08.03.2018 11:32 6,8 °C 57 % 1008,0 hPa 0,0 mm 9,2 km/h (2 Bft) W-NW 298 ° 1 min 0,000 mm 3,4 UV-I 622 W/m² -1,1 °C 5,0 °C 12,9 km/h (3 Bft)
08.03.2018 11:33 6,8 °C 57 % 1008,0 hPa 0,0 mm 10,6 km/h (2 Bft) N-NW 329 ° 1 min 0,000 mm 3,4 UV-I 617 W/m² -1,1 °C 4,7 °C 14,5 km/h (3 Bft)
08.03.2018 11:34 6,9 °C 57 % 1008,0 hPa 0,0 mm 6,5 km/h (2 Bft) W-NW 283 ° 1 min 0,000 mm 3,4 UV-I 619 W/m² -1,0 °C 5,8 °C 12,9 km/h (3 Bft)
08.03.2018 11:35 6,9 °C 57 % 1008,0 hPa 0,0 mm 6,9 km/h (2 Bft) W-NW 299 ° 1 min 0,000 mm 3,4 UV-I 619 W/m² -1,0 °C 5,6 °C 9,7 km/h (2 Bft)
08.03.2018 11:36 6,8 °C 56 % 1008,0 hPa 0,0 mm 6,1 km/h (2 Bft) W 264 ° 1 min 0,000 mm 3,4 UV-I 622 W/m² -1,4 °C 5,8 °C 9,7 km/h (2 Bft)
08.03.2018 11:37 6,8 °C 55 % 1008,0 hPa 0,0 mm 8,4 km/h (2 Bft) W 281 ° 1 min 0,000 mm 3,4 UV-I 621 W/m² -1,6 °C 5,2 °C 12,9 km/h (3 Bft)
08.03.2018 11:38 6,8 °C 58 % 1007,9 hPa 0,0 mm 7,3 km/h (2 Bft) W-SW 247 ° 1 min 0,000 mm 3,4 UV-I 621 W/m² -0,9 °C 5,4 °C 12,9 km/h (3 Bft)
08.03.2018 11:39 7,0 °C 56 % 1007,9 hPa 0,0 mm 8,4 km/h (2 Bft) W-SW 253 ° 1 min 0,000 mm 3,4 UV-I 621 W/m² -1,2 °C 5,4 °C 12,9 km/h (3 Bft)
08.03.2018 11:40 7,1 °C 54 % 1007,9 hPa 0,0 mm 5,6 km/h (1 Bft) W-NW 300 ° 1 min 0,000 mm 3,4 UV-I 621 W/m² -1,6 °C 6,3 °C 11,3 km/h (2 Bft)
08.03.2018 11:41 7,1 °C 55 % 1007,9 hPa 0,0 mm 6,8 km/h (2 Bft) W 266 ° 1 min 0,000 mm 3,4 UV-I 624 W/m² -1,3 °C 5,9 °C 12,9 km/h (3 Bft)
08.03.2018 11:42 7,1 °C 52 % 1007,9 hPa 0,0 mm 10,4 km/h (2 Bft) W 275 ° 1 min 0,000 mm 3,4 UV-I 626 W/m² -2,1 °C 5,1 °C 12,9 km/h (3 Bft)
08.03.2018 11:43 7,1 °C 54 % 1007,9 hPa 0,0 mm 11,3 km/h (2 Bft) W 268 ° 1 min 0,000 mm 3,5 UV-I 628 W/m² -1,6 °C 4,9 °C 19,3 km/h (3 Bft)
08.03.2018 11:44 7,1 °C 54 % 1007,9 hPa 0,0 mm 6,6 km/h (2 Bft) W-NW 288 ° 1 min 0,000 mm 3,5 UV-I 629 W/m² -1,6 °C 6,0 °C 12,9 km/h (3 Bft)
08.03.2018 11:45 7,1 °C 52 % 1007,9 hPa 0,0 mm 10,3 km/h (2 Bft) W-NW 288 ° 1 min 0,000 mm 3,4 UV-I 624 W/m² -2,1 °C 5,1 °C 14,5 km/h (3 Bft)
08.03.2018 11:46 7,1 °C 54 % 1008,0 hPa 0,0 mm 7,6 km/h (2 Bft) W-NW 300 ° 1 min 0,000 mm 3,4 UV-I 612 W/m² -1,6 °C 5,7 °C 14,5 km/h (3 Bft)
08.03.2018 11:47 7,1 °C 53 % 1007,9 hPa 0,0 mm 8,1 km/h (2 Bft) W 271 ° 1 min 0,000 mm 3,4 UV-I 612 W/m² -1,8 °C 5,6 °C 12,9 km/h (3 Bft)
08.03.2018 11:48 7,2 °C 55 % 1007,9 hPa 0,0 mm 6,0 km/h (2 Bft) W 261 ° 1 min 0,000 mm 3,4 UV-I 617 W/m² -1,2 °C 6,3 °C 12,9 km/h (3 Bft)
08.03.2018 11:49 7,2 °C 54 % 1007,9 hPa 0,0 mm 11,9 km/h (2 Bft) W-NW 300 ° 1 min 0,000 mm 3,4 UV-I 596 W/m² -1,5 °C 4,9 °C 16,1 km/h (3 Bft)
08.03.2018 11:50 7,1 °C 53 % 1007,9 hPa 0,0 mm 7,8 km/h (2 Bft) NW 314 ° 1 min 0,000 mm 3,4 UV-I 591 W/m² -1,8 °C 5,6 °C 12,9 km/h (3 Bft)
08.03.2018 11:51 7,1 °C 56 % 1007,9 hPa 0,0 mm 9,4 km/h (2 Bft) W-NW 290 ° 1 min 0,000 mm 3,3 UV-I 585 W/m² -1,1 °C 5,3 °C 16,1 km/h (3 Bft)
08.03.2018 11:52 7,2 °C 54 % 1007,8 hPa 0,0 mm 8,6 km/h (2 Bft) W-NW 293 ° 1 min 0,000 mm 3,3 UV-I 578 W/m² -1,5 °C 5,6 °C 14,5 km/h (3 Bft)
08.03.2018 11:53 7,2 °C 54 % 1007,8 hPa 0,0 mm 7,1 km/h (2 Bft) W-SW 255 ° 1 min 0,000 mm 3,3 UV-I 582 W/m² -1,5 °C 5,9 °C 12,9 km/h (3 Bft)
08.03.2018 11:54 7,2 °C 54 % 1007,8 hPa 0,0 mm 12,0 km/h (2 Bft) W-NW 298 ° 1 min 0,000 mm 3,3 UV-I 575 W/m² -1,5 °C 4,9 °C 17,7 km/h (3 Bft)
08.03.2018 11:55 7,1 °C 54 % 1007,8 hPa 0,0 mm 7,8 km/h (2 Bft) N-NW 329 ° 1 min 0,000 mm 3,5 UV-I 652 W/m² -1,6 °C 5,6 °C 14,5 km/h (3 Bft)
08.03.2018 11:56 7,1 °C 54 % 1007,8 hPa 0,0 mm 6,6 km/h (2 Bft) N-NW 342 ° 1 min 0,000 mm 3,6 UV-I 652 W/m² -1,6 °C 6,0 °C 14,5 km/h (3 Bft)
08.03.2018 11:57 7,1 °C 54 % 1007,8 hPa 0,0 mm 11,0 km/h (2 Bft) N-NW 336 ° 1 min 0,000 mm 3,5 UV-I 657 W/m² -1,6 °C 5,0 °C 17,7 km/h (3 Bft)
08.03.2018 11:58 7,1 °C 55 % 1007,9 hPa 0,0 mm 11,1 km/h (2 Bft) W-NW 296 ° 1 min 0,000 mm 3,6 UV-I 659 W/m² -1,3 °C 5,0 °C 17,7 km/h (3 Bft)
08.03.2018 11:59 7,1 °C 52 % 1007,9 hPa 0,0 mm 6,5 km/h (2 Bft) NW 316 ° 1 min 0,000 mm 3,6 UV-I 661 W/m² -2,1 °C 6,0 °C 11,3 km/h (2 Bft)
08.03.2018 12:00 7,1 °C 53 % 1007,8 hPa 0,0 mm 6,2 km/h (2 Bft) W-NW 295 ° 1 min 0,000 mm 3,5 UV-I 649 W/m² -1,8 °C 6,1 °C 9,7 km/h (2 Bft)
08.03.2018 12:01 7,1 °C 54 % 1007,8 hPa 0,0 mm 8,0 km/h (2 Bft) NW 313 ° 1 min 0,280 mm 3,5 UV-I 643 W/m² -1,6 °C 5,6 °C 12,9 km/h (3 Bft)
08.03.2018 12:02 7,2 °C 55 % 1007,8 hPa 0,0 mm 11,9 km/h (2 Bft) W-NW 302 ° 1 min 0,000 mm 3,5 UV-I 640 W/m² -1,2 °C 4,9 °C 16,1 km/h (3 Bft)
08.03.2018 12:03 7,3 °C 56 % 1007,8 hPa 0,0 mm 10,7 km/h (2 Bft) W-NW 301 ° 1 min 0,000 mm 3,5 UV-I 640 W/m² -0,9 °C 5,3 °C 14,5 km/h (3 Bft)
08.03.2018 12:04 7,3 °C 56 % 1007,8 hPa 0,0 mm 7,1 km/h (2 Bft) NW 304 ° 1 min 0,000 mm 3,5 UV-I 654 W/m² -0,9 °C 6,1 °C 12,9 km/h (3 Bft)
08.03.2018 12:05 7,4 °C 55 % 1007,8 hPa 0,0 mm 7,7 km/h (2 Bft) W 269 ° 1 min 0,000 mm 3,6 UV-I 677 W/m² -1,0 °C 6,0 °C 12,9 km/h (3 Bft)
08.03.2018 12:06 7,4 °C 53 % 1007,7 hPa 0,0 mm 6,6 km/h (2 Bft) N-NW 344 ° 1 min 0,000 mm 3,6 UV-I 670 W/m² -1,5 °C 6,3 °C 11,3 km/h (2 Bft)
08.03.2018 12:07 7,4 °C 53 % 1007,7 hPa 0,0 mm 6,1 km/h (2 Bft) NW 318 ° 1 min 0,000 mm 2,1 UV-I 647 W/m² -1,5 °C 6,5 °C 8,0 km/h (2 Bft)
08.03.2018 12:08 7,4 °C 54 % 1007,7 hPa 0,0 mm 3,5 km/h (1 Bft) W-NW 300 ° 1 min 0,000 mm 3,2 UV-I 647 W/m² -1,3 °C 7,4 °C 4,8 km/h (1 Bft)
08.03.2018 12:09 7,4 °C 55 % 1007,7 hPa 0,0 mm 8,4 km/h (2 Bft) W-NW 294 ° 1 min 0,000 mm 3,6 UV-I 647 W/m² -1,0 °C 5,9 °C 12,9 km/h (3 Bft)
08.03.2018 12:10 7,4 °C 54 % 1007,7 hPa 0,0 mm 6,3 km/h (2 Bft) NW 324 ° 1 min 0,000 mm 3,6 UV-I 664 W/m² -1,3 °C 6,4 °C 12,9 km/h (3 Bft)
08.03.2018 12:11 7,4 °C 52 % 1007,7 hPa 0,0 mm 5,6 km/h (1 Bft) W-SW 257 ° 1 min 0,000 mm 3,6 UV-I 670 W/m² -1,8 °C 6,6 °C 11,3 km/h (2 Bft)
08.03.2018 12:12 7,3 °C 52 % 1007,6 hPa 0,0 mm 7,9 km/h (2 Bft) W-NW 302 ° 1 min 0,000 mm 3,5 UV-I 592 W/m² -1,9 °C 5,9 °C 14,5 km/h (3 Bft)
08.03.2018 12:13 7,4 °C 53 % 1007,7 hPa 0,0 mm 11,5 km/h (2 Bft) W-NW 290 ° 1 min 0,000 mm 3,5 UV-I 647 W/m² -1,5 °C 5,2 °C 16,1 km/h (3 Bft)
08.03.2018 12:14 7,4 °C 51 % 1007,6 hPa 0,0 mm 9,7 km/h (2 Bft) W-SW 257 ° 1 min 0,000 mm 3,6 UV-I 666 W/m² -2,1 °C 5,6 °C 16,1 km/h (3 Bft)
08.03.2018 12:15 7,4 °C 52 % 1007,5 hPa 0,0 mm 9,0 km/h (2 Bft) W 273 ° 1 min 0,000 mm 3,6 UV-I 661 W/m² -1,8 °C 5,7 °C 14,5 km/h (3 Bft)
08.03.2018 12:16 7,4 °C 53 % 1007,5 hPa 0,0 mm 6,8 km/h (2 Bft) W 276 ° 1 min 0,000 mm 3,4 UV-I 619 W/m² -1,5 °C 6,3 °C 11,3 km/h (2 Bft)
08.03.2018 12:17 7,4 °C 53 % 1007,5 hPa 0,0 mm 9,7 km/h (2 Bft) W-NW 300 ° 1 min 0,000 mm 3,4 UV-I 603 W/m² -1,5 °C 5,6 °C 12,9 km/h (3 Bft)
08.03.2018 12:18 7,5 °C 53 % 1007,5 hPa 0,0 mm 8,3 km/h (2 Bft) W-NW 302 ° 1 min 0,000 mm 3,4 UV-I 591 W/m² -1,4 °C 6,0 °C 12,9 km/h (3 Bft)
08.03.2018 12:19 7,5 °C 52 % 1007,6 hPa 0,0 mm 6,0 km/h (2 Bft) W-NW 292 ° 1 min 0,000 mm 3,0 UV-I 526 W/m² -1,7 °C 6,6 °C 11,3 km/h (2 Bft)
08.03.2018 12:20 7,5 °C 51 % 1007,6 hPa 0,0 mm 9,3 km/h (2 Bft) W-NW 293 ° 1 min 0,000 mm 3,2 UV-I 550 W/m² -2,0 °C 5,8 °C 16,1 km/h (3 Bft)
08.03.2018 12:21 7,4 °C 53 % 1007,5 hPa 0,0 mm 13,9 km/h (3 Bft) W-NW 295 ° 1 min 0,000 mm 3,6 UV-I 645 W/m² -1,5 °C 4,9 °C 17,7 km/h (3 Bft)
08.03.2018 12:22 7,4 °C 51 % 1007,5 hPa 0,0 mm 8,9 km/h (2 Bft) W-NW 290 ° 1 min 0,000 mm 2,4 UV-I 645 W/m² -2,1 °C 5,8 °C 12,9 km/h (3 Bft)
08.03.2018 12:23 7,4 °C 51 % 1007,5 hPa 0,0 mm 6,8 km/h (2 Bft) W 271 ° 1 min 0,000 mm 3,2 UV-I 587 W/m² -2,1 °C 6,3 °C 9,7 km/h (2 Bft)
08.03.2018 12:24 7,4 °C 52 % 1007,5 hPa 0,0 mm 7,2 km/h (2 Bft) W 277 ° 1 min 0,000 mm 1,9 UV-I 587 W/m² -1,8 °C 6,1 °C 11,3 km/h (2 Bft)
08.03.2018 12:25 7,4 °C 53 % 1007,5 hPa 0,0 mm 13,1 km/h (3 Bft) W-NW 292 ° 1 min 0,000 mm 1,8 UV-I 587 W/m² -1,5 °C 5,0 °C 16,1 km/h (3 Bft)
08.03.2018 12:26 7,3 °C 52 % 1007,5 hPa 0,0 mm 7,8 km/h (2 Bft) W 278 ° 0 min 0,000 mm 1,8 UV-I 95 W/m² -1,9 °C 5,9 °C 14,5 km/h (3 Bft)
08.03.2018 12:27 7,1 °C 51 % 1007,5 hPa 0,0 mm 2,4 km/h (1 Bft) W 271 ° 0 min 0,000 mm 1,8 UV-I 69 W/m² -2,3 °C 7,1 °C 3,2 km/h (1 Bft)
08.03.2018 12:28 7,1 °C 52 % 1007,5 hPa 0,0 mm 7,0 km/h (2 Bft) W-NW 282 ° 0 min 0,000 mm 1,7 UV-I 67 W/m² -2,1 °C 5,9 °C 11,3 km/h (2 Bft)
08.03.2018 12:29 6,9 °C 52 % 1007,5 hPa 0,0 mm 7,5 km/h (2 Bft) W 275 ° 0 min 0,000 mm 1,7 UV-I 79 W/m² -2,3 °C 5,5 °C 11,3 km/h (2 Bft)
08.03.2018 12:30 6,8 °C 52 % 1007,5 hPa 0,0 mm 5,0 km/h (1 Bft) W 279 ° 0 min 0,000 mm 1,9 UV-I 79 W/m² -2,4 °C 6,1 °C 6,4 km/h (2 Bft)
08.03.2018 12:31 6,7 °C 54 % 1007,5 hPa 0,0 mm 2,9 km/h (1 Bft) W-NW 292 ° 0 min 0,000 mm 2,9 UV-I 79 W/m² -1,9 °C 6,7 °C 6,4 km/h (2 Bft)
08.03.2018 12:32 6,6 °C 54 % 1007,4 hPa 0,0 mm 1,0 km/h (0 Bft) W-NW 292 ° 0 min 0,000 mm 3,6 UV-I 79 W/m² -2,0 °C 6,6 °C 3,2 km/h (1 Bft)
08.03.2018 12:33 6,6 °C 56 % 1007,3 hPa 0,0 mm 1,4 km/h (1 Bft) W-NW 293 ° 1 min 0,000 mm 3,4 UV-I 670 W/m² -1,5 °C 6,6 °C 3,2 km/h (1 Bft)
08.03.2018 12:34 6,8 °C 54 % 1007,3 hPa 0,0 mm 5,6 km/h (1 Bft) NW 317 ° 1 min 0,000 mm 3,6 UV-I 675 W/m² -1,8 °C 5,9 °C 8,0 km/h (2 Bft)
08.03.2018 12:35 7,0 °C 53 % 1007,2 hPa 0,0 mm 14,9 km/h (3 Bft) W 277 ° 1 min 0,000 mm 3,7 UV-I 714 W/m² -1,9 °C 4,2 °C 19,3 km/h (3 Bft)
08.03.2018 12:36 7,3 °C 56 % 1007,3 hPa 0,0 mm 9,9 km/h (2 Bft) W 272 ° 1 min 0,000 mm 3,7 UV-I 700 W/m² -0,9 °C 5,4 °C 14,5 km/h (3 Bft)
08.03.2018 12:37 7,5 °C 54 % 1007,3 hPa 0,0 mm 10,6 km/h (2 Bft) W-NW 295 ° 1 min 0,000 mm 2,1 UV-I 700 W/m² -1,2 °C 5,5 °C 12,9 km/h (3 Bft)
08.03.2018 12:38 7,7 °C 54 % 1007,3 hPa 0,0 mm 4,4 km/h (1 Bft) W 279 ° 1 min 0,000 mm 2,9 UV-I 700 W/m² -1,0 °C 7,7 °C 8,0 km/h (2 Bft)
08.03.2018 12:39 7,6 °C 50 % 1007,3 hPa 0,0 mm 2,7 km/h (1 Bft) W-NW 290 ° 0 min 0,000 mm 2,0 UV-I 123 W/m² -2,1 °C 7,6 °C 6,4 km/h (2 Bft)
08.03.2018 12:40 7,5 °C 52 % 1007,2 hPa 0,0 mm 3,6 km/h (1 Bft) W-SW 254 ° 0 min 0,000 mm 3,7 UV-I 123 W/m² -1,7 °C 7,5 °C 4,8 km/h (1 Bft)
08.03.2018 12:41 7,5 °C 52 % 1007,2 hPa 0,0 mm 4,0 km/h (1 Bft) W-NW 283 ° 1 min 0,000 mm 3,7 UV-I 592 W/m² -1,7 °C 7,5 °C 6,4 km/h (2 Bft)
08.03.2018 12:42 7,4 °C 51 % 1007,2 hPa 0,0 mm 5,4 km/h (1 Bft) W-NW 289 ° 1 min 0,000 mm 2,4 UV-I 687 W/m² -2,1 °C 6,7 °C 6,4 km/h (2 Bft)
08.03.2018 12:43 7,4 °C 51 % 1007,2 hPa 0,0 mm 6,7 km/h (2 Bft) W 269 ° 1 min 0,000 mm 3,4 UV-I 687 W/m² -2,1 °C 6,3 °C 11,3 km/h (2 Bft)
08.03.2018 12:44 7,5 °C 49 % 1007,2 hPa 0,0 mm 3,2 km/h (1 Bft) W 275 ° 1 min 0,000 mm 2,5 UV-I 587 W/m² -2,5 °C 7,5 °C 6,4 km/h (2 Bft)
08.03.2018 12:45 7,5 °C 48 % 1007,2 hPa 0,0 mm 4,2 km/h (1 Bft) NW 304 ° 1 min 0,000 mm 2,7 UV-I 587 W/m² -2,8 °C 7,5 °C 6,4 km/h (2 Bft)
08.03.2018 12:46 7,4 °C 47 % 1007,2 hPa 0,0 mm 4,9 km/h (1 Bft) NW 313 ° 1 min 0,000 mm 2,7 UV-I 587 W/m² -3,2 °C 6,8 °C 8,0 km/h (2 Bft)
08.03.2018 12:47 7,4 °C 49 % 1007,2 hPa 0,0 mm 8,2 km/h (2 Bft) W-NW 286 ° 1 min 0,000 mm 3,6 UV-I 587 W/m² -2,6 °C 5,9 °C 12,9 km/h (3 Bft)
08.03.2018 12:48 7,5 °C 50 % 1007,2 hPa 0,0 mm 3,8 km/h (1 Bft) W-NW 302 ° 1 min 0,000 mm 3,5 UV-I 608 W/m² -2,2 °C 7,5 °C 6,4 km/h (2 Bft)
08.03.2018 12:49 7,5 °C 47 % 1007,2 hPa 0,0 mm 3,4 km/h (1 Bft) W-NW 302 ° 1 min 0,000 mm 3,3 UV-I 552 W/m² -3,1 °C 7,5 °C 4,8 km/h (1 Bft)
08.03.2018 12:50 7,6 °C 50 % 1007,2 hPa 0,0 mm 3,4 km/h (1 Bft) NW 306 ° 1 min 0,000 mm 3,3 UV-I 638 W/m² -2,1 °C 7,6 °C 6,4 km/h (2 Bft)
08.03.2018 12:51 7,7 °C 50 % 1007,2 hPa 0,0 mm 2,6 km/h (1 Bft) NW 306 ° 1 min 0,000 mm 2,8 UV-I 638 W/m² -2,1 °C 7,7 °C 4,8 km/h (1 Bft)
08.03.2018 12:52 7,7 °C 50 % 1007,2 hPa 0,0 mm 2,9 km/h (1 Bft) W-NW 291 ° 1 min 0,000 mm 2,4 UV-I 422 W/m² -2,1 °C 7,7 °C 4,8 km/h (1 Bft)
08.03.2018 12:53 7,6 °C 50 % 1007,1 hPa 0,0 mm 2,0 km/h (1 Bft) N-NW 329 ° 1 min 0,000 mm 3,0 UV-I 478 W/m² -2,1 °C 7,6 °C 4,8 km/h (1 Bft)
08.03.2018 12:54 7,5 °C 49 % 1007,1 hPa 0,0 mm 1,9 km/h (1 Bft) N-NW 329 ° 1 min 0,000 mm 2,2 UV-I 478 W/m² -2,5 °C 7,5 °C 4,8 km/h (1 Bft)
08.03.2018 12:55 7,4 °C 50 % 1007,1 hPa 0,0 mm 2,3 km/h (1 Bft) N-NW 329 ° 1 min 0,000 mm 1,8 UV-I 478 W/m² -2,3 °C 7,4 °C 4,8 km/h (1 Bft)
08.03.2018 12:56 7,3 °C 50 % 1007,1 hPa 0,0 mm 6,4 km/h (2 Bft) NW 317 ° 0 min 0,000 mm 2,0 UV-I 204 W/m² -2,4 °C 6,3 °C 12,9 km/h (3 Bft)
08.03.2018 12:57 7,4 °C 51 % 1007,1 hPa 0,0 mm 4,1 km/h (1 Bft) NW 304 ° 0 min 0,000 mm 1,8 UV-I 169 W/m² -2,1 °C 7,4 °C 4,8 km/h (1 Bft)
08.03.2018 12:58 7,4 °C 49 % 1007,1 hPa 0,0 mm 5,0 km/h (1 Bft) W-NW 289 ° 0 min 0,000 mm 1,8 UV-I 172 W/m² -2,6 °C 6,8 °C 8,0 km/h (2 Bft)
08.03.2018 12:59 7,4 °C 50 % 1007,0 hPa 0,0 mm 8,5 km/h (2 Bft) W-NW 297 ° 0 min 0,000 mm 1,8 UV-I 178 W/m² -2,3 °C 5,8 °C 17,7 km/h (3 Bft)
08.03.2018 13:00 7,4 °C 49 % 1007,1 hPa 0,0 mm 6,0 km/h (2 Bft) NW 311 ° 0 min 0,000 mm 1,7 UV-I 163 W/m² -2,6 °C 6,5 °C 14,5 km/h (3 Bft)
08.03.2018 13:01 7,3 °C 49 % 1006,9 hPa 0,0 mm 6,7 km/h (2 Bft) W-NW 298 ° 0 min 0,228 mm 1,7 UV-I 163 W/m² -2,7 °C 6,2 °C 11,3 km/h (2 Bft)
08.03.2018 13:02 7,3 °C 48 % 1006,9 hPa 0,0 mm 3,8 km/h (1 Bft) NW 304 ° 0 min 0,000 mm 1,8 UV-I 213 W/m² -3,0 °C 7,3 °C 6,4 km/h (2 Bft)
08.03.2018 13:03 7,3 °C 46 % 1006,9 hPa 0,0 mm 3,7 km/h (1 Bft) NW 304 ° 0 min 0,000 mm 1,6 UV-I 130 W/m² -3,5 °C 7,3 °C 6,4 km/h (2 Bft)
08.03.2018 13:04 7,2 °C 46 % 1006,9 hPa 0,0 mm 1,7 km/h (1 Bft) NW 304 ° 0 min 0,000 mm 1,6 UV-I 167 W/m² -3,6 °C 7,2 °C 3,2 km/h (1 Bft)
08.03.2018 13:05 7,2 °C 46 % 1007,0 hPa 0,0 mm 1,5 km/h (1 Bft) NW 304 ° 0 min 0,000 mm 1,9 UV-I 213 W/m² -3,6 °C 7,2 °C 3,2 km/h (1 Bft)
08.03.2018 13:06 7,2 °C 48 % 1007,0 hPa 0,0 mm 3,4 km/h (1 Bft) NW 304 ° 0 min 0,000 mm 2,1 UV-I 241 W/m² -3,1 °C 7,2 °C 4,8 km/h (1 Bft)
08.03.2018 13:07 7,2 °C 48 % 1007,0 hPa 0,0 mm 3,5 km/h (1 Bft) W-NW 303 ° 0 min 0,000 mm 2,0 UV-I 241 W/m² -3,1 °C 7,2 °C 6,4 km/h (2 Bft)
08.03.2018 13:08 7,3 °C 48 % 1007,1 hPa 0,0 mm 2,9 km/h (1 Bft) NW 305 ° 0 min 0,000 mm 1,9 UV-I 232 W/m² -3,0 °C 7,3 °C 4,8 km/h (1 Bft)
08.03.2018 13:09 7,3 °C 49 % 1007,1 hPa 0,0 mm 5,1 km/h (1 Bft) NW 319 ° 0 min 0,000 mm 1,9 UV-I 260 W/m² -2,7 °C 6,7 °C 9,7 km/h (2 Bft)
08.03.2018 13:10 7,4 °C 49 % 1007,0 hPa 0,0 mm 8,6 km/h (2 Bft) W-NW 296 ° 0 min 0,000 mm 2,0 UV-I 279 W/m² -2,6 °C 5,8 °C 14,5 km/h (3 Bft)
08.03.2018 13:11 7,3 °C 49 % 1007,0 hPa 0,0 mm 8,4 km/h (2 Bft) W-NW 300 ° 0 min 0,000 mm 2,4 UV-I 279 W/m² -2,7 °C 5,7 °C 12,9 km/h (3 Bft)
08.03.2018 13:12 7,3 °C 50 % 1007,0 hPa 0,0 mm 4,9 km/h (1 Bft) W-NW 284 ° 0 min 0,000 mm 2,9 UV-I 279 W/m² -2,4 °C 6,7 °C 6,4 km/h (2 Bft)
08.03.2018 13:13 7,4 °C 49 % 1007,0 hPa 0,0 mm 5,2 km/h (1 Bft) W-NW 292 ° 1 min 0,000 mm 2,9 UV-I 541 W/m² -2,6 °C 6,7 °C 8,0 km/h (2 Bft)
08.03.2018 13:14 7,6 °C 49 % 1006,9 hPa 0,0 mm 6,4 km/h (2 Bft) W-NW 297 ° 1 min 0,000 mm 3,0 UV-I 596 W/m² -2,4 °C 6,6 °C 9,7 km/h (2 Bft)
08.03.2018 13:15 7,6 °C 48 % 1006,9 hPa 0,0 mm 4,6 km/h (1 Bft) NW 317 ° 1 min 0,000 mm 2,9 UV-I 559 W/m² -2,7 °C 7,2 °C 6,4 km/h (2 Bft)
08.03.2018 13:16 7,8 °C 50 % 1006,9 hPa 0,0 mm 5,4 km/h (1 Bft) NW 317 ° 1 min 0,000 mm 3,3 UV-I 635 W/m² -2,0 °C 7,1 °C 8,0 km/h (2 Bft)
08.03.2018 13:17 7,9 °C 51 % 1006,9 hPa 0,0 mm 2,7 km/h (1 Bft) NW 317 ° 1 min 0,000 mm 3,3 UV-I 635 W/m² -1,6 °C 7,9 °C 4,8 km/h (1 Bft)
08.03.2018 13:18 8,0 °C 47 % 1006,9 hPa 0,0 mm 4,2 km/h (1 Bft) NW 306 ° 1 min 0,000 mm 2,8 UV-I 635 W/m² -2,6 °C 8,0 °C 8,0 km/h (2 Bft)
08.03.2018 13:19 8,1 °C 50 % 1006,9 hPa 0,0 mm 5,6 km/h (1 Bft) W-NW 300 ° 1 min 0,000 mm 3,2 UV-I 635 W/m² -1,7 °C 7,4 °C 8,0 km/h (2 Bft)
08.03.2018 13:20 8,2 °C 48 % 1006,9 hPa 0,0 mm 6,5 km/h (2 Bft) NW 310 ° 1 min 0,000 mm 3,2 UV-I 557 W/m² -2,1 °C 7,3 °C 9,7 km/h (2 Bft)
08.03.2018 13:21 8,2 °C 48 % 1006,9 hPa 0,0 mm 6,4 km/h (2 Bft) NW 306 ° 1 min 0,000 mm 3,4 UV-I 656 W/m² -2,1 °C 7,3 °C 12,9 km/h (3 Bft)
08.03.2018 13:22 8,2 °C 48 % 1006,9 hPa 0,0 mm 9,7 km/h (2 Bft) W-NW 292 ° 1 min 0,000 mm 3,4 UV-I 617 W/m² -2,1 °C 6,5 °C 14,5 km/h (3 Bft)
08.03.2018 13:23 8,2 °C 48 % 1006,8 hPa 0,0 mm 4,1 km/h (1 Bft) NW 313 ° 1 min 0,000 mm 2,6 UV-I 617 W/m² -2,1 °C 8,2 °C 6,4 km/h (2 Bft)
08.03.2018 13:24 8,3 °C 50 % 1006,9 hPa 0,0 mm 8,0 km/h (2 Bft) NW 311 ° 1 min 0,000 mm 2,4 UV-I 617 W/m² -1,5 °C 7,0 °C 14,5 km/h (3 Bft)
08.03.2018 13:25 8,3 °C 50 % 1006,9 hPa 0,0 mm 8,5 km/h (2 Bft) W 276 ° 1 min 0,000 mm 3,2 UV-I 617 W/m² -1,5 °C 6,9 °C 12,9 km/h (3 Bft)
08.03.2018 13:26 8,3 °C 48 % 1006,9 hPa 0,0 mm 7,8 km/h (2 Bft) NW 311 ° 1 min 0,000 mm 2,3 UV-I 364 W/m² -2,1 °C 7,1 °C 12,9 km/h (3 Bft)
08.03.2018 13:27 8,2 °C 48 % 1006,8 hPa 0,0 mm 6,6 km/h (2 Bft) W 264 ° 1 min 0,000 mm 2,4 UV-I 357 W/m² -2,1 °C 7,2 °C 11,3 km/h (2 Bft)
08.03.2018 13:28 8,1 °C 47 % 1006,8 hPa 0,0 mm 7,2 km/h (2 Bft) W-NW 283 ° 1 min 0,000 mm 2,2 UV-I 330 W/m² -2,5 °C 7,0 °C 11,3 km/h (2 Bft)
08.03.2018 13:29 8,1 °C 46 % 1006,8 hPa 0,0 mm 9,7 km/h (2 Bft) W-NW 292 ° 1 min 0,000 mm 3,0 UV-I 330 W/m² -2,8 °C 6,4 °C 14,5 km/h (3 Bft)
08.03.2018 13:30 8,1 °C 47 % 1006,9 hPa 0,0 mm 6,0 km/h (2 Bft) NW 312 ° 1 min 0,000 mm 2,7 UV-I 519 W/m² -2,5 °C 7,3 °C 11,3 km/h (2 Bft)
08.03.2018 13:31 8,1 °C 47 % 1006,9 hPa 0,0 mm 4,5 km/h (1 Bft) W-NW 302 ° 1 min 0,000 mm 3,0 UV-I 606 W/m² -2,5 °C 8,1 °C 4,8 km/h (1 Bft)
08.03.2018 13:32 8,1 °C 48 % 1006,8 hPa 0,0 mm 4,1 km/h (1 Bft) W-NW 283 ° 1 min 0,000 mm 2,8 UV-I 633 W/m² -2,2 °C 8,1 °C 4,8 km/h (1 Bft)
08.03.2018 13:33 8,1 °C 45 % 1006,8 hPa 0,0 mm 0,8 km/h (0 Bft) W-NW 293 ° 1 min 0,000 mm 2,9 UV-I 420 W/m² -3,1 °C 8,1 °C 3,2 km/h (1 Bft)
08.03.2018 13:34 8,1 °C 44 % 1006,8 hPa 0,0 mm 3,0 km/h (1 Bft) W-NW 293 ° 1 min 0,000 mm 3,1 UV-I 506 W/m² -3,4 °C 8,1 °C 4,8 km/h (1 Bft)
08.03.2018 13:35 8,2 °C 45 % 1006,8 hPa 0,0 mm 5,2 km/h (1 Bft) W-NW 292 ° 1 min 0,000 mm 2,9 UV-I 485 W/m² -3,0 °C 7,6 °C 6,4 km/h (2 Bft)
08.03.2018 13:36 8,3 °C 47 % 1006,8 hPa 0,0 mm 7,5 km/h (2 Bft) W 274 ° 1 min 0,000 mm 3,2 UV-I 485 W/m² -2,3 °C 7,1 °C 12,9 km/h (3 Bft)
08.03.2018 13:37 8,3 °C 44 % 1006,9 hPa 0,0 mm 3,9 km/h (1 Bft) NW 311 ° 1 min 0,000 mm 2,7 UV-I 485 W/m² -3,2 °C 8,3 °C 8,0 km/h (2 Bft)
08.03.2018 13:38 8,2 °C 44 % 1006,9 hPa 0,0 mm 3,3 km/h (1 Bft) W-NW 289 ° 1 min 0,000 mm 2,8 UV-I 485 W/m² -3,3 °C 8,2 °C 4,8 km/h (1 Bft)
08.03.2018 13:39 8,2 °C 44 % 1006,9 hPa 0,0 mm 4,1 km/h (1 Bft) NW 313 ° 1 min 0,000 mm 3,2 UV-I 636 W/m² -3,3 °C 8,2 °C 6,4 km/h (2 Bft)
08.03.2018 13:40 8,3 °C 46 % 1006,8 hPa 0,0 mm 4,9 km/h (1 Bft) N-NW 338 ° 1 min 0,000 mm 3,2 UV-I 636 W/m² -2,6 °C 7,9 °C 6,4 km/h (2 Bft)
08.03.2018 13:41 8,4 °C 46 % 1006,8 hPa 0,0 mm 8,8 km/h (2 Bft) NW 319 ° 1 min 0,000 mm 3,4 UV-I 694 W/m² -2,5 °C 7,0 °C 14,5 km/h (3 Bft)
08.03.2018 13:42 8,6 °C 44 % 1006,8 hPa 0,0 mm 4,0 km/h (1 Bft) W 273 ° 1 min 0,000 mm 3,4 UV-I 675 W/m² -2,9 °C 8,6 °C 6,4 km/h (2 Bft)
08.03.2018 13:43 8,6 °C 44 % 1006,8 hPa 0,0 mm 5,3 km/h (1 Bft) NW 309 ° 1 min 0,000 mm 3,4 UV-I 670 W/m² -2,9 °C 8,1 °C 6,4 km/h (2 Bft)
08.03.2018 13:44 8,7 °C 47 % 1006,8 hPa 0,0 mm 3,2 km/h (1 Bft) NW 309 ° 1 min 0,000 mm 3,3 UV-I 647 W/m² -2,0 °C 8,7 °C 4,8 km/h (1 Bft)
08.03.2018 13:45 8,8 °C 46 % 1006,8 hPa 0,0 mm 5,2 km/h (1 Bft) NW 306 ° 1 min 0,000 mm 3,5 UV-I 703 W/m² -2,2 °C 8,3 °C 12,9 km/h (3 Bft)
08.03.2018 13:46 8,8 °C 46 % 1006,8 hPa 0,0 mm 6,8 km/h (2 Bft) W 280 ° 1 min 0,000 mm 3,1 UV-I 679 W/m² -2,2 °C 7,9 °C 11,3 km/h (2 Bft)
08.03.2018 13:47 8,7 °C 44 % 1006,8 hPa 0,0 mm 6,4 km/h (2 Bft) W 266 ° 1 min 0,000 mm 3,5 UV-I 679 W/m² -2,9 °C 7,9 °C 12,9 km/h (3 Bft)
08.03.2018 13:48 8,7 °C 44 % 1006,8 hPa 0,0 mm 5,0 km/h (1 Bft) N-NW 345 ° 1 min 0,000 mm 3,2 UV-I 679 W/m² -2,9 °C 8,3 °C 8,0 km/h (2 Bft)
08.03.2018 13:49 8,7 °C 46 % 1006,7 hPa 0,0 mm 7,8 km/h (2 Bft) W-NW 298 ° 1 min 0,000 mm 3,1 UV-I 536 W/m² -2,3 °C 7,5 °C 12,9 km/h (3 Bft)
08.03.2018 13:50 8,9 °C 50 % 1006,8 hPa 0,0 mm 7,2 km/h (2 Bft) W-NW 300 ° 1 min 0,000 mm 2,7 UV-I 446 W/m² -0,9 °C 7,9 °C 11,3 km/h (2 Bft)
08.03.2018 13:51 8,9 °C 50 % 1006,8 hPa 0,0 mm 11,8 km/h (2 Bft) N 5 ° 1 min 0,000 mm 2,6 UV-I 446 W/m² -0,9 °C 7,0 °C 16,1 km/h (3 Bft)
08.03.2018 13:52 8,9 °C 46 % 1006,7 hPa 0,0 mm 6,4 km/h (2 Bft) W-NW 302 ° 1 min 0,000 mm 2,6 UV-I 446 W/m² -2,1 °C 8,1 °C 9,7 km/h (2 Bft)
08.03.2018 13:53 8,8 °C 46 % 1006,7 hPa 0,0 mm 4,3 km/h (1 Bft) NW 312 ° 1 min 0,000 mm 3,1 UV-I 446 W/m² -2,2 °C 8,8 °C 8,0 km/h (2 Bft)
08.03.2018 13:54 8,9 °C 48 % 1006,6 hPa 0,0 mm 4,6 km/h (1 Bft) W-NW 295 ° 1 min 0,000 mm 3,2 UV-I 629 W/m² -1,5 °C 8,6 °C 8,0 km/h (2 Bft)
08.03.2018 13:55 8,9 °C 46 % 1006,6 hPa 0,0 mm 4,8 km/h (1 Bft) W-NW 284 ° 1 min 0,000 mm 2,6 UV-I 629 W/m² -2,1 °C 8,6 °C 6,4 km/h (2 Bft)
08.03.2018 13:56 9,0 °C 48 % 1006,6 hPa 0,0 mm 11,0 km/h (2 Bft) NW 311 ° 1 min 0,000 mm 2,3 UV-I 478 W/m² -1,4 °C 7,3 °C 14,5 km/h (3 Bft)
08.03.2018 13:57 9,1 °C 45 % 1006,6 hPa 0,0 mm 3,1 km/h (1 Bft) W 274 ° 1 min 0,000 mm 3,2 UV-I 478 W/m² -2,2 °C 9,1 °C 4,8 km/h (1 Bft)
08.03.2018 13:58 9,0 °C 42 % 1006,6 hPa 0,0 mm 9,1 km/h (2 Bft) W-NW 288 ° 1 min 0,000 mm 3,2 UV-I 657 W/m² -3,2 °C 7,6 °C 14,5 km/h (3 Bft)
08.03.2018 13:59 9,0 °C 42 % 1006,6 hPa 0,0 mm 11,7 km/h (2 Bft) W 275 ° 1 min 0,000 mm 3,0 UV-I 657 W/m² -3,2 °C 7,2 °C 14,5 km/h (3 Bft)
08.03.2018 14:00 9,0 °C 41 % 1006,7 hPa 0,0 mm 14,1 km/h (3 Bft) NW 304 ° 1 min 0,000 mm 3,0 UV-I 657 W/m² -3,5 °C 6,8 °C 20,9 km/h (4 Bft)
08.03.2018 14:01 8,9 °C 40 % 1006,6 hPa 0,0 mm 10,1 km/h (2 Bft) W-NW 300 ° 1 min 0,254 mm 3,1 UV-I 580 W/m² -3,9 °C 7,3 °C 14,5 km/h (3 Bft)
08.03.2018 14:02 8,9 °C 38 % 1006,6 hPa 0,0 mm 7,3 km/h (2 Bft) W-NW 289 ° 1 min 0,000 mm 2,9 UV-I 489 W/m² -4,6 °C 7,9 °C 14,5 km/h (3 Bft)
08.03.2018 14:03 8,9 °C 39 % 1006,6 hPa 0,0 mm 7,8 km/h (2 Bft) W 277 ° 1 min 0,000 mm 2,8 UV-I 526 W/m² -4,3 °C 7,8 °C 12,9 km/h (3 Bft)
08.03.2018 14:04 9,1 °C 42 % 1006,5 hPa 0,0 mm 12,2 km/h (2 Bft) W-SW 257 ° 1 min 0,000 mm 3,0 UV-I 538 W/m² -3,1 °C 7,2 °C 17,7 km/h (3 Bft)
08.03.2018 14:05 9,1 °C 41 % 1006,5 hPa 0,0 mm 6,7 km/h (2 Bft) W-NW 294 ° 1 min 0,000 mm 3,0 UV-I 626 W/m² -3,4 °C 8,3 °C 12,9 km/h (3 Bft)
08.03.2018 14:06 9,1 °C 40 % 1006,5 hPa 0,0 mm 6,0 km/h (2 Bft) W-NW 296 ° 1 min 0,000 mm 3,0 UV-I 585 W/m² -3,8 °C 8,4 °C 11,3 km/h (2 Bft)
08.03.2018 14:07 9,2 °C 38 % 1006,5 hPa 0,0 mm 9,7 km/h (2 Bft) W-NW 290 ° 1 min 0,000 mm 3,1 UV-I 631 W/m² -4,4 °C 7,7 °C 14,5 km/h (3 Bft)
08.03.2018 14:08 9,1 °C 37 % 1006,5 hPa 0,0 mm 13,7 km/h (3 Bft) W-NW 290 ° 1 min 0,000 mm 3,1 UV-I 661 W/m² -4,8 °C 7,0 °C 16,1 km/h (3 Bft)
08.03.2018 14:09 9,1 °C 38 % 1006,5 hPa 0,0 mm 13,2 km/h (3 Bft) NW 313 ° 1 min 0,000 mm 3,1 UV-I 664 W/m² -4,5 °C 7,0 °C 19,3 km/h (3 Bft)
08.03.2018 14:10 9,1 °C 39 % 1006,5 hPa 0,0 mm 12,0 km/h (2 Bft) W 265 ° 1 min 0,000 mm 3,1 UV-I 656 W/m² -4,1 °C 7,2 °C 14,5 km/h (3 Bft)
08.03.2018 14:11 9,2 °C 38 % 1006,6 hPa 0,0 mm 14,7 km/h (3 Bft) W 281 ° 1 min 0,000 mm 3,1 UV-I 613 W/m² -4,4 °C 7,0 °C 24,1 km/h (4 Bft)
08.03.2018 14:12 9,1 °C 39 % 1006,5 hPa 0,0 mm 15,4 km/h (3 Bft) W-SW 252 ° 1 min 0,000 mm 3,1 UV-I 638 W/m² -4,1 °C 6,8 °C 20,9 km/h (4 Bft)
08.03.2018 14:13 9,1 °C 41 % 1006,4 hPa 0,0 mm 6,0 km/h (2 Bft) W-SW 249 ° 1 min 0,000 mm 3,1 UV-I 631 W/m² -3,4 °C 8,4 °C 11,3 km/h (2 Bft)
08.03.2018 14:14 9,3 °C 40 % 1006,5 hPa 0,0 mm 7,8 km/h (2 Bft) NW 304 ° 1 min 0,000 mm 2,9 UV-I 603 W/m² -3,6 °C 8,2 °C 11,3 km/h (2 Bft)
08.03.2018 14:15 9,3 °C 40 % 1006,5 hPa 0,0 mm 6,8 km/h (2 Bft) W 273 ° 1 min 0,000 mm 2,9 UV-I 570 W/m² -3,6 °C 8,5 °C 11,3 km/h (2 Bft)
08.03.2018 14:16 9,3 °C 37 % 1006,5 hPa 0,0 mm 9,5 km/h (2 Bft) W-NW 292 ° 1 min 0,000 mm 2,9 UV-I 601 W/m² -4,6 °C 7,9 °C 16,1 km/h (3 Bft)
08.03.2018 14:17 9,3 °C 37 % 1006,5 hPa 0,0 mm 13,8 km/h (3 Bft) W-NW 300 ° 1 min 0,000 mm 3,0 UV-I 612 W/m² -4,6 °C 7,2 °C 20,9 km/h (4 Bft)
08.03.2018 14:18 9,2 °C 38 % 1006,5 hPa 0,0 mm 12,3 km/h (3 Bft) W 264 ° 1 min 0,000 mm 2,9 UV-I 578 W/m² -4,4 °C 7,3 °C 17,7 km/h (3 Bft)
08.03.2018 14:19 9,1 °C 38 % 1006,5 hPa 0,0 mm 7,5 km/h (2 Bft) NW 321 ° 1 min 0,000 mm 2,9 UV-I 592 W/m² -4,5 °C 8,1 °C 14,5 km/h (3 Bft)
08.03.2018 14:20 9,1 °C 37 % 1006,5 hPa 0,0 mm 9,7 km/h (2 Bft) W 261 ° 1 min 0,000 mm 2,9 UV-I 591 W/m² -4,8 °C 7,6 °C 19,3 km/h (3 Bft)
08.03.2018 14:21 9,1 °C 40 % 1006,5 hPa 0,0 mm 11,7 km/h (2 Bft) W-NW 303 ° 1 min 0,000 mm 2,9 UV-I 591 W/m² -3,8 °C 7,3 °C 16,1 km/h (3 Bft)
08.03.2018 14:22 9,1 °C 38 % 1006,5 hPa 0,0 mm 8,0 km/h (2 Bft) W 274 ° 1 min 0,000 mm 2,8 UV-I 533 W/m² -4,5 °C 7,9 °C 11,3 km/h (2 Bft)
08.03.2018 14:23 9,1 °C 37 % 1006,5 hPa 0,0 mm 10,1 km/h (2 Bft) NW 321 ° 1 min 0,000 mm 2,9 UV-I 584 W/m² -4,8 °C 7,5 °C 14,5 km/h (3 Bft)
08.03.2018 14:24 9,1 °C 38 % 1006,5 hPa 0,0 mm 12,3 km/h (3 Bft) NW 323 ° 1 min 0,000 mm 3,0 UV-I 605 W/m² -4,5 °C 7,2 °C 16,1 km/h (3 Bft)
08.03.2018 14:25 9,1 °C 39 % 1006,5 hPa 0,0 mm 13,7 km/h (3 Bft) N-NW 327 ° 1 min 0,000 mm 3,0 UV-I 584 W/m² -4,1 °C 7,0 °C 20,9 km/h (4 Bft)
08.03.2018 14:26 9,1 °C 41 % 1006,4 hPa 0,0 mm 13,2 km/h (3 Bft) W-NW 291 ° 1 min 0,000 mm 2,6 UV-I 584 W/m² -3,4 °C 7,0 °C 17,7 km/h (3 Bft)
08.03.2018 14:27 9,0 °C 38 % 1006,4 hPa 0,0 mm 9,4 km/h (2 Bft) NW 315 ° 1 min 0,000 mm 2,7 UV-I 584 W/m² -4,5 °C 7,5 °C 14,5 km/h (3 Bft)
08.03.2018 14:28 9,0 °C 38 % 1006,4 hPa 0,0 mm 12,2 km/h (2 Bft) W-NW 295 ° 1 min 0,000 mm 2,6 UV-I 517 W/m² -4,5 °C 7,1 °C 17,7 km/h (3 Bft)
08.03.2018 14:29 9,0 °C 37 % 1006,3 hPa 0,0 mm 12,1 km/h (2 Bft) W-NW 289 ° 1 min 0,000 mm 2,6 UV-I 489 W/m² -4,9 °C 7,1 °C 17,7 km/h (3 Bft)
08.03.2018 14:30 9,0 °C 37 % 1006,4 hPa 0,0 mm 10,2 km/h (2 Bft) N-NW 329 ° 1 min 0,000 mm 2,6 UV-I 487 W/m² -4,9 °C 7,4 °C 17,7 km/h (3 Bft)
08.03.2018 14:31 8,9 °C 37 % 1006,4 hPa 0,0 mm 8,6 km/h (2 Bft) W 281 ° 1 min 0,000 mm 2,3 UV-I 459 W/m² -5,0 °C 7,6 °C 14,5 km/h (3 Bft)
08.03.2018 14:32 8,9 °C 40 % 1006,3 hPa 0,0 mm 11,5 km/h (2 Bft) W 259 ° 1 min 0,000 mm 2,5 UV-I 489 W/m² -3,9 °C 7,1 °C 24,1 km/h (4 Bft)
08.03.2018 14:33 8,9 °C 39 % 1006,3 hPa 0,0 mm 10,4 km/h (2 Bft) W 269 ° 1 min 0,000 mm 2,2 UV-I 469 W/m² -4,3 °C 7,2 °C 16,1 km/h (3 Bft)
08.03.2018 14:34 8,9 °C 40 % 1006,3 hPa 0,0 mm 10,1 km/h (2 Bft) W-SW 257 ° 1 min 0,000 mm 2,2 UV-I 469 W/m² -3,9 °C 7,3 °C 16,1 km/h (3 Bft)
08.03.2018 14:35 8,9 °C 38 % 1006,3 hPa 0,0 mm 8,6 km/h (2 Bft) W-NW 293 ° 1 min 0,000 mm 2,1 UV-I 397 W/m² -4,6 °C 7,6 °C 16,1 km/h (3 Bft)
08.03.2018 14:36 8,9 °C 39 % 1006,4 hPa 0,0 mm 11,4 km/h (2 Bft) W-NW 296 ° 0 min 0,000 mm 2,0 UV-I 276 W/m² -4,3 °C 7,1 °C 16,1 km/h (3 Bft)
08.03.2018 14:37 8,9 °C 39 % 1006,4 hPa 0,0 mm 11,3 km/h (2 Bft) NW 310 ° 1 min 0,000 mm 2,0 UV-I 348 W/m² -4,3 °C 7,1 °C 14,5 km/h (3 Bft)
08.03.2018 14:38 8,9 °C 38 % 1006,4 hPa 0,0 mm 11,7 km/h (2 Bft) NW 306 ° 1 min 0,000 mm 2,3 UV-I 385 W/m² -4,6 °C 7,0 °C 19,3 km/h (3 Bft)
08.03.2018 14:39 8,9 °C 36 % 1006,3 hPa 0,0 mm 14,8 km/h (3 Bft) W 266 ° 1 min 0,000 mm 2,4 UV-I 385 W/m² -5,3 °C 6,6 °C 19,3 km/h (3 Bft)
08.03.2018 14:40 8,9 °C 36 % 1006,3 hPa 0,0 mm 12,7 km/h (3 Bft) W 279 ° 1 min 0,000 mm 2,5 UV-I 497 W/m² -5,3 °C 6,9 °C 19,3 km/h (3 Bft)
08.03.2018 14:41 8,9 °C 36 % 1006,3 hPa 0,0 mm 12,7 km/h (3 Bft) W-NW 288 ° 1 min 0,000 mm 2,5 UV-I 540 W/m² -5,3 °C 6,9 °C 16,1 km/h (3 Bft)
08.03.2018 14:42 8,9 °C 34 % 1006,4 hPa 0,0 mm 8,9 km/h (2 Bft) W 269 ° 1 min 0,000 mm 2,6 UV-I 598 W/m² -6,1 °C 7,5 °C 14,5 km/h (3 Bft)
08.03.2018 14:43 9,0 °C 34 % 1006,3 hPa 0,0 mm 8,5 km/h (2 Bft) W-NW 297 ° 1 min 0,000 mm 2,7 UV-I 598 W/m² -6,0 °C 7,7 °C 12,9 km/h (3 Bft)
08.03.2018 14:44 9,1 °C 35 % 1006,3 hPa 0,0 mm 8,3 km/h (2 Bft) W 275 ° 1 min 0,000 mm 2,7 UV-I 601 W/m² -5,5 °C 7,9 °C 11,3 km/h (2 Bft)
08.03.2018 14:45 9,1 °C 36 % 1006,2 hPa 0,0 mm 11,6 km/h (2 Bft) W 271 ° 1 min 0,000 mm 2,6 UV-I 585 W/m² -5,2 °C 7,3 °C 14,5 km/h (3 Bft)
08.03.2018 14:46 9,2 °C 36 % 1006,2 hPa 0,0 mm 9,4 km/h (2 Bft) W 269 ° 1 min 0,000 mm 2,6 UV-I 506 W/m² -5,1 °C 7,8 °C 12,9 km/h (3 Bft)
08.03.2018 14:47 9,2 °C 35 % 1006,3 hPa 0,0 mm 16,0 km/h (3 Bft) NW 306 ° 1 min 0,000 mm 2,5 UV-I 512 W/m² -5,4 °C 6,8 °C 24,1 km/h (4 Bft)
08.03.2018 14:48 9,2 °C 34 % 1006,2 hPa 0,0 mm 17,3 km/h (3 Bft) W-NW 286 ° 1 min 0,000 mm 2,3 UV-I 496 W/m² -5,8 °C 6,7 °C 27,4 km/h (4 Bft)
08.03.2018 14:49 9,1 °C 35 % 1006,2 hPa 0,0 mm 10,6 km/h (2 Bft) W-NW 294 ° 1 min 0,000 mm 2,0 UV-I 406 W/m² -5,5 °C 7,5 °C 16,1 km/h (3 Bft)
08.03.2018 14:50 9,0 °C 36 % 1006,1 hPa 0,0 mm 11,9 km/h (2 Bft) W-NW 296 ° 1 min 0,000 mm 1,8 UV-I 406 W/m² -5,3 °C 7,1 °C 14,5 km/h (3 Bft)
08.03.2018 14:51 8,9 °C 35 % 1006,1 hPa 0,0 mm 9,7 km/h (2 Bft) W-SW 245 ° 0 min 0,000 mm 1,8 UV-I 267 W/m² -5,7 °C 7,4 °C 14,5 km/h (3 Bft)
08.03.2018 14:52 8,9 °C 35 % 1006,1 hPa 0,0 mm 6,8 km/h (2 Bft) N-NW 332 ° 0 min 0,000 mm 1,8 UV-I 278 W/m² -5,7 °C 8,0 °C 12,9 km/h (3 Bft)
08.03.2018 14:53 8,8 °C 38 % 1006,0 hPa 0,0 mm 9,1 km/h (2 Bft) W-NW 297 ° 0 min 0,000 mm 1,7 UV-I 281 W/m² -4,7 °C 7,4 °C 19,3 km/h (3 Bft)
08.03.2018 14:54 8,8 °C 37 % 1006,1 hPa 0,0 mm 14,6 km/h (3 Bft) W-NW 296 ° 0 min 0,000 mm 1,8 UV-I 287 W/m² -5,1 °C 6,5 °C 20,9 km/h (4 Bft)
08.03.2018 14:55 8,8 °C 36 % 1006,1 hPa 0,0 mm 9,7 km/h (2 Bft) W-NW 296 ° 1 min 0,000 mm 1,8 UV-I 308 W/m² -5,4 °C 7,3 °C 14,5 km/h (3 Bft)
08.03.2018 14:56 8,8 °C 37 % 1006,1 hPa 0,0 mm 11,1 km/h (2 Bft) W-NW 298 ° 1 min 0,000 mm 1,7 UV-I 313 W/m² -5,1 °C 7,0 °C 20,9 km/h (4 Bft)
08.03.2018 14:57 8,8 °C 37 % 1006,1 hPa 0,0 mm 14,8 km/h (3 Bft) W 267 ° 1 min 0,000 mm 1,8 UV-I 295 W/m² -5,1 °C 6,5 °C 22,5 km/h (4 Bft)
08.03.2018 14:58 8,7 °C 36 % 1006,1 hPa 0,0 mm 14,0 km/h (3 Bft) W-NW 292 ° 1 min 0,000 mm 1,7 UV-I 309 W/m² -5,5 °C 6,4 °C 19,3 km/h (3 Bft)
08.03.2018 14:59 8,7 °C 36 % 1006,0 hPa 0,0 mm 13,9 km/h (3 Bft) W 262 ° 0 min 0,000 mm 1,7 UV-I 274 W/m² -5,5 °C 6,5 °C 17,7 km/h (3 Bft)
08.03.2018 15:00 8,6 °C 35 % 1006,1 hPa 0,0 mm 10,7 km/h (2 Bft) W 281 ° 1 min 0,000 mm 1,8 UV-I 306 W/m² -6,0 °C 6,8 °C 12,9 km/h (3 Bft)
08.03.2018 15:01 8,7 °C 36 % 1006,1 hPa 0,0 mm 8,0 km/h (2 Bft) W 262 ° 1 min 0,280 mm 2,0 UV-I 403 W/m² -5,5 °C 7,5 °C 12,9 km/h (3 Bft)
08.03.2018 15:02 8,7 °C 37 % 1006,1 hPa 0,0 mm 12,5 km/h (3 Bft) W 267 ° 1 min 0,000 mm 1,8 UV-I 373 W/m² -5,2 °C 6,7 °C 17,7 km/h (3 Bft)
08.03.2018 15:03 8,7 °C 34 % 1006,0 hPa 0,0 mm 16,7 km/h (3 Bft) W-NW 300 ° 0 min 0,000 mm 1,8 UV-I 283 W/m² -6,3 °C 6,1 °C 20,9 km/h (4 Bft)
08.03.2018 15:04 8,7 °C 34 % 1006,0 hPa 0,0 mm 11,9 km/h (2 Bft) W-NW 300 ° 0 min 0,000 mm 1,7 UV-I 269 W/m² -6,3 °C 6,8 °C 16,1 km/h (3 Bft)
08.03.2018 15:05 8,7 °C 35 % 1006,0 hPa 0,0 mm 8,9 km/h (2 Bft) W-NW 288 ° 1 min 0,000 mm 1,7 UV-I 387 W/m² -5,9 °C 7,3 °C 14,5 km/h (3 Bft)
08.03.2018 15:06 8,8 °C 37 % 1006,0 hPa 0,0 mm 6,7 km/h (2 Bft) W 276 ° 1 min 0,000 mm 1,9 UV-I 459 W/m² -5,1 °C 7,9 °C 12,9 km/h (3 Bft)
08.03.2018 15:07 8,8 °C 36 % 1006,0 hPa 0,0 mm 12,6 km/h (3 Bft) W-SW 248 ° 1 min 0,000 mm 2,2 UV-I 526 W/m² -5,4 °C 6,8 °C 17,7 km/h (3 Bft)
08.03.2018 15:08 8,9 °C 34 % 1006,0 hPa 0,0 mm 14,6 km/h (3 Bft) W-NW 291 ° 1 min 0,000 mm 2,0 UV-I 526 W/m² -6,1 °C 6,6 °C 25,7 km/h (4 Bft)
08.03.2018 15:09 8,9 °C 34 % 1006,0 hPa 0,0 mm 13,2 km/h (3 Bft) W 279 ° 1 min 0,000 mm 1,8 UV-I 348 W/m² -6,1 °C 6,8 °C 19,3 km/h (3 Bft)
08.03.2018 15:10 8,9 °C 34 % 1006,0 hPa 0,0 mm 11,8 km/h (2 Bft) W 259 ° 1 min 0,000 mm 1,8 UV-I 343 W/m² -6,1 °C 7,0 °C 22,5 km/h (4 Bft)
08.03.2018 15:11 8,9 °C 34 % 1006,0 hPa 0,0 mm 16,7 km/h (3 Bft) W 267 ° 1 min 0,000 mm 1,8 UV-I 367 W/m² -6,1 °C 6,3 °C 24,1 km/h (4 Bft)
08.03.2018 15:12 8,9 °C 35 % 1006,0 hPa 0,0 mm 15,1 km/h (3 Bft) W-NW 296 ° 1 min 0,000 mm 1,9 UV-I 424 W/m² -5,7 °C 6,5 °C 19,3 km/h (3 Bft)
08.03.2018 15:13 8,8 °C 35 % 1006,0 hPa 0,0 mm 11,2 km/h (2 Bft) W 259 ° 1 min 0,000 mm 1,9 UV-I 410 W/m² -5,8 °C 7,0 °C 17,7 km/h (3 Bft)
08.03.2018 15:14 8,8 °C 38 % 1005,9 hPa 0,0 mm 12,5 km/h (3 Bft) W-SW 257 ° 1 min 0,000 mm 1,8 UV-I 392 W/m² -4,7 °C 6,8 °C 16,1 km/h (3 Bft)
08.03.2018 15:15 8,8 °C 36 % 1005,9 hPa 0,0 mm 8,4 km/h (2 Bft) W 267 ° 1 min 0,000 mm 1,8 UV-I 392 W/m² -5,4 °C 7,5 °C 16,1 km/h (3 Bft)
08.03.2018 15:16 8,8 °C 36 % 1005,9 hPa 0,0 mm 10,4 km/h (2 Bft) W-NW 294 ° 1 min 0,000 mm 1,6 UV-I 392 W/m² -5,4 °C 7,1 °C 14,5 km/h (3 Bft)
08.03.2018 15:17 8,8 °C 37 % 1005,9 hPa 0,0 mm 13,3 km/h (3 Bft) W 269 ° 0 min 0,000 mm 1,6 UV-I 267 W/m² -5,1 °C 6,7 °C 17,7 km/h (3 Bft)
08.03.2018 15:18 8,8 °C 36 % 1005,8 hPa 0,0 mm 14,4 km/h (3 Bft) W-SW 257 ° 0 min 0,000 mm 1,6 UV-I 251 W/m² -5,4 °C 6,5 °C 22,5 km/h (4 Bft)
08.03.2018 15:19 8,7 °C 36 % 1005,9 hPa 0,0 mm 12,2 km/h (2 Bft) W-NW 288 ° 0 min 0,000 mm 1,6 UV-I 288 W/m² -5,5 °C 6,7 °C 22,5 km/h (4 Bft)
08.03.2018 15:20 8,7 °C 36 % 1005,9 hPa 0,0 mm 10,9 km/h (2 Bft) W 269 ° 1 min 0,000 mm 1,6 UV-I 299 W/m² -5,5 °C 6,9 °C 14,5 km/h (3 Bft)
08.03.2018 15:21 8,7 °C 37 % 1005,8 hPa 0,0 mm 10,1 km/h (2 Bft) NW 306 ° 1 min 0,000 mm 1,6 UV-I 294 W/m² -5,2 °C 7,1 °C 14,5 km/h (3 Bft)
08.03.2018 15:22 8,7 °C 34 % 1005,9 hPa 0,0 mm 12,7 km/h (3 Bft) NW 313 ° 1 min 0,000 mm 1,7 UV-I 334 W/m² -6,3 °C 6,6 °C 16,1 km/h (3 Bft)
08.03.2018 15:23 8,7 °C 35 % 1005,8 hPa 0,0 mm 8,9 km/h (2 Bft) W-SW 254 ° 1 min 0,000 mm 1,7 UV-I 332 W/m² -5,9 °C 7,3 °C 20,9 km/h (4 Bft)
08.03.2018 15:24 8,8 °C 36 % 1005,8 hPa 0,0 mm 10,9 km/h (2 Bft) W 272 ° 0 min 0,000 mm 1,5 UV-I 274 W/m² -5,4 °C 7,0 °C 20,9 km/h (4 Bft)
08.03.2018 15:25 8,8 °C 35 % 1005,9 hPa 0,0 mm 9,7 km/h (2 Bft) W-SW 252 ° 1 min 0,000 mm 1,6 UV-I 315 W/m² -5,8 °C 7,3 °C 14,5 km/h (3 Bft)
08.03.2018 15:26 8,8 °C 34 % 1005,9 hPa 0,0 mm 8,4 km/h (2 Bft) SW 227 ° 1 min 0,000 mm 1,5 UV-I 290 W/m² -6,2 °C 7,5 °C 12,9 km/h (3 Bft)
08.03.2018 15:27 8,8 °C 34 % 1005,9 hPa 0,0 mm 9,5 km/h (2 Bft) W 279 ° 0 min 0,000 mm 1,4 UV-I 278 W/m² -6,2 °C 7,3 °C 12,9 km/h (3 Bft)
08.03.2018 15:28 8,8 °C 36 % 1005,8 hPa 0,0 mm 7,0 km/h (2 Bft) W-NW 286 ° 0 min 0,000 mm 1,4 UV-I 274 W/m² -5,4 °C 7,8 °C 11,3 km/h (2 Bft)
08.03.2018 15:29 8,8 °C 37 % 1005,8 hPa 0,0 mm 8,4 km/h (2 Bft) NW 305 ° 0 min 0,000 mm 1,4 UV-I 204 W/m² -5,1 °C 7,5 °C 14,5 km/h (3 Bft)
08.03.2018 15:30 8,8 °C 36 % 1005,8 hPa 0,0 mm 5,7 km/h (1 Bft) W-NW 295 ° 0 min 0,000 mm 1,3 UV-I 225 W/m² -5,4 °C 8,2 °C 9,7 km/h (2 Bft)
08.03.2018 15:31 8,8 °C 34 % 1005,7 hPa 0,0 mm 6,3 km/h (2 Bft) W-NW 297 ° 0 min 0,000 mm 1,5 UV-I 258 W/m² -6,2 °C 8,0 °C 9,7 km/h (2 Bft)
08.03.2018 15:32 8,9 °C 36 % 1005,7 hPa 0,0 mm 4,9 km/h (1 Bft) W-NW 296 ° 1 min 0,000 mm 1,5 UV-I 311 W/m² -5,3 °C 8,5 °C 6,4 km/h (2 Bft)
08.03.2018 15:33 8,9 °C 34 % 1005,7 hPa 0,0 mm 7,7 km/h (2 Bft) W 277 ° 0 min 0,000 mm 1,4 UV-I 264 W/m² -6,1 °C 7,8 °C 16,1 km/h (3 Bft)
08.03.2018 15:34 8,9 °C 32 % 1005,7 hPa 0,0 mm 14,7 km/h (3 Bft) W 269 ° 0 min 0,000 mm 1,5 UV-I 281 W/m² -6,9 °C 6,6 °C 17,7 km/h (3 Bft)
08.03.2018 15:35 8,9 °C 34 % 1005,7 hPa 0,0 mm 10,9 km/h (2 Bft) W-NW 290 ° 0 min 0,000 mm 1,5 UV-I 267 W/m² -6,1 °C 7,2 °C 14,5 km/h (3 Bft)
08.03.2018 15:36 8,9 °C 34 % 1005,7 hPa 0,0 mm 7,2 km/h (2 Bft) W-NW 296 ° 0 min 0,000 mm 1,4 UV-I 243 W/m² -6,1 °C 7,9 °C 16,1 km/h (3 Bft)
08.03.2018 15:37 8,9 °C 34 % 1005,7 hPa 0,0 mm 8,0 km/h (2 Bft) W-NW 298 ° 0 min 0,000 mm 1,3 UV-I 229 W/m² -6,1 °C 7,7 °C 14,5 km/h (3 Bft)
08.03.2018 15:38 8,9 °C 33 % 1005,7 hPa 0,0 mm 9,6 km/h (2 Bft) W 279 ° 0 min 0,000 mm 1,3 UV-I 227 W/m² -6,5 °C 7,4 °C 14,5 km/h (3 Bft)
08.03.2018 15:39 8,9 °C 33 % 1005,7 hPa 0,0 mm 9,7 km/h (2 Bft) W-NW 287 ° 0 min 0,000 mm 1,3 UV-I 244 W/m² -6,5 °C 7,4 °C 14,5 km/h (3 Bft)
08.03.2018 15:40 8,9 °C 34 % 1005,7 hPa 0,0 mm 9,2 km/h (2 Bft) W-NW 302 ° 0 min 0,000 mm 1,3 UV-I 218 W/m² -6,1 °C 7,5 °C 16,1 km/h (3 Bft)
08.03.2018 15:41 8,9 °C 34 % 1005,7 hPa 0,0 mm 11,2 km/h (2 Bft) NW 313 ° 0 min 0,000 mm 1,3 UV-I 223 W/m² -6,1 °C 7,1 °C 16,1 km/h (3 Bft)
08.03.2018 15:42 8,9 °C 33 % 1005,7 hPa 0,0 mm 9,2 km/h (2 Bft) W 279 ° 0 min 0,000 mm 1,3 UV-I 225 W/m² -6,5 °C 7,5 °C 12,9 km/h (3 Bft)
08.03.2018 15:43 8,9 °C 33 % 1005,6 hPa 0,0 mm 8,7 km/h (2 Bft) NW 315 ° 0 min 0,000 mm 1,3 UV-I 223 W/m² -6,5 °C 7,6 °C 12,9 km/h (3 Bft)
08.03.2018 15:44 8,9 °C 33 % 1005,5 hPa 0,0 mm 8,8 km/h (2 Bft) W-NW 283 ° 0 min 0,000 mm 1,2 UV-I 218 W/m² -6,5 °C 7,5 °C 16,1 km/h (3 Bft)
08.03.2018 15:45 9,0 °C 33 % 1005,5 hPa 0,0 mm 4,8 km/h (1 Bft) W-NW 301 ° 0 min 0,000 mm 1,2 UV-I 213 W/m² -6,4 °C 8,7 °C 6,4 km/h (2 Bft)
08.03.2018 15:46 9,0 °C 35 % 1005,5 hPa 0,0 mm 9,3 km/h (2 Bft) W-SW 258 ° 0 min 0,000 mm 1,2 UV-I 213 W/m² -5,6 °C 7,6 °C 12,9 km/h (3 Bft)
08.03.2018 15:47 9,0 °C 36 % 1005,5 hPa 0,0 mm 11,3 km/h (2 Bft) W 268 ° 0 min 0,000 mm 1,2 UV-I 193 W/m² -5,3 °C 7,2 °C 16,1 km/h (3 Bft)
08.03.2018 15:48 8,9 °C 33 % 1005,5 hPa 0,0 mm 10,4 km/h (2 Bft) W 269 ° 0 min 0,000 mm 1,1 UV-I 179 W/m² -6,5 °C 7,2 °C 14,5 km/h (3 Bft)
08.03.2018 15:49 9,0 °C 34 % 1005,5 hPa 0,0 mm 6,8 km/h (2 Bft) W-SW 252 ° 0 min 0,000 mm 1,1 UV-I 171 W/m² -6,0 °C 8,1 °C 11,3 km/h (2 Bft)
08.03.2018 15:50 9,0 °C 34 % 1005,5 hPa 0,0 mm 13,0 km/h (3 Bft) W-SW 257 ° 0 min 0,000 mm 1,1 UV-I 167 W/m² -6,0 °C 7,0 °C 14,5 km/h (3 Bft)
08.03.2018 15:51 8,9 °C 33 % 1005,5 hPa 0,0 mm 7,0 km/h (2 Bft) W-SW 239 ° 0 min 0,000 mm 1,1 UV-I 167 W/m² -6,5 °C 7,9 °C 12,9 km/h (3 Bft)
08.03.2018 15:52 9,0 °C 33 % 1005,5 hPa 0,0 mm 12,9 km/h (3 Bft) W 271 ° 0 min 0,000 mm 1,1 UV-I 156 W/m² -6,4 °C 7,0 °C 19,3 km/h (3 Bft)
08.03.2018 15:53 8,9 °C 34 % 1005,5 hPa 0,0 mm 14,5 km/h (3 Bft) W-NW 288 ° 0 min 0,000 mm 1,1 UV-I 155 W/m² -6,1 °C 6,6 °C 17,7 km/h (3 Bft)
08.03.2018 15:54 8,9 °C 34 % 1005,5 hPa 0,0 mm 9,1 km/h (2 Bft) W-NW 292 ° 0 min 0,000 mm 1,1 UV-I 153 W/m² -6,1 °C 7,5 °C 16,1 km/h (3 Bft)
08.03.2018 15:55 8,9 °C 35 % 1005,5 hPa 0,0 mm 5,4 km/h (1 Bft) W 269 ° 0 min 0,000 mm 1,1 UV-I 151 W/m² -5,7 °C 8,4 °C 9,7 km/h (2 Bft)
08.03.2018 15:56 8,8 °C 35 % 1005,5 hPa 0,0 mm 7,4 km/h (2 Bft) W-NW 285 ° 0 min 0,000 mm 1,0 UV-I 149 W/m² -5,8 °C 7,7 °C 12,9 km/h (3 Bft)
08.03.2018 15:57 8,8 °C 36 % 1005,5 hPa 0,0 mm 10,8 km/h (2 Bft) W-NW 285 ° 0 min 0,000 mm 1,0 UV-I 148 W/m² -5,4 °C 7,1 °C 12,9 km/h (3 Bft)
08.03.2018 15:58 8,8 °C 38 % 1005,5 hPa 0,0 mm 8,3 km/h (2 Bft) NW 310 ° 0 min 0,000 mm 1,0 UV-I 142 W/m² -4,7 °C 7,5 °C 12,9 km/h (3 Bft)
08.03.2018 15:59 8,7 °C 36 % 1005,5 hPa 0,0 mm 8,1 km/h (2 Bft) W 278 ° 0 min 0,000 mm 1,0 UV-I 142 W/m² -5,5 °C 7,5 °C 12,9 km/h (3 Bft)
08.03.2018 16:00 8,7 °C 38 % 1005,5 hPa 0,0 mm 6,8 km/h (2 Bft) W-NW 300 ° 0 min 0,000 mm 1,0 UV-I 146 W/m² -4,8 °C 7,8 °C 11,3 km/h (2 Bft)
08.03.2018 16:01 8,7 °C 38 % 1005,4 hPa 0,0 mm 8,4 km/h (2 Bft) NW 315 ° 0 min 0,177 mm 1,0 UV-I 144 W/m² -4,8 °C 7,4 °C 14,5 km/h (3 Bft)
08.03.2018 16:02 8,7 °C 39 % 1005,4 hPa 0,0 mm 8,0 km/h (2 Bft) W 281 ° 0 min 0,000 mm 1,0 UV-I 139 W/m² -4,5 °C 7,5 °C 11,3 km/h (2 Bft)
08.03.2018 16:03 8,7 °C 39 % 1005,4 hPa 0,0 mm 5,2 km/h (1 Bft) W 272 ° 0 min 0,000 mm 0,9 UV-I 134 W/m² -4,5 °C 8,2 °C 8,0 km/h (2 Bft)
08.03.2018 16:04 8,7 °C 38 % 1005,4 hPa 0,0 mm 5,1 km/h (1 Bft) W-NW 301 ° 0 min 0,000 mm 0,9 UV-I 130 W/m² -4,8 °C 8,2 °C 9,7 km/h (2 Bft)
08.03.2018 16:05 8,7 °C 38 % 1005,4 hPa 0,0 mm 4,7 km/h (1 Bft) W 265 ° 0 min 0,000 mm 0,9 UV-I 127 W/m² -4,8 °C 8,4 °C 6,4 km/h (2 Bft)
08.03.2018 16:06 8,7 °C 39 % 1005,4 hPa 0,0 mm 10,5 km/h (2 Bft) W 271 ° 0 min 0,000 mm 0,9 UV-I 125 W/m² -4,5 °C 7,0 °C 14,5 km/h (3 Bft)
08.03.2018 16:07 8,7 °C 36 % 1005,4 hPa 0,0 mm 7,6 km/h (2 Bft) W-SW 238 ° 0 min 0,000 mm 0,9 UV-I 123 W/m² -5,5 °C 7,6 °C 9,7 km/h (2 Bft)
08.03.2018 16:08 8,7 °C 37 % 1005,4 hPa 0,0 mm 6,8 km/h (2 Bft) W-NW 287 ° 0 min 0,000 mm 0,9 UV-I 123 W/m² -5,2 °C 7,8 °C 12,9 km/h (3 Bft)
08.03.2018 16:09 8,7 °C 35 % 1005,4 hPa 0,0 mm 10,5 km/h (2 Bft) W 279 ° 0 min 0,000 mm 0,9 UV-I 127 W/m² -5,9 °C 7,0 °C 12,9 km/h (3 Bft)
08.03.2018 16:10 8,6 °C 36 % 1005,3 hPa 0,0 mm 8,4 km/h (2 Bft) W 267 ° 0 min 0,000 mm 0,9 UV-I 128 W/m² -5,6 °C 7,3 °C 16,1 km/h (3 Bft)
08.03.2018 16:11 8,6 °C 35 % 1005,3 hPa 0,0 mm 4,9 km/h (1 Bft) W 276 ° 0 min 0,000 mm 0,9 UV-I 135 W/m² -6,0 °C 8,2 °C 8,0 km/h (2 Bft)
08.03.2018 16:12 8,6 °C 36 % 1005,3 hPa 0,0 mm 7,2 km/h (2 Bft) W 261 ° 0 min 0,000 mm 0,9 UV-I 132 W/m² -5,6 °C 7,5 °C 12,9 km/h (3 Bft)
08.03.2018 16:13 8,6 °C 38 % 1005,3 hPa 0,0 mm 8,6 km/h (2 Bft) W 280 ° 0 min 0,000 mm 0,8 UV-I 134 W/m² -4,9 °C 7,2 °C 12,9 km/h (3 Bft)
08.03.2018 16:14 8,6 °C 39 % 1005,4 hPa 0,0 mm 5,9 km/h (2 Bft) W-SW 255 ° 0 min 0,000 mm 0,8 UV-I 128 W/m² -4,6 °C 7,9 °C 9,7 km/h (2 Bft)
08.03.2018 16:15 8,4 °C 37 % 1005,3 hPa 0,0 mm 6,0 km/h (2 Bft) W 267 ° 0 min 0,000 mm 0,8 UV-I 121 W/m² -5,4 °C 7,6 °C 11,3 km/h (2 Bft)
08.03.2018 16:16 8,4 °C 41 % 1005,2 hPa 0,0 mm 6,4 km/h (2 Bft) W 263 ° 0 min 0,000 mm 0,8 UV-I 123 W/m² -4,1 °C 7,5 °C 11,3 km/h (2 Bft)
08.03.2018 16:17 8,3 °C 39 % 1005,2 hPa 0,0 mm 9,1 km/h (2 Bft) W 279 ° 0 min 0,000 mm 0,8 UV-I 127 W/m² -4,8 °C 6,8 °C 11,3 km/h (2 Bft)
08.03.2018 16:18 8,3 °C 41 % 1005,4 hPa 0,0 mm 5,0 km/h (1 Bft) W-NW 298 ° 0 min 0,000 mm 0,8 UV-I 128 W/m² -4,2 °C 7,8 °C 8,0 km/h (2 Bft)
08.03.2018 16:19 8,3 °C 38 % 1005,4 hPa 0,0 mm 7,6 km/h (2 Bft) W-SW 257 ° 0 min 0,000 mm 0,8 UV-I 132 W/m² -5,2 °C 7,1 °C 11,3 km/h (2 Bft)
08.03.2018 16:20 8,3 °C 39 % 1005,2 hPa 0,0 mm 5,5 km/h (1 Bft) W-NW 288 ° 0 min 0,000 mm 0,8 UV-I 135 W/m² -4,8 °C 7,7 °C 8,0 km/h (2 Bft)
08.03.2018 16:21 8,3 °C 40 % 1005,3 hPa 0,0 mm 6,2 km/h (2 Bft) W-NW 284 ° 0 min 0,000 mm 0,8 UV-I 128 W/m² -4,5 °C 7,5 °C 9,7 km/h (2 Bft)
08.03.2018 16:22 8,3 °C 40 % 1005,2 hPa 0,0 mm 5,3 km/h (1 Bft) W-NW 288 ° 0 min 0,000 mm 0,8 UV-I 125 W/m² -4,5 °C 7,7 °C 8,0 km/h (2 Bft)
08.03.2018 16:23 8,3 °C 39 % 1005,3 hPa 0,0 mm 5,9 km/h (2 Bft) W-NW 285 ° 0 min 0,000 mm 0,8 UV-I 121 W/m² -4,8 °C 7,5 °C 11,3 km/h (2 Bft)
08.03.2018 16:24 8,3 °C 38 % 1005,3 hPa 0,0 mm 5,2 km/h (1 Bft) NW 306 ° 0 min 0,000 mm 0,8 UV-I 121 W/m² -5,2 °C 7,8 °C 9,7 km/h (2 Bft)
08.03.2018 16:25 8,4 °C 40 % 1005,3 hPa 0,0 mm 8,2 km/h (2 Bft) W-NW 286 ° 0 min 0,000 mm 0,7 UV-I 120 W/m² -4,4 °C 7,1 °C 12,9 km/h (3 Bft)
08.03.2018 16:26 8,4 °C 42 % 1005,2 hPa 0,0 mm 6,1 km/h (2 Bft) W 263 ° 0 min 0,000 mm 0,7 UV-I 120 W/m² -3,8 °C 7,6 °C 9,7 km/h (2 Bft)
08.03.2018 16:27 8,3 °C 39 % 1005,2 hPa 0,0 mm 9,1 km/h (2 Bft) W-NW 287 ° 0 min 0,000 mm 0,7 UV-I 113 W/m² -4,8 °C 6,8 °C 12,9 km/h (3 Bft)
08.03.2018 16:28 8,3 °C 39 % 1005,3 hPa 0,0 mm 6,4 km/h (2 Bft) NW 307 ° 0 min 0,000 mm 0,7 UV-I 111 W/m² -4,8 °C 7,4 °C 9,7 km/h (2 Bft)
08.03.2018 16:29 8,3 °C 38 % 1005,3 hPa 0,0 mm 6,2 km/h (2 Bft) W-NW 293 ° 0 min 0,000 mm 0,7 UV-I 107 W/m² -5,2 °C 7,5 °C 11,3 km/h (2 Bft)
08.03.2018 16:30 8,3 °C 39 % 1005,3 hPa 0,0 mm 3,4 km/h (1 Bft) W 274 ° 0 min 0,000 mm 0,7 UV-I 104 W/m² -4,8 °C 8,3 °C 6,4 km/h (2 Bft)
08.03.2018 16:31 8,3 °C 40 % 1005,3 hPa 0,0 mm 3,2 km/h (1 Bft) W-NW 284 ° 0 min 0,000 mm 0,6 UV-I 102 W/m² -4,5 °C 8,3 °C 6,4 km/h (2 Bft)
08.03.2018 16:32 8,3 °C 40 % 1005,2 hPa 0,0 mm 0,3 km/h (0 Bft) W-NW 284 ° 0 min 0,000 mm 0,6 UV-I 100 W/m² -4,5 °C 8,3 °C 1,6 km/h (1 Bft)
08.03.2018 16:33 8,2 °C 41 % 1005,2 hPa 0,0 mm 0,5 km/h (0 Bft) W-NW 284 ° 0 min 0,000 mm 0,6 UV-I 100 W/m² -4,3 °C 8,2 °C 1,6 km/h (1 Bft)
08.03.2018 16:34 8,1 °C 39 % 1005,2 hPa 0,0 mm 0,1 km/h (0 Bft) W-NW 284 ° 0 min 0,000 mm 0,6 UV-I 104 W/m² -5,0 °C 8,1 °C 1,6 km/h (1 Bft)
08.03.2018 16:35 7,9 °C 43 % 1005,2 hPa 0,0 mm 1,0 km/h (0 Bft) W-NW 284 ° 0 min 0,000 mm 0,6 UV-I 107 W/m² -3,9 °C 7,9 °C 3,2 km/h (1 Bft)
08.03.2018 16:36 7,9 °C 43 % 1005,2 hPa 0,0 mm 2,5 km/h (1 Bft) W 276 ° 0 min 0,000 mm 0,6 UV-I 109 W/m² -3,9 °C 7,9 °C 4,8 km/h (1 Bft)
08.03.2018 16:37 7,9 °C 44 % 1005,2 hPa 0,0 mm 3,4 km/h (1 Bft) W 281 ° 0 min 0,000 mm 0,6 UV-I 105 W/m² -3,6 °C 7,9 °C 4,8 km/h (1 Bft)
08.03.2018 16:38 7,8 °C 41 % 1005,2 hPa 0,0 mm 5,6 km/h (1 Bft) W 271 ° 0 min 0,000 mm 0,6 UV-I 105 W/m² -4,6 °C 7,1 °C 6,4 km/h (2 Bft)
08.03.2018 16:39 7,9 °C 40 % 1005,2 hPa 0,0 mm 3,7 km/h (1 Bft) W-NW 283 ° 0 min 0,000 mm 0,6 UV-I 104 W/m² -4,8 °C 7,9 °C 4,8 km/h (1 Bft)
08.03.2018 16:40 7,9 °C 40 % 1005,2 hPa 0,0 mm 1,3 km/h (1 Bft) W-NW 283 ° 0 min 0,000 mm 0,6 UV-I 107 W/m² -4,8 °C 7,9 °C 4,8 km/h (1 Bft)
08.03.2018 16:41 8,1 °C 40 % 1005,2 hPa 0,0 mm 3,5 km/h (1 Bft) W-NW 290 ° 0 min 0,000 mm 0,6 UV-I 109 W/m² -4,7 °C 8,1 °C 6,4 km/h (2 Bft)
08.03.2018 16:42 8,1 °C 40 % 1005,2 hPa 0,0 mm 3,0 km/h (1 Bft) W-NW 292 ° 0 min 0,000 mm 0,6 UV-I 107 W/m² -4,7 °C 8,1 °C 4,8 km/h (1 Bft)
08.03.2018 16:43 8,0 °C 42 % 1005,2 hPa 0,0 mm 1,9 km/h (1 Bft) W-NW 292 ° 0 min 0,000 mm 0,6 UV-I 104 W/m² -4,1 °C 8,0 °C 3,2 km/h (1 Bft)
08.03.2018 16:44 8,0 °C 41 % 1005,2 hPa 0,0 mm 2,0 km/h (1 Bft) W-NW 292 ° 0 min 0,000 mm 0,6 UV-I 102 W/m² -4,4 °C 8,0 °C 4,8 km/h (1 Bft)
08.03.2018 16:45 7,9 °C 42 % 1005,2 hPa 0,0 mm 1,4 km/h (1 Bft) W-NW 292 ° 0 min 0,000 mm 0,5 UV-I 100 W/m² -4,2 °C 7,9 °C 3,2 km/h (1 Bft)
08.03.2018 16:46 8,0 °C 40 % 1005,1 hPa 0,0 mm 1,0 km/h (0 Bft) W-NW 292 ° 0 min 0,000 mm 0,5 UV-I 98 W/m² -4,8 °C 8,0 °C 1,6 km/h (1 Bft)
08.03.2018 16:47 8,0 °C 42 % 1005,1 hPa 0,0 mm 1,8 km/h (1 Bft) W-NW 292 ° 0 min 0,000 mm 0,5 UV-I 95 W/m² -4,1 °C 8,0 °C 3,2 km/h (1 Bft)
08.03.2018 16:48 7,9 °C 42 % 1005,1 hPa 0,0 mm 3,4 km/h (1 Bft) W-NW 295 ° 0 min 0,000 mm 0,5 UV-I 91 W/m² -4,2 °C 7,9 °C 4,8 km/h (1 Bft)
08.03.2018 16:49 7,9 °C 43 % 1005,1 hPa 0,0 mm 2,6 km/h (1 Bft) W-NW 295 ° 0 min 0,000 mm 0,5 UV-I 90 W/m² -3,9 °C 7,9 °C 4,8 km/h (1 Bft)
08.03.2018 16:50 7,8 °C 43 % 1005,1 hPa 0,0 mm 3,5 km/h (1 Bft) NW 306 ° 0 min 0,000 mm 0,5 UV-I 90 W/m² -4,0 °C 7,8 °C 6,4 km/h (2 Bft)
08.03.2018 16:51 7,8 °C 43 % 1005,0 hPa 0,0 mm 1,3 km/h (1 Bft) NW 306 ° 0 min 0,000 mm 0,5 UV-I 91 W/m² -4,0 °C 7,8 °C 3,2 km/h (1 Bft)
08.03.2018 16:52 7,8 °C 42 % 1005,1 hPa 0,0 mm 1,4 km/h (1 Bft) NW 306 ° 0 min 0,000 mm 0,5 UV-I 93 W/m² -4,3 °C 7,8 °C 3,2 km/h (1 Bft)
08.03.2018 16:53 7,8 °C 43 % 1005,1 hPa 0,0 mm 0,0 km/h (0 Bft) NW 306 ° 0 min 0,000 mm 0,5 UV-I 95 W/m² -4,0 °C 7,8 °C 0,0 km/h (0 Bft)
08.03.2018 16:54 7,7 °C 43 % 1005,1 hPa 0,0 mm 0,7 km/h (0 Bft) NW 306 ° 0 min 0,000 mm 0,5 UV-I 95 W/m² -4,1 °C 7,7 °C 3,2 km/h (1 Bft)
08.03.2018 16:55 7,8 °C 45 % 1005,1 hPa 0,0 mm 1,4 km/h (1 Bft) NW 306 ° 0 min 0,000 mm 0,5 UV-I 97 W/m² -3,4 °C 7,8 °C 3,2 km/h (1 Bft)
08.03.2018 16:56 7,7 °C 44 % 1005,1 hPa 0,0 mm 1,1 km/h (1 Bft) NW 306 ° 0 min 0,000 mm 0,5 UV-I 95 W/m² -3,8 °C 7,7 °C 1,6 km/h (1 Bft)
08.03.2018 16:57 7,8 °C 43 % 1005,1 hPa 0,0 mm 0,0 km/h (0 Bft) NW 306 ° 0 min 0,000 mm 0,5 UV-I 88 W/m² -4,0 °C 7,8 °C 0,0 km/h (0 Bft)
08.03.2018 16:58 7,8 °C 41 % 1005,1 hPa 0,0 mm 0,0 km/h (0 Bft) NW 306 ° 0 min 0,000 mm 0,0 UV-I 86 W/m² -4,6 °C 7,8 °C 0,0 km/h (0 Bft)
08.03.2018 16:59 7,9 °C 40 % 1005,1 hPa 0,0 mm 0,0 km/h (0 Bft) NW 306 ° 0 min 0,000 mm 0,0 UV-I 86 W/m² -4,8 °C 7,9 °C 0,0 km/h (0 Bft)
08.03.2018 17:00 7,9 °C 40 % 1005,1 hPa 0,0 mm 0,0 km/h (0 Bft) NW 306 ° 0 min 0,000 mm 0,0 UV-I 86 W/m² -4,8 °C 7,9 °C 0,0 km/h (0 Bft)
08.03.2018 17:01 8,0 °C 40 % 1005,1 hPa 0,0 mm 0,0 km/h (0 Bft) NW 306 ° 0 min 0,077 mm 0,0 UV-I 84 W/m² -4,8 °C 8,0 °C 0,0 km/h (0 Bft)
08.03.2018 17:02 8,1 °C 40 % 1005,1 hPa 0,0 mm 0,0 km/h (0 Bft) NW 306 ° 0 min 0,000 mm 0,0 UV-I 83 W/m² -4,7 °C 8,1 °C 0,0 km/h (0 Bft)
08.03.2018 17:03 8,1 °C 40 % 1005,2 hPa 0,0 mm 0,0 km/h (0 Bft) NW 306 ° 0 min 0,000 mm 0,0 UV-I 77 W/m² -4,7 °C 8,1 °C 0,0 km/h (0 Bft)
08.03.2018 17:04 8,0 °C 41 % 1005,1 hPa 0,0 mm 0,0 km/h (0 Bft) NW 306 ° 0 min 0,000 mm 0,0 UV-I 74 W/m² -4,4 °C 8,0 °C 0,0 km/h (0 Bft)
08.03.2018 17:05 8,0 °C 41 % 1005,2 hPa 0,0 mm 0,0 km/h (0 Bft) NW 306 ° 0 min 0,000 mm 0,0 UV-I 74 W/m² -4,4 °C 8,0 °C 0,0 km/h (0 Bft)
08.03.2018 17:06 7,9 °C 41 % 1005,2 hPa 0,0 mm 0,0 km/h (0 Bft) NW 306 ° 0 min 0,000 mm 0,0 UV-I 72 W/m² -4,5 °C 7,9 °C 0,0 km/h (0 Bft)
08.03.2018 17:07 7,9 °C 41 % 1005,2 hPa 0,0 mm 0,0 km/h (0 Bft) NW 306 ° 0 min 0,000 mm 0,0 UV-I 70 W/m² -4,5 °C 7,9 °C 0,0 km/h (0 Bft)
08.03.2018 17:08 7,9 °C 41 % 1005,1 hPa 0,0 mm 0,0 km/h (0 Bft) NW 306 ° 0 min 0,000 mm 0,0 UV-I 69 W/m² -4,5 °C 7,9 °C 0,0 km/h (0 Bft)
08.03.2018 17:09 7,8 °C 41 % 1005,1 hPa 0,0 mm 0,0 km/h (0 Bft) NW 306 ° 0 min 0,000 mm 0,0 UV-I 60 W/m² -4,6 °C 7,8 °C 0,0 km/h (0 Bft)
08.03.2018 17:10 7,8 °C 41 % 1005,1 hPa 0,0 mm 0,0 km/h (0 Bft) NW 306 ° 0 min 0,000 mm 0,0 UV-I 56 W/m² -4,6 °C 7,8 °C 0,0 km/h (0 Bft)
08.03.2018 17:11 7,8 °C 42 % 1005,2 hPa 0,0 mm 0,0 km/h (0 Bft) NW 306 ° 0 min 0,000 mm 0,0 UV-I 54 W/m² -4,3 °C 7,8 °C 0,0 km/h (0 Bft)
08.03.2018 17:12 7,8 °C 41 % 1005,2 hPa 0,0 mm 0,0 km/h (0 Bft) NW 306 ° 0 min 0,000 mm 0,0 UV-I 53 W/m² -4,6 °C 7,8 °C 0,0 km/h (0 Bft)
08.03.2018 17:13 7,8 °C 42 % 1005,2 hPa 0,0 mm 0,0 km/h (0 Bft) NW 306 ° 0 min 0,000 mm 0,0 UV-I 53 W/m² -4,3 °C 7,8 °C 0,0 km/h (0 Bft)
08.03.2018 17:14 7,7 °C 43 % 1005,2 hPa 0,0 mm 1,2 km/h (1 Bft) NW 306 ° 0 min 0,000 mm 0,0 UV-I 53 W/m² -4,1 °C 7,7 °C 3,2 km/h (1 Bft)
08.03.2018 17:15 7,6 °C 46 % 1005,2 hPa 0,0 mm 2,0 km/h (1 Bft) NW 306 ° 0 min 0,000 mm 0,0 UV-I 53 W/m² -3,3 °C 7,6 °C 3,2 km/h (1 Bft)
08.03.2018 17:16 7,6 °C 46 % 1005,2 hPa 0,0 mm 0,5 km/h (0 Bft) NW 306 ° 0 min 0,000 mm 0,0 UV-I 53 W/m² -3,3 °C 7,6 °C 1,6 km/h (1 Bft)
08.03.2018 17:17 7,5 °C 43 % 1005,2 hPa 0,0 mm 0,0 km/h (0 Bft) NW 306 ° 0 min 0,000 mm 0,0 UV-I 51 W/m² -4,3 °C 7,5 °C 0,0 km/h (0 Bft)
08.03.2018 17:18 7,6 °C 43 % 1005,3 hPa 0,0 mm 0,0 km/h (0 Bft) NW 306 ° 0 min 0,000 mm 0,0 UV-I 49 W/m² -4,2 °C 7,6 °C 0,0 km/h (0 Bft)
08.03.2018 17:19 7,5 °C 45 % 1005,3 hPa 0,0 mm 0,0 km/h (0 Bft) NW 306 ° 0 min 0,000 mm 0,0 UV-I 47 W/m² -3,6 °C 7,5 °C 0,0 km/h (0 Bft)
08.03.2018 17:20 7,4 °C 45 % 1005,3 hPa 0,0 mm 0,8 km/h (0 Bft) NW 306 ° 0 min 0,000 mm 0,0 UV-I 42 W/m² -3,7 °C 7,4 °C 3,2 km/h (1 Bft)
08.03.2018 17:21 7,4 °C 44 % 1005,3 hPa 0,0 mm 1,2 km/h (1 Bft) NW 306 ° 0 min 0,000 mm 0,0 UV-I 42 W/m² -4,0 °C 7,4 °C 3,2 km/h (1 Bft)
08.03.2018 17:22 7,4 °C 47 % 1005,3 hPa 0,0 mm 0,5 km/h (0 Bft) NW 306 ° 0 min 0,000 mm 0,0 UV-I 40 W/m² -3,2 °C 7,4 °C 1,6 km/h (1 Bft)
08.03.2018 17:23 7,3 °C 46 % 1005,3 hPa 0,0 mm 0,0 km/h (0 Bft) NW 306 ° 0 min 0,000 mm 0,0 UV-I 40 W/m² -3,5 °C 7,3 °C 0,0 km/h (0 Bft)
08.03.2018 17:24 7,3 °C 44 % 1005,3 hPa 0,0 mm 0,0 km/h (0 Bft) NW 306 ° 0 min 0,000 mm 0,0 UV-I 40 W/m² -4,1 °C 7,3 °C 0,0 km/h (0 Bft)
08.03.2018 17:25 7,3 °C 45 % 1005,3 hPa 0,0 mm 0,5 km/h (0 Bft) NW 306 ° 0 min 0,000 mm 0,0 UV-I 40 W/m² -3,8 °C 7,3 °C 1,6 km/h (1 Bft)
08.03.2018 17:26 7,2 °C 46 % 1005,3 hPa 0,0 mm 2,9 km/h (1 Bft) NW 306 ° 0 min 0,000 mm 0,0 UV-I 40 W/m² -3,6 °C 7,2 °C 3,2 km/h (1 Bft)
08.03.2018 17:27 7,2 °C 47 % 1005,3 hPa 0,0 mm 3,4 km/h (1 Bft) NW 306 ° 0 min 0,000 mm 0,0 UV-I 39 W/m² -3,3 °C 7,2 °C 4,8 km/h (1 Bft)
08.03.2018 17:28 7,1 °C 47 % 1005,3 hPa 0,0 mm 1,1 km/h (1 Bft) NW 306 ° 0 min 0,000 mm 0,0 UV-I 37 W/m² -3,4 °C 7,1 °C 3,2 km/h (1 Bft)
08.03.2018 17:29 7,1 °C 43 % 1005,3 hPa 0,0 mm 0,0 km/h (0 Bft) NW 306 ° 0 min 0,000 mm 0,0 UV-I 35 W/m² -4,6 °C 7,1 °C 0,0 km/h (0 Bft)
08.03.2018 17:30 7,2 °C 44 % 1005,3 hPa 0,0 mm 0,0 km/h (0 Bft) NW 306 ° 0 min 0,000 mm 0,0 UV-I 33 W/m² -4,2 °C 7,2 °C 0,0 km/h (0 Bft)
08.03.2018 17:31 7,2 °C 43 % 1005,3 hPa 0,0 mm 0,0 km/h (0 Bft) NW 306 ° 0 min 0,000 mm 0,0 UV-I 32 W/m² -4,5 °C 7,2 °C 0,0 km/h (0 Bft)
08.03.2018 17:32 7,2 °C 45 % 1005,3 hPa 0,0 mm 0,0 km/h (0 Bft) NW 306 ° 0 min 0,000 mm 0,0 UV-I 30 W/m² -3,9 °C 7,2 °C 0,0 km/h (0 Bft)
08.03.2018 17:33 7,2 °C 44 % 1005,4 hPa 0,0 mm 0,0 km/h (0 Bft) NW 306 ° 0 min 0,000 mm 0,0 UV-I 30 W/m² -4,2 °C 7,2 °C 0,0 km/h (0 Bft)
08.03.2018 17:34 7,2 °C 44 % 1005,4 hPa 0,0 mm 1,7 km/h (1 Bft) NW 306 ° 0 min 0,000 mm 0,0 UV-I 28 W/m² -4,2 °C 7,2 °C 3,2 km/h (1 Bft)
08.03.2018 17:35 7,2 °C 43 % 1005,4 hPa 0,0 mm 0,5 km/h (0 Bft) NW 306 ° 0 min 0,000 mm 0,0 UV-I 28 W/m² -4,5 °C 7,2 °C 1,6 km/h (1 Bft)
08.03.2018 17:36 7,2 °C 43 % 1005,5 hPa 0,0 mm 0,0 km/h (0 Bft) NW 306 ° 0 min 0,000 mm 0,0 UV-I 26 W/m² -4,5 °C 7,2 °C 0,0 km/h (0 Bft)
08.03.2018 17:37 7,2 °C 43 % 1005,4 hPa 0,0 mm 0,0 km/h (0 Bft) NW 306 ° 0 min 0,000 mm 0,0 UV-I 26 W/m² -4,5 °C 7,2 °C 0,0 km/h (0 Bft)
08.03.2018 17:38 7,2 °C 43 % 1005,4 hPa 0,0 mm 0,0 km/h (0 Bft) NW 306 ° 0 min 0,000 mm 0,0 UV-I 28 W/m² -4,5 °C 7,2 °C 0,0 km/h (0 Bft)
08.03.2018 17:39 7,2 °C 43 % 1005,4 hPa 0,0 mm 1,1 km/h (1 Bft) NW 306 ° 0 min 0,000 mm 0,0 UV-I 26 W/m² -4,5 °C 7,2 °C 3,2 km/h (1 Bft)
08.03.2018 17:40 7,2 °C 43 % 1005,3 hPa 0,0 mm 1,5 km/h (1 Bft) NW 306 ° 0 min 0,000 mm 0,0 UV-I 26 W/m² -4,5 °C 7,2 °C 3,2 km/h (1 Bft)
08.03.2018 17:41 7,1 °C 44 % 1005,4 hPa 0,0 mm 1,9 km/h (1 Bft) NW 306 ° 0 min 0,000 mm 0,0 UV-I 25 W/m² -4,3 °C 7,1 °C 3,2 km/h (1 Bft)
08.03.2018 17:42 7,1 °C 43 % 1005,3 hPa 0,0 mm 1,0 km/h (0 Bft) NW 306 ° 0 min 0,000 mm 0,0 UV-I 25 W/m² -4,6 °C 7,1 °C 1,6 km/h (1 Bft)
08.03.2018 17:43 7,1 °C 43 % 1005,4 hPa 0,0 mm 0,0 km/h (0 Bft) NW 306 ° 0 min 0,000 mm 0,0 UV-I 23 W/m² -4,6 °C 7,1 °C 0,0 km/h (0 Bft)
08.03.2018 17:44 7,1 °C 44 % 1005,4 hPa 0,0 mm 0,5 km/h (0 Bft) NW 306 ° 0 min 0,000 mm 0,0 UV-I 21 W/m² -4,3 °C 7,1 °C 1,6 km/h (1 Bft)
08.03.2018 17:45 7,0 °C 44 % 1005,4 hPa 0,0 mm 1,9 km/h (1 Bft) NW 306 ° 0 min 0,000 mm 0,0 UV-I 19 W/m² -4,4 °C 7,0 °C 3,2 km/h (1 Bft)
08.03.2018 17:46 6,9 °C 44 % 1005,4 hPa 0,0 mm 0,9 km/h (0 Bft) NW 306 ° 0 min 0,000 mm 0,0 UV-I 18 W/m² -4,5 °C 6,9 °C 1,6 km/h (1 Bft)
08.03.2018 17:47 6,9 °C 45 % 1005,4 hPa 0,0 mm 2,2 km/h (1 Bft) NW 306 ° 0 min 0,000 mm 0,0 UV-I 16 W/m² -4,2 °C 6,9 °C 3,2 km/h (1 Bft)
08.03.2018 17:48 6,9 °C 45 % 1005,4 hPa 0,0 mm 2,4 km/h (1 Bft) NW 306 ° 0 min 0,000 mm 0,0 UV-I 16 W/m² -4,2 °C 6,9 °C 3,2 km/h (1 Bft)
08.03.2018 17:49 6,8 °C 46 % 1005,4 hPa 0,0 mm 1,5 km/h (1 Bft) NW 306 ° 0 min 0,000 mm 0,0 UV-I 14 W/m² -4,0 °C 6,8 °C 3,2 km/h (1 Bft)
08.03.2018 17:50 6,7 °C 45 % 1005,3 hPa 0,0 mm 0,5 km/h (0 Bft) NW 306 ° 0 min 0,000 mm 0,0 UV-I 12 W/m² -4,4 °C 6,7 °C 1,6 km/h (1 Bft)
08.03.2018 17:51 6,7 °C 45 % 1005,4 hPa 0,0 mm 0,7 km/h (0 Bft) NW 306 ° 0 min 0,000 mm 0,0 UV-I 12 W/m² -4,4 °C 6,7 °C 1,6 km/h (1 Bft)
08.03.2018 17:52 6,7 °C 44 % 1005,4 hPa 0,0 mm 1,3 km/h (1 Bft) NW 306 ° 0 min 0,000 mm 0,0 UV-I 11 W/m² -4,7 °C 6,7 °C 3,2 km/h (1 Bft)
08.03.2018 17:53 6,7 °C 44 % 1005,4 hPa 0,0 mm 1,0 km/h (0 Bft) NW 306 ° 0 min 0,000 mm 0,0 UV-I 11 W/m² -4,7 °C 6,7 °C 1,6 km/h (1 Bft)
08.03.2018 17:54 6,7 °C 44 % 1005,4 hPa 0,0 mm 1,6 km/h (1 Bft) NW 306 ° 0 min 0,000 mm 0,0 UV-I 9 W/m² -4,7 °C 6,7 °C 3,2 km/h (1 Bft)
08.03.2018 17:55 6,6 °C 44 % 1005,4 hPa 0,0 mm 0,6 km/h (0 Bft) NW 306 ° 0 min 0,000 mm 0,0 UV-I 9 W/m² -4,8 °C 6,6 °C 1,6 km/h (1 Bft)
08.03.2018 17:56 6,6 °C 44 % 1005,4 hPa 0,0 mm 2,0 km/h (1 Bft) NW 306 ° 0 min 0,000 mm 0,0 UV-I 9 W/m² -4,8 °C 6,6 °C 3,2 km/h (1 Bft)
08.03.2018 17:57 6,6 °C 44 % 1005,4 hPa 0,0 mm 2,3 km/h (1 Bft) NW 306 ° 0 min 0,000 mm 0,0 UV-I 7 W/m² -4,8 °C 6,6 °C 3,2 km/h (1 Bft)
08.03.2018 17:58 6,6 °C 44 % 1005,4 hPa 0,0 mm 2,4 km/h (1 Bft) NW 306 ° 0 min 0,000 mm 0,0 UV-I 7 W/m² -4,8 °C 6,6 °C 3,2 km/h (1 Bft)
08.03.2018 17:59 6,6 °C 44 % 1005,4 hPa 0,0 mm 2,7 km/h (1 Bft) NW 306 ° 0 min 0,000 mm 0,0 UV-I 7 W/m² -4,8 °C 6,6 °C 3,2 km/h (1 Bft)
08.03.2018 18:00 6,6 °C 43 % 1005,4 hPa 0,0 mm 2,7 km/h (1 Bft) NW 306 ° 0 min 0,000 mm 0,0 UV-I 7 W/m² -5,1 °C 6,6 °C 3,2 km/h (1 Bft)
08.03.2018 18:01 6,6 °C 44 % 1005,4 hPa 0,0 mm 2,2 km/h (1 Bft) NW 306 ° 0 min 0,025 mm 0,0 UV-I 7 W/m² -4,8 °C 6,6 °C 3,2 km/h (1 Bft)
08.03.2018 18:02 6,5 °C 45 % 1005,4 hPa 0,0 mm 0,7 km/h (0 Bft) NW 306 ° 0 min 0,000 mm 0,0 UV-I 5 W/m² -4,6 °C 6,5 °C 1,6 km/h (1 Bft)
08.03.2018 18:03 6,4 °C 47 % 1005,4 hPa 0,0 mm 1,8 km/h (1 Bft) NW 304 ° 0 min 0,000 mm 0,0 UV-I 5 W/m² -4,1 °C 6,4 °C 3,2 km/h (1 Bft)
08.03.2018 18:04 6,3 °C 48 % 1005,4 hPa 0,0 mm 1,6 km/h (1 Bft) W-SW 240 ° 0 min 0,000 mm 0,0 UV-I 5 W/m² -3,9 °C 6,3 °C 1,6 km/h (1 Bft)
08.03.2018 18:05 6,2 °C 48 % 1005,4 hPa 0,0 mm 1,3 km/h (1 Bft) W-SW 239 ° 0 min 0,000 mm 0,0 UV-I 5 W/m² -4,0 °C 6,2 °C 1,6 km/h (1 Bft)
08.03.2018 18:06 6,1 °C 47 % 1005,4 hPa 0,0 mm 0,0 km/h (0 Bft) W-SW 239 ° 0 min 0,000 mm 0,0 UV-I 0 W/m² -4,3 °C 6,1 °C 0,0 km/h (0 Bft)
08.03.2018 18:07 6,1 °C 48 % 1005,4 hPa 0,0 mm 1,4 km/h (1 Bft) W-SW 239 ° 0 min 0,000 mm 0,0 UV-I 0 W/m² -4,1 °C 6,1 °C 3,2 km/h (1 Bft)
08.03.2018 18:08 5,9 °C 48 % 1005,4 hPa 0,0 mm 2,5 km/h (1 Bft) W-SW 239 ° 0 min 0,000 mm 0,0 UV-I 0 W/m² -4,3 °C 5,9 °C 3,2 km/h (1 Bft)
08.03.2018 18:09 5,9 °C 48 % 1005,5 hPa 0,0 mm 0,2 km/h (0 Bft) W-SW 239 ° 0 min 0,000 mm 0,0 UV-I 0 W/m² -4,3 °C 5,9 °C 1,6 km/h (1 Bft)
08.03.2018 18:10 5,9 °C 48 % 1005,4 hPa 0,0 mm 3,2 km/h (1 Bft) W-SW 238 ° 0 min 0,000 mm 0,0 UV-I 0 W/m² -4,3 °C 5,9 °C 4,8 km/h (1 Bft)
08.03.2018 18:11 5,9 °C 48 % 1005,4 hPa 0,0 mm 2,8 km/h (1 Bft) SW 236 ° 0 min 0,000 mm 0,0 UV-I 0 W/m² -4,3 °C 5,9 °C 3,2 km/h (1 Bft)
08.03.2018 18:12 5,9 °C 48 % 1005,5 hPa 0,0 mm 2,1 km/h (1 Bft) SW 236 ° 0 min 0,000 mm 0,0 UV-I 0 W/m² -4,3 °C 5,9 °C 3,2 km/h (1 Bft)
08.03.2018 18:13 5,9 °C 48 % 1005,4 hPa 0,0 mm 2,3 km/h (1 Bft) SW 236 ° 0 min 0,000 mm 0,0 UV-I 0 W/m² -4,3 °C 5,9 °C 3,2 km/h (1 Bft)
08.03.2018 18:14 5,8 °C 48 % 1005,5 hPa 0,0 mm 0,0 km/h (0 Bft) SW 236 ° 0 min 0,000 mm 0,0 UV-I 0 W/m² -4,3 °C 5,8 °C 0,0 km/h (0 Bft)
08.03.2018 18:15 5,8 °C 48 % 1005,5 hPa 0,0 mm 0,7 km/h (0 Bft) SW 236 ° 0 min 0,000 mm 0,0 UV-I 0 W/m² -4,3 °C 5,8 °C 3,2 km/h (1 Bft)
08.03.2018 18:16 5,9 °C 47 % 1005,5 hPa 0,0 mm 3,5 km/h (1 Bft) SW 236 ° 0 min 0,000 mm 0,0 UV-I 0 W/m² -4,5 °C 5,9 °C 4,8 km/h (1 Bft)
08.03.2018 18:17 5,8 °C 47 % 1005,5 hPa 0,0 mm 2,5 km/h (1 Bft) SW 236 ° 0 min 0,000 mm 0,0 UV-I 0 W/m² -4,6 °C 5,8 °C 3,2 km/h (1 Bft)
08.03.2018 18:18 5,8 °C 48 % 1005,5 hPa 0,0 mm 1,7 km/h (1 Bft) SW 236 ° 0 min 0,000 mm 0,0 UV-I 0 W/m² -4,3 °C 5,8 °C 3,2 km/h (1 Bft)
08.03.2018 18:19 5,8 °C 48 % 1005,6 hPa 0,0 mm 1,0 km/h (0 Bft) SW 236 ° 0 min 0,000 mm 0,0 UV-I 0 W/m² -4,3 °C 5,8 °C 1,6 km/h (1 Bft)
08.03.2018 18:20 5,8 °C 48 % 1005,5 hPa 0,0 mm 1,3 km/h (1 Bft) SW 236 ° 0 min 0,000 mm 0,0 UV-I 0 W/m² -4,3 °C 5,8 °C 1,6 km/h (1 Bft)
08.03.2018 18:21 5,8 °C 49 % 1005,6 hPa 0,0 mm 0,3 km/h (0 Bft) SW 236 ° 0 min 0,000 mm 0,0 UV-I 0 W/m² -4,1 °C 5,8 °C 1,6 km/h (1 Bft)
08.03.2018 18:22 5,8 °C 49 % 1005,6 hPa 0,0 mm 1,4 km/h (1 Bft) SW 236 ° 0 min 0,000 mm 0,0 UV-I 0 W/m² -4,1 °C 5,8 °C 3,2 km/h (1 Bft)
08.03.2018 18:23 5,8 °C 49 % 1005,6 hPa 0,0 mm 0,5 km/h (0 Bft) SW 236 ° 0 min 0,000 mm 0,0 UV-I 0 W/m² -4,1 °C 5,8 °C 1,6 km/h (1 Bft)
08.03.2018 18:24 5,8 °C 49 % 1005,6 hPa 0,0 mm 1,0 km/h (0 Bft) SW 236 ° 0 min 0,000 mm 0,0 UV-I 0 W/m² -4,1 °C 5,8 °C 3,2 km/h (1 Bft)
08.03.2018 18:25 5,7 °C 50 % 1005,5 hPa 0,0 mm 0,4 km/h (0 Bft) SW 236 ° 0 min 0,000 mm 0,0 UV-I 0 W/m² -3,9 °C 5,7 °C 1,6 km/h (1 Bft)
08.03.2018 18:26 5,7 °C 50 % 1005,5 hPa 0,0 mm 0,9 km/h (0 Bft) SW 236 ° 0 min 0,000 mm 0,0 UV-I 0 W/m² -3,9 °C 5,7 °C 3,2 km/h (1 Bft)
08.03.2018 18:27 5,6 °C 50 % 1005,6 hPa 0,0 mm 0,9 km/h (0 Bft) SW 236 ° 0 min 0,000 mm 0,0 UV-I 0 W/m² -4,0 °C 5,6 °C 3,2 km/h (1 Bft)
08.03.2018 18:28 5,6 °C 50 % 1005,6 hPa 0,0 mm 0,3 km/h (0 Bft) SW 236 ° 0 min 0,000 mm 0,0 UV-I 0 W/m² -4,0 °C 5,6 °C 1,6 km/h (1 Bft)
08.03.2018 18:29 5,5 °C 51 % 1005,6 hPa 0,0 mm 0,0 km/h (0 Bft) SW 236 ° 0 min 0,000 mm 0,0 UV-I 0 W/m² -3,8 °C 5,5 °C 0,0 km/h (0 Bft)
08.03.2018 18:30 5,4 °C 51 % 1005,6 hPa 0,0 mm 0,0 km/h (0 Bft) SW 236 ° 0 min 0,000 mm 0,0 UV-I 0 W/m² -3,9 °C 5,4 °C 0,0 km/h (0 Bft)
08.03.2018 18:31 5,3 °C 53 % 1005,6 hPa 0,0 mm 0,0 km/h (0 Bft) SW 236 ° 0 min 0,000 mm 0,0 UV-I 0 W/m² -3,5 °C 5,3 °C 0,0 km/h (0 Bft)
08.03.2018 18:32 5,3 °C 52 % 1005,7 hPa 0,0 mm 0,0 km/h (0 Bft) SW 236 ° 0 min 0,000 mm 0,0 UV-I 0 W/m² -3,7 °C 5,3 °C 0,0 km/h (0 Bft)
08.03.2018 18:33 5,2 °C 52 % 1005,6 hPa 0,0 mm 0,0 km/h (0 Bft) SW 236 ° 0 min 0,000 mm 0,0 UV-I 0 W/m² -3,8 °C 5,2 °C 0,0 km/h (0 Bft)
08.03.2018 18:34 4,8 °C 59 % 1005,6 hPa 0,0 mm 0,0 km/h (0 Bft) SW 236 ° 0 min 0,000 mm 0,0 UV-I 0 W/m² -2,5 °C 4,8 °C 0,0 km/h (0 Bft)
08.03.2018 18:35 4,5 °C 61 % 1005,6 hPa 0,0 mm 0,0 km/h (0 Bft) SW 236 ° 0 min 0,000 mm 0,0 UV-I 0 W/m² -2,4 °C 4,5 °C 0,0 km/h (0 Bft)
08.03.2018 18:36 4,3 °C 62 % 1005,6 hPa 0,0 mm 0,0 km/h (0 Bft) SW 236 ° 0 min 0,000 mm 0,0 UV-I 0 W/m² -2,3 °C 4,3 °C 0,0 km/h (0 Bft)
08.03.2018 18:37 4,1 °C 62 % 1005,7 hPa 0,0 mm 0,0 km/h (0 Bft) SW 236 ° 0 min 0,000 mm 0,0 UV-I 0 W/m² -2,5 °C 4,1 °C 0,0 km/h (0 Bft)
08.03.2018 18:38 3,9 °C 63 % 1005,6 hPa 0,0 mm 0,0 km/h (0 Bft) SW 236 ° 0 min 0,000 mm 0,0 UV-I 0 W/m² -2,5 °C 3,9 °C 0,0 km/h (0 Bft)
08.03.2018 18:39 3,7 °C 64 % 1005,7 hPa 0,0 mm 0,0 km/h (0 Bft) SW 236 ° 0 min 0,000 mm 0,0 UV-I 0 W/m² -2,5 °C 3,7 °C 0,0 km/h (0 Bft)
08.03.2018 18:40 3,6 °C 66 % 1005,8 hPa 0,0 mm 0,0 km/h (0 Bft) SW 236 ° 0 min 0,000 mm 0,0 UV-I 0 W/m² -2,1 °C 3,6 °C 0,0 km/h (0 Bft)
08.03.2018 18:41 3,3 °C 67 % 1005,7 hPa 0,0 mm 0,0 km/h (0 Bft) SW 236 ° 0 min 0,000 mm 0,0 UV-I 0 W/m² -2,2 °C 3,3 °C 0,0 km/h (0 Bft)
08.03.2018 18:42 3,3 °C 67 % 1005,7 hPa 0,0 mm 0,0 km/h (0 Bft) SW 236 ° 0 min 0,000 mm 0,0 UV-I 0 W/m² -2,2 °C 3,3 °C 0,0 km/h (0 Bft)
08.03.2018 18:43 3,2 °C 67 % 1005,8 hPa 0,0 mm 0,0 km/h (0 Bft) SW 236 ° 0 min 0,000 mm 0,0 UV-I 0 W/m² -2,3 °C 3,2 °C 0,0 km/h (0 Bft)
08.03.2018 18:44 3,2 °C 66 % 1005,8 hPa 0,0 mm 0,0 km/h (0 Bft) SW 236 ° 0 min 0,000 mm 0,0 UV-I 0 W/m² -2,5 °C 3,2 °C 0,0 km/h (0 Bft)
08.03.2018 18:45 3,3 °C 65 % 1005,8 hPa 0,0 mm 0,0 km/h (0 Bft) SW 236 ° 0 min 0,000 mm 0,0 UV-I 0 W/m² -2,6 °C 3,3 °C 0,0 km/h (0 Bft)
08.03.2018 18:46 3,4 °C 62 % 1005,8 hPa 0,0 mm 0,0 km/h (0 Bft) SW 236 ° 0 min 0,000 mm 0,0 UV-I 0 W/m² -3,2 °C 3,4 °C 0,0 km/h (0 Bft)
08.03.2018 18:47 3,6 °C 61 % 1005,8 hPa 0,0 mm 0,0 km/h (0 Bft) SW 236 ° 0 min 0,000 mm 0,0 UV-I 0 W/m² -3,2 °C 3,6 °C 0,0 km/h (0 Bft)
08.03.2018 18:48 3,6 °C 60 % 1005,8 hPa 0,0 mm 0,0 km/h (0 Bft) SW 236 ° 0 min 0,000 mm 0,0 UV-I 0 W/m² -3,4 °C 3,6 °C 0,0 km/h (0 Bft)
08.03.2018 18:49 3,7 °C 60 % 1005,9 hPa 0,0 mm 0,0 km/h (0 Bft) SW 236 ° 0 min 0,000 mm 0,0 UV-I 0 W/m² -3,3 °C 3,7 °C 0,0 km/h (0 Bft)
08.03.2018 18:50 3,8 °C 60 % 1005,9 hPa 0,0 mm 1,7 km/h (1 Bft) SW 236 ° 0 min 0,000 mm 0,0 UV-I 0 W/m² -3,2 °C 3,8 °C 3,2 km/h (1 Bft)
08.03.2018 18:51 3,9 °C 59 % 1005,9 hPa 0,0 mm 2,1 km/h (1 Bft) SW 236 ° 0 min 0,000 mm 0,0 UV-I 0 W/m² -3,4 °C 3,9 °C 3,2 km/h (1 Bft)
08.03.2018 18:52 3,9 °C 58 % 1005,9 hPa 0,0 mm 2,7 km/h (1 Bft) SW 236 ° 0 min 0,000 mm 0,0 UV-I 0 W/m² -3,6 °C 3,9 °C 4,8 km/h (1 Bft)
08.03.2018 18:53 3,9 °C 58 % 1005,9 hPa 0,0 mm 2,3 km/h (1 Bft) SW 236 ° 0 min 0,000 mm 0,0 UV-I 0 W/m² -3,6 °C 3,9 °C 4,8 km/h (1 Bft)
08.03.2018 18:54 4,0 °C 58 % 1005,9 hPa 0,0 mm 1,0 km/h (0 Bft) SW 236 ° 0 min 0,000 mm 0,0 UV-I 0 W/m² -3,5 °C 4,0 °C 3,2 km/h (1 Bft)
08.03.2018 18:55 4,0 °C 58 % 1005,9 hPa 0,0 mm 1,6 km/h (1 Bft) SW 236 ° 0 min 0,000 mm 0,0 UV-I 0 W/m² -3,5 °C 4,0 °C 3,2 km/h (1 Bft)
08.03.2018 18:56 4,0 °C 58 % 1005,9 hPa 0,0 mm 2,1 km/h (1 Bft) SW 236 ° 0 min 0,000 mm 0,0 UV-I 0 W/m² -3,5 °C 4,0 °C 3,2 km/h (1 Bft)
08.03.2018 18:57 4,1 °C 58 % 1006,0 hPa 0,0 mm 2,1 km/h (1 Bft) SW 236 ° 0 min 0,000 mm 0,0 UV-I 0 W/m² -3,4 °C 4,1 °C 3,2 km/h (1 Bft)
08.03.2018 18:58 4,1 °C 57 % 1006,0 hPa 0,0 mm 2,2 km/h (1 Bft) SW 236 ° 0 min 0,000 mm 0,0 UV-I 0 W/m² -3,6 °C 4,1 °C 3,2 km/h (1 Bft)
08.03.2018 18:59 4,1 °C 57 % 1006,1 hPa 0,0 mm 1,2 km/h (1 Bft) SW 236 ° 0 min 0,000 mm 0,0 UV-I 0 W/m² -3,6 °C 4,1 °C 3,2 km/h (1 Bft)
08.03.2018 19:00 4,1 °C 58 % 1006,0 hPa 0,0 mm 0,5 km/h (0 Bft) SW 236 ° 0 min 0,000 mm 0,0 UV-I 0 W/m² -3,4 °C 4,1 °C 1,6 km/h (1 Bft)
08.03.2018 19:01 4,1 °C 58 % 1006,0 hPa 0,0 mm 0,1 km/h (0 Bft) SW 236 ° 0 min 0,000 mm 0,0 UV-I 0 W/m² -3,4 °C 4,1 °C 1,6 km/h (1 Bft)
08.03.2018 19:02 3,8 °C 61 % 1006,1 hPa 0,0 mm 0,0 km/h (0 Bft) SW 236 ° 0 min 0,000 mm 0,0 UV-I 0 W/m² -3,0 °C 3,8 °C 0,0 km/h (0 Bft)
08.03.2018 19:03 3,6 °C 65 % 1006,1 hPa 0,0 mm 0,0 km/h (0 Bft) SW 236 ° 0 min 0,000 mm 0,0 UV-I 0 W/m² -2,4 °C 3,6 °C 0,0 km/h (0 Bft)
08.03.2018 19:04 3,3 °C 66 % 1006,1 hPa 0,0 mm 0,0 km/h (0 Bft) SW 236 ° 0 min 0,000 mm 0,0 UV-I 0 W/m² -2,4 °C 3,3 °C 0,0 km/h (0 Bft)
08.03.2018 19:05 3,1 °C 66 % 1006,1 hPa 0,0 mm 0,0 km/h (0 Bft) SW 236 ° 0 min 0,000 mm 0,0 UV-I 0 W/m² -2,6 °C 3,1 °C 0,0 km/h (0 Bft)
08.03.2018 19:06 2,9 °C 66 % 1006,1 hPa 0,0 mm 0,0 km/h (0 Bft) SW 236 ° 0 min 0,000 mm 0,0 UV-I 0 W/m² -2,8 °C 2,9 °C 0,0 km/h (0 Bft)
08.03.2018 19:07 3,0 °C 64 % 1006,1 hPa 0,0 mm 0,7 km/h (0 Bft) SW 236 ° 0 min 0,000 mm 0,0 UV-I 0 W/m² -3,1 °C 3,0 °C 1,6 km/h (1 Bft)
08.03.2018 19:08 3,1 °C 63 % 1006,1 hPa 0,0 mm 0,0 km/h (0 Bft) SW 236 ° 0 min 0,000 mm 0,0 UV-I 0 W/m² -3,2 °C 3,1 °C 0,0 km/h (0 Bft)
08.03.2018 19:09 3,2 °C 62 % 1006,1 hPa 0,0 mm 0,8 km/h (0 Bft) SW 236 ° 0 min 0,000 mm 0,0 UV-I 0 W/m² -3,4 °C 3,2 °C 1,6 km/h (1 Bft)
08.03.2018 19:10 3,3 °C 62 % 1006,1 hPa 0,0 mm 0,0 km/h (0 Bft) SW 236 ° 0 min 0,000 mm 0,0 UV-I 0 W/m² -3,3 °C 3,3 °C 0,0 km/h (0 Bft)
08.03.2018 19:11 3,4 °C 61 % 1006,2 hPa 0,0 mm 0,0 km/h (0 Bft) SW 236 ° 0 min 0,000 mm 0,0 UV-I 0 W/m² -3,4 °C 3,4 °C 0,0 km/h (0 Bft)
08.03.2018 19:12 3,3 °C 64 % 1006,2 hPa 0,0 mm 0,0 km/h (0 Bft) SW 236 ° 0 min 0,000 mm 0,0 UV-I 0 W/m² -2,8 °C 3,3 °C 0,0 km/h (0 Bft)
08.03.2018 19:13 3,1 °C 67 % 1006,2 hPa 0,0 mm 0,0 km/h (0 Bft) SW 236 ° 0 min 0,000 mm 0,0 UV-I 0 W/m² -2,4 °C 3,1 °C 0,0 km/h (0 Bft)
08.03.2018 19:14 2,9 °C 67 % 1006,2 hPa 0,0 mm 0,0 km/h (0 Bft) SW 236 ° 0 min 0,000 mm 0,0 UV-I 0 W/m² -2,6 °C 2,9 °C 0,0 km/h (0 Bft)
08.03.2018 19:15 2,8 °C 68 % 1006,2 hPa 0,0 mm 0,0 km/h (0 Bft) SW 236 ° 0 min 0,000 mm 0,0 UV-I 0 W/m² -2,5 °C 2,8 °C 0,0 km/h (0 Bft)
08.03.2018 19:16 2,7 °C 69 % 1006,2 hPa 0,0 mm 0,0 km/h (0 Bft) SW 236 ° 0 min 0,000 mm 0,0 UV-I 0 W/m² -2,4 °C 2,7 °C 0,0 km/h (0 Bft)
08.03.2018 19:17 2,7 °C 69 % 1006,3 hPa 0,0 mm 0,0 km/h (0 Bft) SW 236 ° 0 min 0,000 mm 0,0 UV-I 0 W/m² -2,4 °C 2,7 °C 0,0 km/h (0 Bft)
08.03.2018 19:18 2,6 °C 68 % 1006,3 hPa 0,0 mm 0,0 km/h (0 Bft) SW 236 ° 0 min 0,000 mm 0,0 UV-I 0 W/m² -2,7 °C 2,6 °C 0,0 km/h (0 Bft)
08.03.2018 19:19 2,7 °C 68 % 1006,3 hPa 0,0 mm 0,0 km/h (0 Bft) SW 236 ° 0 min 0,000 mm 0,0 UV-I 0 W/m² -2,6 °C 2,7 °C 0,0 km/h (0 Bft)
08.03.2018 19:20 2,7 °C 68 % 1006,3 hPa 0,0 mm 0,0 km/h (0 Bft) SW 236 ° 0 min 0,000 mm 0,0 UV-I 0 W/m² -2,6 °C 2,7 °C 0,0 km/h (0 Bft)
08.03.2018 19:21 2,8 °C 67 % 1006,2 hPa 0,0 mm 0,0 km/h (0 Bft) SW 236 ° 0 min 0,000 mm 0,0 UV-I 0 W/m² -2,7 °C 2,8 °C 0,0 km/h (0 Bft)
08.03.2018 19:22 2,9 °C 66 % 1006,3 hPa 0,0 mm 0,0 km/h (0 Bft) SW 236 ° 0 min 0,000 mm 0,0 UV-I 0 W/m² -2,8 °C 2,9 °C 0,0 km/h (0 Bft)
08.03.2018 19:23 2,8 °C 67 % 1006,4 hPa 0,0 mm 0,0 km/h (0 Bft) SW 236 ° 0 min 0,000 mm 0,0 UV-I 0 W/m² -2,7 °C 2,8 °C 0,0 km/h (0 Bft)
08.03.2018 19:24 2,7 °C 69 % 1006,4 hPa 0,0 mm 1,0 km/h (0 Bft) SW 236 ° 0 min 0,000 mm 0,0 UV-I 0 W/m² -2,4 °C 2,7 °C 3,2 km/h (1 Bft)
08.03.2018 19:25 2,6 °C 70 % 1006,5 hPa 0,0 mm 0,6 km/h (0 Bft) SW 236 ° 0 min 0,000 mm 0,0 UV-I 0 W/m² -2,3 °C 2,6 °C 1,6 km/h (1 Bft)
08.03.2018 19:26 2,6 °C 69 % 1006,4 hPa 0,0 mm 2,0 km/h (1 Bft) SW 236 ° 0 min 0,000 mm 0,0 UV-I 0 W/m² -2,5 °C 2,6 °C 3,2 km/h (1 Bft)
08.03.2018 19:27 2,6 °C 67 % 1006,4 hPa 0,0 mm 2,9 km/h (1 Bft) SW 235 ° 0 min 0,000 mm 0,0 UV-I 0 W/m² -2,9 °C 2,6 °C 3,2 km/h (1 Bft)
08.03.2018 19:28 2,7 °C 66 % 1006,3 hPa 0,0 mm 2,9 km/h (1 Bft) SW 235 ° 0 min 0,000 mm 0,0 UV-I 0 W/m² -3,0 °C 2,7 °C 4,8 km/h (1 Bft)
08.03.2018 19:29 2,8 °C 66 % 1006,3 hPa 0,0 mm 2,3 km/h (1 Bft) SW 235 ° 0 min 0,000 mm 0,0 UV-I 0 W/m² -2,9 °C 2,8 °C 4,8 km/h (1 Bft)
08.03.2018 19:30 2,9 °C 65 % 1006,3 hPa 0,0 mm 1,9 km/h (1 Bft) SW 235 ° 0 min 0,000 mm 0,0 UV-I 0 W/m² -3,0 °C 2,9 °C 3,2 km/h (1 Bft)
08.03.2018 19:31 3,1 °C 65 % 1006,3 hPa 0,0 mm 1,9 km/h (1 Bft) SW 235 ° 0 min 0,000 mm 0,0 UV-I 0 W/m² -2,8 °C 3,1 °C 4,8 km/h (1 Bft)
08.03.2018 19:32 3,2 °C 64 % 1006,4 hPa 0,0 mm 0,7 km/h (0 Bft) SW 235 ° 0 min 0,000 mm 0,0 UV-I 0 W/m² -2,9 °C 3,2 °C 1,6 km/h (1 Bft)
08.03.2018 19:33 3,3 °C 64 % 1006,4 hPa 0,0 mm 0,4 km/h (0 Bft) SW 235 ° 0 min 0,000 mm 0,0 UV-I 0 W/m² -2,8 °C 3,3 °C 3,2 km/h (1 Bft)
08.03.2018 19:34 3,3 °C 64 % 1006,5 hPa 0,0 mm 0,5 km/h (0 Bft) SW 235 ° 0 min 0,000 mm 0,0 UV-I 0 W/m² -2,8 °C 3,3 °C 1,6 km/h (1 Bft)
08.03.2018 19:35 3,3 °C 64 % 1006,5 hPa 0,0 mm 0,4 km/h (0 Bft) SW 235 ° 0 min 0,000 mm 0,0 UV-I 0 W/m² -2,8 °C 3,3 °C 1,6 km/h (1 Bft)
08.03.2018 19:36 3,2 °C 64 % 1006,5 hPa 0,0 mm 0,0 km/h (0 Bft) SW 235 ° 0 min 0,000 mm 0,0 UV-I 0 W/m² -2,9 °C 3,2 °C 0,0 km/h (0 Bft)
08.03.2018 19:37 2,9 °C 68 % 1006,5 hPa 0,0 mm 0,2 km/h (0 Bft) SW 235 ° 0 min 0,000 mm 0,0 UV-I 0 W/m² -2,4 °C 2,9 °C 1,6 km/h (1 Bft)
08.03.2018 19:38 2,6 °C 70 % 1006,5 hPa 0,0 mm 1,9 km/h (1 Bft) SW 235 ° 0 min 0,000 mm 0,0 UV-I 0 W/m² -2,3 °C 2,6 °C 3,2 km/h (1 Bft)
08.03.2018 19:39 2,5 °C 67 % 1006,4 hPa 0,0 mm 2,1 km/h (1 Bft) SW 235 ° 0 min 0,000 mm 0,0 UV-I 0 W/m² -3,0 °C 2,5 °C 3,2 km/h (1 Bft)
08.03.2018 19:40 2,6 °C 66 % 1006,5 hPa 0,0 mm 4,1 km/h (1 Bft) SW 234 ° 0 min 0,000 mm 0,0 UV-I 0 W/m² -3,1 °C 2,6 °C 6,4 km/h (2 Bft)
08.03.2018 19:41 2,7 °C 66 % 1006,5 hPa 0,0 mm 4,7 km/h (1 Bft) SW 219 ° 0 min 0,000 mm 0,0 UV-I 0 W/m² -3,0 °C 1,6 °C 6,4 km/h (2 Bft)
08.03.2018 19:42 2,8 °C 65 % 1006,5 hPa 0,0 mm 5,0 km/h (1 Bft) S-SW 207 ° 0 min 0,000 mm 0,0 UV-I 0 W/m² -3,1 °C 1,6 °C 6,4 km/h (2 Bft)
08.03.2018 19:43 2,9 °C 65 % 1006,5 hPa 0,0 mm 4,2 km/h (1 Bft) S-SW 198 ° 0 min 0,000 mm 0,0 UV-I 0 W/m² -3,0 °C 2,9 °C 6,4 km/h (2 Bft)
08.03.2018 19:44 3,0 °C 64 % 1006,5 hPa 0,0 mm 3,9 km/h (1 Bft) S-SW 194 ° 0 min 0,000 mm 0,0 UV-I 0 W/m² -3,1 °C 3,0 °C 4,8 km/h (1 Bft)
08.03.2018 19:45 3,1 °C 64 % 1006,5 hPa 0,0 mm 4,2 km/h (1 Bft) S-SW 194 ° 0 min 0,000 mm 0,0 UV-I 0 W/m² -3,0 °C 3,1 °C 4,8 km/h (1 Bft)
08.03.2018 19:46 3,1 °C 64 % 1006,5 hPa 0,0 mm 4,1 km/h (1 Bft) S-SW 194 ° 0 min 0,000 mm 0,0 UV-I 0 W/m² -3,0 °C 3,1 °C 6,4 km/h (2 Bft)
08.03.2018 19:47 3,1 °C 64 % 1006,5 hPa 0,0 mm 3,4 km/h (1 Bft) S-SW 193 ° 0 min 0,000 mm 0,0 UV-I 0 W/m² -3,0 °C 3,1 °C 4,8 km/h (1 Bft)
08.03.2018 19:48 3,1 °C 64 % 1006,5 hPa 0,0 mm 3,2 km/h (1 Bft) S-SW 193 ° 0 min 0,000 mm 0,0 UV-I 0 W/m² -3,0 °C 3,1 °C 4,8 km/h (1 Bft)
08.03.2018 19:49 3,2 °C 64 % 1006,5 hPa 0,0 mm 4,2 km/h (1 Bft) S-SW 193 ° 0 min 0,000 mm 0,0 UV-I 0 W/m² -2,9 °C 3,2 °C 6,4 km/h (2 Bft)
08.03.2018 19:50 3,2 °C 63 % 1006,5 hPa 0,0 mm 3,9 km/h (1 Bft) S-SW 193 ° 0 min 0,000 mm 0,0 UV-I 0 W/m² -3,1 °C 3,2 °C 6,4 km/h (2 Bft)
08.03.2018 19:51 3,2 °C 62 % 1006,5 hPa 0,0 mm 4,2 km/h (1 Bft) S 191 ° 0 min 0,000 mm 0,0 UV-I 0 W/m² -3,4 °C 3,2 °C 6,4 km/h (2 Bft)
08.03.2018 19:52 3,2 °C 62 % 1006,5 hPa 0,0 mm 4,0 km/h (1 Bft) S 191 ° 0 min 0,000 mm 0,0 UV-I 0 W/m² -3,4 °C 3,2 °C 4,8 km/h (1 Bft)
08.03.2018 19:53 3,2 °C 63 % 1006,5 hPa 0,0 mm 4,5 km/h (1 Bft) S 184 ° 0 min 0,000 mm 0,0 UV-I 0 W/m² -3,1 °C 3,2 °C 6,4 km/h (2 Bft)
08.03.2018 19:54 3,2 °C 63 % 1006,5 hPa 0,0 mm 4,0 km/h (1 Bft) S 184 ° 0 min 0,000 mm 0,0 UV-I 0 W/m² -3,1 °C 3,2 °C 4,8 km/h (1 Bft)
08.03.2018 19:55 3,1 °C 64 % 1006,4 hPa 0,0 mm 4,6 km/h (1 Bft) S 180 ° 0 min 0,000 mm 0,0 UV-I 0 W/m² -3,0 °C 2,1 °C 6,4 km/h (2 Bft)
08.03.2018 19:56 3,1 °C 63 % 1006,4 hPa 0,0 mm 3,5 km/h (1 Bft) S 180 ° 0 min 0,000 mm 0,0 UV-I 0 W/m² -3,2 °C 3,1 °C 4,8 km/h (1 Bft)
08.03.2018 19:57 3,2 °C 62 % 1006,4 hPa 0,0 mm 4,0 km/h (1 Bft) S 180 ° 0 min 0,000 mm 0,0 UV-I 0 W/m² -3,4 °C 3,2 °C 6,4 km/h (2 Bft)
08.03.2018 19:58 3,2 °C 63 % 1006,6 hPa 0,0 mm 5,0 km/h (1 Bft) S-SW 196 ° 0 min 0,000 mm 0,0 UV-I 0 W/m² -3,1 °C 2,0 °C 6,4 km/h (2 Bft)
08.03.2018 19:59 3,2 °C 63 % 1006,6 hPa 0,0 mm 6,0 km/h (2 Bft) S-SW 202 ° 0 min 0,000 mm 0,0 UV-I 0 W/m² -3,1 °C 1,7 °C 8,0 km/h (2 Bft)
08.03.2018 20:00 3,2 °C 63 % 1006,6 hPa 0,0 mm 3,0 km/h (1 Bft) S-SW 202 ° 0 min 0,000 mm 0,0 UV-I 0 W/m² -3,1 °C 3,2 °C 4,8 km/h (1 Bft)
08.03.2018 20:01 3,2 °C 62 % 1006,6 hPa 0,0 mm 1,3 km/h (1 Bft) S-SW 202 ° 0 min 0,025 mm 0,0 UV-I 0 W/m² -3,4 °C 3,2 °C 3,2 km/h (1 Bft)
08.03.2018 20:02 3,2 °C 64 % 1006,6 hPa 0,0 mm 3,4 km/h (1 Bft) S 191 ° 0 min 0,000 mm 0,0 UV-I 0 W/m² -2,9 °C 3,2 °C 4,8 km/h (1 Bft)
08.03.2018 20:03 3,1 °C 64 % 1006,5 hPa 0,0 mm 4,3 km/h (1 Bft) S 175 ° 0 min 0,000 mm 0,0 UV-I 0 W/m² -3,0 °C 3,1 °C 6,4 km/h (2 Bft)
08.03.2018 20:04 3,0 °C 65 % 1006,4 hPa 0,0 mm 4,0 km/h (1 Bft) S 175 ° 0 min 0,000 mm 0,0 UV-I 0 W/m² -2,9 °C 3,0 °C 4,8 km/h (1 Bft)
08.03.2018 20:05 2,9 °C 65 % 1006,4 hPa 0,0 mm 3,9 km/h (1 Bft) S 175 ° 0 min 0,000 mm 0,0 UV-I 0 W/m² -3,0 °C 2,9 °C 4,8 km/h (1 Bft)
08.03.2018 20:06 2,9 °C 64 % 1006,4 hPa 0,0 mm 3,2 km/h (1 Bft) S 175 ° 0 min 0,000 mm 0,0 UV-I 0 W/m² -3,2 °C 2,9 °C 4,8 km/h (1 Bft)
08.03.2018 20:07 3,0 °C 63 % 1006,4 hPa 0,0 mm 3,2 km/h (1 Bft) S 175 ° 0 min 0,000 mm 0,0 UV-I 0 W/m² -3,3 °C 3,0 °C 4,8 km/h (1 Bft)
08.03.2018 20:08 3,1 °C 64 % 1006,5 hPa 0,0 mm 2,9 km/h (1 Bft) S 175 ° 0 min 0,000 mm 0,0 UV-I 0 W/m² -3,0 °C 3,1 °C 4,8 km/h (1 Bft)
08.03.2018 20:09 3,0 °C 65 % 1006,6 hPa 0,0 mm 3,9 km/h (1 Bft) S-SW 213 ° 0 min 0,000 mm 0,0 UV-I 0 W/m² -2,9 °C 3,0 °C 4,8 km/h (1 Bft)
08.03.2018 20:10 2,9 °C 66 % 1006,7 hPa 0,0 mm 2,3 km/h (1 Bft) S-SW 213 ° 0 min 0,000 mm 0,0 UV-I 0 W/m² -2,8 °C 2,9 °C 4,8 km/h (1 Bft)
08.03.2018 20:11 2,8 °C 66 % 1006,7 hPa 0,0 mm 4,1 km/h (1 Bft) S-SW 213 ° 0 min 0,000 mm 0,0 UV-I 0 W/m² -2,9 °C 2,8 °C 4,8 km/h (1 Bft)
08.03.2018 20:12 2,8 °C 67 % 1006,7 hPa 0,0 mm 4,1 km/h (1 Bft) S-SW 209 ° 0 min 0,000 mm 0,0 UV-I 0 W/m² -2,7 °C 2,8 °C 6,4 km/h (2 Bft)
08.03.2018 20:13 2,7 °C 66 % 1006,6 hPa 0,0 mm 2,7 km/h (1 Bft) S-SW 209 ° 0 min 0,000 mm 0,0 UV-I 0 W/m² -3,0 °C 2,7 °C 3,2 km/h (1 Bft)
08.03.2018 20:14 2,8 °C 66 % 1006,5 hPa 0,0 mm 3,7 km/h (1 Bft) S 186 ° 0 min 0,000 mm 0,0 UV-I 0 W/m² -2,9 °C 2,8 °C 4,8 km/h (1 Bft)
08.03.2018 20:15 2,8 °C 66 % 1006,5 hPa 0,0 mm 3,3 km/h (1 Bft) S 184 ° 0 min 0,000 mm 0,0 UV-I 0 W/m² -2,9 °C 2,8 °C 4,8 km/h (1 Bft)
08.03.2018 20:16 2,8 °C 66 % 1006,5 hPa 0,0 mm 2,4 km/h (1 Bft) S 184 ° 0 min 0,000 mm 0,0 UV-I 0 W/m² -2,9 °C 2,8 °C 3,2 km/h (1 Bft)
08.03.2018 20:17 2,8 °C 65 % 1006,5 hPa 0,0 mm 1,4 km/h (1 Bft) S 184 ° 0 min 0,000 mm 0,0 UV-I 0 W/m² -3,1 °C 2,8 °C 3,2 km/h (1 Bft)
08.03.2018 20:18 2,9 °C 65 % 1006,5 hPa 0,0 mm 0,0 km/h (0 Bft) S 184 ° 0 min 0,000 mm 0,0 UV-I 0 W/m² -3,0 °C 2,9 °C 0,0 km/h (0 Bft)
08.03.2018 20:19 2,9 °C 65 % 1006,5 hPa 0,0 mm 0,0 km/h (0 Bft) S 184 ° 0 min 0,000 mm 0,0 UV-I 0 W/m² -3,0 °C 2,9 °C 0,0 km/h (0 Bft)
08.03.2018 20:20 2,8 °C 67 % 1006,6 hPa 0,0 mm 0,0 km/h (0 Bft) S 184 ° 0 min 0,000 mm 0,0 UV-I 0 W/m² -2,7 °C 2,8 °C 0,0 km/h (0 Bft)
08.03.2018 20:21 2,8 °C 67 % 1006,6 hPa 0,0 mm 0,0 km/h (0 Bft) S 184 ° 0 min 0,000 mm 0,0 UV-I 0 W/m² -2,7 °C 2,8 °C 0,0 km/h (0 Bft)
08.03.2018 20:22 2,7 °C 67 % 1006,7 hPa 0,0 mm 0,0 km/h (0 Bft) S 184 ° 0 min 0,000 mm 0,0 UV-I 0 W/m² -2,8 °C 2,7 °C 0,0 km/h (0 Bft)
08.03.2018 20:23 2,8 °C 66 % 1006,6 hPa 0,0 mm 0,0 km/h (0 Bft) S 184 ° 0 min 0,000 mm 0,0 UV-I 0 W/m² -2,9 °C 2,8 °C 0,0 km/h (0 Bft)
08.03.2018 20:24 2,9 °C 66 % 1006,6 hPa 0,0 mm 0,3 km/h (0 Bft) S 184 ° 0 min 0,000 mm 0,0 UV-I 0 W/m² -2,8 °C 2,9 °C 1,6 km/h (1 Bft)
08.03.2018 20:25 2,9 °C 65 % 1006,6 hPa 0,0 mm 1,9 km/h (1 Bft) S 184 ° 0 min 0,000 mm 0,0 UV-I 0 W/m² -3,0 °C 2,9 °C 3,2 km/h (1 Bft)
08.03.2018 20:26 3,0 °C 66 % 1006,5 hPa 0,0 mm 3,0 km/h (1 Bft) S 184 ° 0 min 0,000 mm 0,0 UV-I 0 W/m² -2,7 °C 3,0 °C 3,2 km/h (1 Bft)
08.03.2018 20:27 2,9 °C 66 % 1006,5 hPa 0,0 mm 1,1 km/h (1 Bft) S 184 ° 0 min 0,000 mm 0,0 UV-I 0 W/m² -2,8 °C 2,9 °C 3,2 km/h (1 Bft)
08.03.2018 20:28 3,0 °C 67 % 1006,5 hPa 0,0 mm 0,0 km/h (0 Bft) S 184 ° 0 min 0,000 mm 0,0 UV-I 0 W/m² -2,5 °C 3,0 °C 0,0 km/h (0 Bft)
08.03.2018 20:29 2,9 °C 67 % 1006,5 hPa 0,0 mm 0,0 km/h (0 Bft) S 184 ° 0 min 0,000 mm 0,0 UV-I 0 W/m² -2,6 °C 2,9 °C 0,0 km/h (0 Bft)
08.03.2018 20:30 2,8 °C 68 % 1006,6 hPa 0,0 mm 0,0 km/h (0 Bft) S 184 ° 0 min 0,000 mm 0,0 UV-I 0 W/m² -2,5 °C 2,8 °C 0,0 km/h (0 Bft)
08.03.2018 20:31 2,8 °C 68 % 1006,5 hPa 0,0 mm 0,0 km/h (0 Bft) S 184 ° 0 min 0,000 mm 0,0 UV-I 0 W/m² -2,5 °C 2,8 °C 0,0 km/h (0 Bft)
08.03.2018 20:32 2,7 °C 67 % 1006,6 hPa 0,0 mm 2,9 km/h (1 Bft) W 274 ° 0 min 0,000 mm 0,0 UV-I 0 W/m² -2,8 °C 2,7 °C 4,8 km/h (1 Bft)
08.03.2018 20:33 2,7 °C 67 % 1006,7 hPa 0,0 mm 3,2 km/h (1 Bft) W 278 ° 0 min 0,000 mm 0,0 UV-I 0 W/m² -2,8 °C 2,7 °C 4,8 km/h (1 Bft)
08.03.2018 20:34 2,6 °C 68 % 1006,7 hPa 0,0 mm 1,9 km/h (1 Bft) W 278 ° 0 min 0,000 mm 0,0 UV-I 0 W/m² -2,7 °C 2,6 °C 3,2 km/h (1 Bft)
08.03.2018 20:35 2,5 °C 69 % 1006,7 hPa 0,0 mm 0,1 km/h (0 Bft) W 278 ° 0 min 0,000 mm 0,0 UV-I 0 W/m² -2,6 °C 2,5 °C 1,6 km/h (1 Bft)
08.03.2018 20:36 2,3 °C 69 % 1006,7 hPa 0,0 mm 0,1 km/h (0 Bft) W 278 ° 0 min 0,000 mm 0,0 UV-I 0 W/m² -2,8 °C 2,3 °C 1,6 km/h (1 Bft)
08.03.2018 20:37 2,3 °C 69 % 1006,7 hPa 0,0 mm 1,9 km/h (1 Bft) W 278 ° 0 min 0,000 mm 0,0 UV-I 0 W/m² -2,8 °C 2,3 °C 3,2 km/h (1 Bft)
08.03.2018 20:38 2,3 °C 69 % 1006,7 hPa 0,0 mm 2,2 km/h (1 Bft) W 278 ° 0 min 0,000 mm 0,0 UV-I 0 W/m² -2,8 °C 2,3 °C 3,2 km/h (1 Bft)
08.03.2018 20:39 2,4 °C 68 % 1006,7 hPa 0,0 mm 1,0 km/h (0 Bft) W 278 ° 0 min 0,000 mm 0,0 UV-I 0 W/m² -2,9 °C 2,4 °C 3,2 km/h (1 Bft)
08.03.2018 20:40 2,3 °C 69 % 1006,7 hPa 0,0 mm 0,0 km/h (0 Bft) W 278 ° 0 min 0,000 mm 0,0 UV-I 0 W/m² -2,8 °C 2,3 °C 0,0 km/h (0 Bft)
08.03.2018 20:41 2,3 °C 69 % 1006,7 hPa 0,0 mm 0,0 km/h (0 Bft) W 278 ° 0 min 0,000 mm 0,0 UV-I 0 W/m² -2,8 °C 2,3 °C 0,0 km/h (0 Bft)
08.03.2018 20:42 2,3 °C 68 % 1006,7 hPa 0,0 mm 0,0 km/h (0 Bft) W 278 ° 0 min 0,000 mm 0,0 UV-I 0 W/m² -3,0 °C 2,3 °C 0,0 km/h (0 Bft)
08.03.2018 20:43 2,3 °C 68 % 1006,7 hPa 0,0 mm 0,0 km/h (0 Bft) W 278 ° 0 min 0,000 mm 0,0 UV-I 0 W/m² -3,0 °C 2,3 °C 0,0 km/h (0 Bft)
08.03.2018 20:44 2,3 °C 68 % 1006,7 hPa 0,0 mm 2,7 km/h (1 Bft) W 278 ° 0 min 0,000 mm 0,0 UV-I 0 W/m² -3,0 °C 2,3 °C 3,2 km/h (1 Bft)
08.03.2018 20:45 2,2 °C 69 % 1006,8 hPa 0,0 mm 2,5 km/h (1 Bft) W 278 ° 0 min 0,000 mm 0,0 UV-I 0 W/m² -2,9 °C 2,2 °C 3,2 km/h (1 Bft)
08.03.2018 20:46 2,2 °C 69 % 1006,8 hPa 0,0 mm 0,1 km/h (0 Bft) W 278 ° 0 min 0,000 mm 0,0 UV-I 0 W/m² -2,9 °C 2,2 °C 1,6 km/h (1 Bft)
08.03.2018 20:47 2,1 °C 69 % 1006,9 hPa 0,0 mm 0,0 km/h (0 Bft) W 278 ° 0 min 0,000 mm 0,0 UV-I 0 W/m² -3,0 °C 2,1 °C 0,0 km/h (0 Bft)
08.03.2018 20:48 2,0 °C 70 % 1006,8 hPa 0,0 mm 0,0 km/h (0 Bft) W 278 ° 0 min 0,000 mm 0,0 UV-I 0 W/m² -2,9 °C 2,0 °C 0,0 km/h (0 Bft)
08.03.2018 20:49 2,1 °C 70 % 1006,8 hPa 0,0 mm 0,0 km/h (0 Bft) W-SW 238 ° 0 min 0,000 mm 0,0 UV-I 0 W/m² -2,8 °C 2,1 °C 0,0 km/h (0 Bft)
08.03.2018 20:50 2,1 °C 70 % 1006,7 hPa 0,0 mm 0,0 km/h (0 Bft) W-SW 238 ° 0 min 0,000 mm 0,0 UV-I 0 W/m² -2,8 °C 2,1 °C 0,0 km/h (0 Bft)
08.03.2018 20:51 2,1 °C 69 % 1006,7 hPa 0,0 mm 0,0 km/h (0 Bft) W-SW 238 ° 0 min 0,000 mm 0,0 UV-I 0 W/m² -3,0 °C 2,1 °C 0,0 km/h (0 Bft)
08.03.2018 20:52 2,1 °C 70 % 1006,7 hPa 0,0 mm 0,0 km/h (0 Bft) W-SW 238 ° 0 min 0,000 mm 0,0 UV-I 0 W/m² -2,8 °C 2,1 °C 0,0 km/h (0 Bft)
08.03.2018 20:53 2,2 °C 69 % 1006,7 hPa 0,0 mm 0,0 km/h (0 Bft) W-SW 238 ° 0 min 0,000 mm 0,0 UV-I 0 W/m² -2,9 °C 2,2 °C 0,0 km/h (0 Bft)
08.03.2018 20:54 2,2 °C 69 % 1006,8 hPa 0,0 mm 0,1 km/h (0 Bft) W-SW 238 ° 0 min 0,000 mm 0,0 UV-I 0 W/m² -2,9 °C 2,2 °C 1,6 km/h (1 Bft)
08.03.2018 20:55 2,2 °C 69 % 1006,8 hPa 0,0 mm 3,2 km/h (1 Bft) W-NW 290 ° 0 min 0,000 mm 0,0 UV-I 0 W/m² -2,9 °C 2,2 °C 4,8 km/h (1 Bft)
08.03.2018 20:56 2,1 °C 71 % 1006,9 hPa 0,0 mm 2,5 km/h (1 Bft) W-NW 290 ° 0 min 0,000 mm 0,0 UV-I 0 W/m² -2,6 °C 2,1 °C 4,8 km/h (1 Bft)
08.03.2018 20:57 1,9 °C 70 % 1007,0 hPa 0,0 mm 1,0 km/h (0 Bft) W-NW 290 ° 0 min 0,000 mm 0,0 UV-I 0 W/m² -3,0 °C 1,9 °C 1,6 km/h (1 Bft)
08.03.2018 20:58 1,8 °C 71 % 1006,9 hPa 0,0 mm 0,8 km/h (0 Bft) W-SW 237 ° 0 min 0,000 mm 0,0 UV-I 0 W/m² -2,9 °C 1,8 °C 3,2 km/h (1 Bft)
08.03.2018 20:59 1,8 °C 71 % 1006,9 hPa 0,0 mm 3,6 km/h (1 Bft) SW 231 ° 0 min 0,000 mm 0,0 UV-I 0 W/m² -2,9 °C 1,8 °C 4,8 km/h (1 Bft)
08.03.2018 21:00 1,8 °C 71 % 1006,9 hPa 0,0 mm 2,6 km/h (1 Bft) SW 231 ° 0 min 0,000 mm 0,0 UV-I 0 W/m² -2,9 °C 1,8 °C 3,2 km/h (1 Bft)
08.03.2018 21:01 1,8 °C 70 % 1006,8 hPa 0,0 mm 1,7 km/h (1 Bft) SW 231 ° 0 min 0,026 mm 0,0 UV-I 0 W/m² -3,1 °C 1,8 °C 3,2 km/h (1 Bft)
08.03.2018 21:02 1,9 °C 70 % 1006,8 hPa 0,0 mm 1,5 km/h (1 Bft) SW 231 ° 0 min 0,000 mm 0,0 UV-I 0 W/m² -3,0 °C 1,9 °C 1,6 km/h (1 Bft)
08.03.2018 21:03 2,0 °C 69 % 1006,8 hPa 0,0 mm 0,2 km/h (0 Bft) SW 231 ° 0 min 0,000 mm 0,0 UV-I 0 W/m² -3,1 °C 2,0 °C 1,6 km/h (1 Bft)
08.03.2018 21:04 2,0 °C 70 % 1006,9 hPa 0,0 mm 2,4 km/h (1 Bft) SW 231 ° 0 min 0,000 mm 0,0 UV-I 0 W/m² -2,9 °C 2,0 °C 3,2 km/h (1 Bft)
08.03.2018 21:05 2,1 °C 71 % 1006,9 hPa 0,0 mm 0,6 km/h (0 Bft) SW 231 ° 0 min 0,000 mm 0,0 UV-I 0 W/m² -2,6 °C 2,1 °C 3,2 km/h (1 Bft)
08.03.2018 21:06 2,0 °C 70 % 1006,9 hPa 0,0 mm 2,5 km/h (1 Bft) W-NW 291 ° 0 min 0,000 mm 0,0 UV-I 0 W/m² -2,9 °C 2,0 °C 4,8 km/h (1 Bft)
08.03.2018 21:07 2,1 °C 70 % 1007,0 hPa 0,0 mm 1,1 km/h (1 Bft) W-NW 291 ° 0 min 0,000 mm 0,0 UV-I 0 W/m² -2,8 °C 2,1 °C 3,2 km/h (1 Bft)
08.03.2018 21:08 2,0 °C 70 % 1007,0 hPa 0,0 mm 1,0 km/h (0 Bft) W-NW 291 ° 0 min 0,000 mm 0,0 UV-I 0 W/m² -2,9 °C 2,0 °C 3,2 km/h (1 Bft)
08.03.2018 21:09 1,9 °C 71 % 1006,9 hPa 0,0 mm 0,0 km/h (0 Bft) W-NW 291 ° 0 min 0,000 mm 0,0 UV-I 0 W/m² -2,8 °C 1,9 °C 0,0 km/h (0 Bft)
08.03.2018 21:10 1,7 °C 71 % 1006,9 hPa 0,0 mm 0,6 km/h (0 Bft) SW 233 ° 0 min 0,000 mm 0,0 UV-I 0 W/m² -3,0 °C 1,7 °C 3,2 km/h (1 Bft)
08.03.2018 21:11 1,7 °C 72 % 1006,9 hPa 0,0 mm 2,1 km/h (1 Bft) SW 233 ° 0 min 0,000 mm 0,0 UV-I 0 W/m² -2,8 °C 1,7 °C 3,2 km/h (1 Bft)
08.03.2018 21:12 1,7 °C 72 % 1006,9 hPa 0,0 mm 0,8 km/h (0 Bft) SW 233 ° 0 min 0,000 mm 0,0 UV-I 0 W/m² -2,8 °C 1,7 °C 3,2 km/h (1 Bft)
08.03.2018 21:13 1,7 °C 72 % 1007,0 hPa 0,0 mm 0,4 km/h (0 Bft) SW 233 ° 0 min 0,000 mm 0,0 UV-I 0 W/m² -2,8 °C 1,7 °C 3,2 km/h (1 Bft)
08.03.2018 21:14 1,7 °C 72 % 1007,0 hPa 0,0 mm 3,2 km/h (1 Bft) SW 223 ° 0 min 0,000 mm 0,0 UV-I 0 W/m² -2,8 °C 1,7 °C 6,4 km/h (2 Bft)
08.03.2018 21:15 1,7 °C 72 % 1007,0 hPa 0,0 mm 4,4 km/h (1 Bft) SW 217 ° 0 min 0,000 mm 0,0 UV-I 0 W/m² -2,8 °C 1,7 °C 6,4 km/h (2 Bft)
08.03.2018 21:16 1,8 °C 72 % 1007,0 hPa 0,0 mm 1,4 km/h (1 Bft) SW 217 ° 0 min 0,000 mm 0,0 UV-I 0 W/m² -2,7 °C 1,8 °C 3,2 km/h (1 Bft)
08.03.2018 21:17 1,9 °C 71 % 1007,0 hPa 0,0 mm 0,1 km/h (0 Bft) SW 217 ° 0 min 0,000 mm 0,0 UV-I 0 W/m² -2,8 °C 1,9 °C 1,6 km/h (1 Bft)
08.03.2018 21:18 2,0 °C 70 % 1007,0 hPa 0,0 mm 2,4 km/h (1 Bft) SW 217 ° 0 min 0,000 mm 0,0 UV-I 0 W/m² -2,9 °C 2,0 °C 4,8 km/h (1 Bft)
08.03.2018 21:19 2,1 °C 70 % 1007,0 hPa 0,0 mm 3,2 km/h (1 Bft) SW 215 ° 0 min 0,000 mm 0,0 UV-I 0 W/m² -2,8 °C 2,1 °C 4,8 km/h (1 Bft)
08.03.2018 21:20 2,2 °C 70 % 1007,1 hPa 0,0 mm 3,1 km/h (1 Bft) SW 215 ° 0 min 0,000 mm 0,0 UV-I 0 W/m² -2,7 °C 2,2 °C 4,8 km/h (1 Bft)
08.03.2018 21:21 2,2 °C 71 % 1007,1 hPa 0,0 mm 3,9 km/h (1 Bft) S-SW 211 ° 0 min 0,000 mm 0,0 UV-I 0 W/m² -2,5 °C 2,2 °C 6,4 km/h (2 Bft)
08.03.2018 21:22 2,2 °C 70 % 1007,1 hPa 0,0 mm 2,6 km/h (1 Bft) S-SW 211 ° 0 min 0,000 mm 0,0 UV-I 0 W/m² -2,7 °C 2,2 °C 4,8 km/h (1 Bft)
08.03.2018 21:23 2,2 °C 70 % 1007,1 hPa 0,0 mm 3,0 km/h (1 Bft) S-SW 211 ° 0 min 0,000 mm 0,0 UV-I 0 W/m² -2,7 °C 2,2 °C 4,8 km/h (1 Bft)
08.03.2018 21:24 2,2 °C 69 % 1007,1 hPa 0,0 mm 1,7 km/h (1 Bft) S-SW 211 ° 0 min 0,000 mm 0,0 UV-I 0 W/m² -2,9 °C 2,2 °C 3,2 km/h (1 Bft)
08.03.2018 21:25 2,2 °C 68 % 1007,1 hPa 0,0 mm 2,9 km/h (1 Bft) S-SW 209 ° 0 min 0,000 mm 0,0 UV-I 0 W/m² -3,1 °C 2,2 °C 4,8 km/h (1 Bft)
08.03.2018 21:26 2,3 °C 68 % 1007,2 hPa 0,0 mm 3,6 km/h (1 Bft) S-SW 202 ° 0 min 0,000 mm 0,0 UV-I 0 W/m² -3,0 °C 2,3 °C 6,4 km/h (2 Bft)
08.03.2018 21:27 2,3 °C 68 % 1007,2 hPa 0,0 mm 3,1 km/h (1 Bft) S-SW 202 ° 0 min 0,000 mm 0,0 UV-I 0 W/m² -3,0 °C 2,3 °C 4,8 km/h (1 Bft)
08.03.2018 21:28 2,3 °C 68 % 1007,2 hPa 0,0 mm 4,7 km/h (1 Bft) S 185 ° 0 min 0,000 mm 0,0 UV-I 0 W/m² -3,0 °C 1,2 °C 6,4 km/h (2 Bft)
08.03.2018 21:29 2,4 °C 68 % 1007,2 hPa 0,0 mm 3,9 km/h (1 Bft) S 185 ° 0 min 0,000 mm 0,0 UV-I 0 W/m² -2,9 °C 2,4 °C 4,8 km/h (1 Bft)
08.03.2018 21:30 2,3 °C 67 % 1007,1 hPa 0,0 mm 3,5 km/h (1 Bft) S 185 ° 0 min 0,000 mm 0,0 UV-I 0 W/m² -3,2 °C 2,3 °C 4,8 km/h (1 Bft)
08.03.2018 21:31 2,4 °C 67 % 1007,1 hPa 0,0 mm 3,1 km/h (1 Bft) S 185 ° 0 min 0,000 mm 0,0 UV-I 0 W/m² -3,1 °C 2,4 °C 4,8 km/h (1 Bft)
08.03.2018 21:32 2,4 °C 67 % 1007,1 hPa 0,0 mm 3,4 km/h (1 Bft) S 185 ° 0 min 0,000 mm 0,0 UV-I 0 W/m² -3,1 °C 2,4 °C 6,4 km/h (2 Bft)
08.03.2018 21:33 2,4 °C 67 % 1007,2 hPa 0,0 mm 2,3 km/h (1 Bft) S 185 ° 0 min 0,000 mm 0,0 UV-I 0 W/m² -3,1 °C 2,4 °C 3,2 km/h (1 Bft)
08.03.2018 21:34 2,4 °C 67 % 1007,2 hPa 0,0 mm 2,7 km/h (1 Bft) S 185 ° 0 min 0,000 mm 0,0 UV-I 0 W/m² -3,1 °C 2,4 °C 4,8 km/h (1 Bft)
08.03.2018 21:35 2,4 °C 67 % 1007,2 hPa 0,0 mm 2,2 km/h (1 Bft) S 185 ° 0 min 0,000 mm 0,0 UV-I 0 W/m² -3,1 °C 2,4 °C 4,8 km/h (1 Bft)
08.03.2018 21:36 2,4 °C 67 % 1007,2 hPa 0,0 mm 2,3 km/h (1 Bft) S 185 ° 0 min 0,000 mm 0,0 UV-I 0 W/m² -3,1 °C 2,4 °C 3,2 km/h (1 Bft)
08.03.2018 21:37 2,4 °C 67 % 1007,2 hPa 0,0 mm 2,3 km/h (1 Bft) S 185 ° 0 min 0,000 mm 0,0 UV-I 0 W/m² -3,1 °C 2,4 °C 3,2 km/h (1 Bft)
08.03.2018 21:38 2,4 °C 67 % 1007,2 hPa 0,0 mm 2,3 km/h (1 Bft) S 185 ° 0 min 0,000 mm 0,0 UV-I 0 W/m² -3,1 °C 2,4 °C 3,2 km/h (1 Bft)
08.03.2018 21:39 2,3 °C 67 % 1007,3 hPa 0,0 mm 1,9 km/h (1 Bft) S 185 ° 0 min 0,000 mm 0,0 UV-I 0 W/m² -3,2 °C 2,3 °C 3,2 km/h (1 Bft)
08.03.2018 21:40 2,3 °C 67 % 1007,3 hPa 0,0 mm 0,8 km/h (0 Bft) S 185 ° 0 min 0,000 mm 0,0 UV-I 0 W/m² -3,2 °C 2,3 °C 3,2 km/h (1 Bft)
08.03.2018 21:41 2,2 °C 68 % 1007,3 hPa 0,0 mm 0,8 km/h (0 Bft) S 185 ° 0 min 0,000 mm 0,0 UV-I 0 W/m² -3,1 °C 2,2 °C 1,6 km/h (1 Bft)
08.03.2018 21:42 2,2 °C 68 % 1007,3 hPa 0,0 mm 0,5 km/h (0 Bft) S 185 ° 0 min 0,000 mm 0,0 UV-I 0 W/m² -3,1 °C 2,2 °C 1,6 km/h (1 Bft)
08.03.2018 21:43 2,1 °C 68 % 1007,3 hPa 0,0 mm 0,0 km/h (0 Bft) S 185 ° 0 min 0,000 mm 0,0 UV-I 0 W/m² -3,2 °C 2,1 °C 0,0 km/h (0 Bft)
08.03.2018 21:44 2,1 °C 68 % 1007,3 hPa 0,0 mm 0,0 km/h (0 Bft) S 185 ° 0 min 0,000 mm 0,0 UV-I 0 W/m² -3,2 °C 2,1 °C 0,0 km/h (0 Bft)
08.03.2018 21:45 2,0 °C 68 % 1007,3 hPa 0,0 mm 0,0 km/h (0 Bft) S 185 ° 0 min 0,000 mm 0,0 UV-I 0 W/m² -3,3 °C 2,0 °C 0,0 km/h (0 Bft)
08.03.2018 21:46 1,9 °C 68 % 1007,3 hPa 0,0 mm 1,4 km/h (1 Bft) S 185 ° 0 min 0,000 mm 0,0 UV-I 0 W/m² -3,4 °C 1,9 °C 3,2 km/h (1 Bft)
08.03.2018 21:47 1,9 °C 68 % 1007,3 hPa 0,0 mm 1,8 km/h (1 Bft) S 185 ° 0 min 0,000 mm 0,0 UV-I 0 W/m² -3,4 °C 1,9 °C 3,2 km/h (1 Bft)
08.03.2018 21:48 2,0 °C 68 % 1007,3 hPa 0,0 mm 1,3 km/h (1 Bft) S 185 ° 0 min 0,000 mm 0,0 UV-I 0 W/m² -3,3 °C 2,0 °C 3,2 km/h (1 Bft)
08.03.2018 21:49 1,9 °C 68 % 1007,3 hPa 0,0 mm 0,7 km/h (0 Bft) S 185 ° 0 min 0,000 mm 0,0 UV-I 0 W/m² -3,4 °C 1,9 °C 3,2 km/h (1 Bft)
08.03.2018 21:50 1,9 °C 68 % 1007,3 hPa 0,0 mm 0,9 km/h (0 Bft) S 185 ° 0 min 0,000 mm 0,0 UV-I 0 W/m² -3,4 °C 1,9 °C 3,2 km/h (1 Bft)
08.03.2018 21:51 1,9 °C 69 % 1007,3 hPa 0,0 mm 1,3 km/h (1 Bft) S 185 ° 0 min 0,000 mm 0,0 UV-I 0 W/m² -3,2 °C 1,9 °C 3,2 km/h (1 Bft)
08.03.2018 21:52 1,9 °C 69 % 1007,3 hPa 0,0 mm 0,7 km/h (0 Bft) S 185 ° 0 min 0,000 mm 0,0 UV-I 0 W/m² -3,2 °C 1,9 °C 3,2 km/h (1 Bft)
08.03.2018 21:53 1,8 °C 69 % 1007,4 hPa 0,0 mm 1,7 km/h (1 Bft) S 185 ° 0 min 0,000 mm 0,0 UV-I 0 W/m² -3,3 °C 1,8 °C 3,2 km/h (1 Bft)
08.03.2018 21:54 1,8 °C 69 % 1007,4 hPa 0,0 mm 2,8 km/h (1 Bft) S 185 ° 0 min 0,000 mm 0,0 UV-I 0 W/m² -3,3 °C 1,8 °C 4,8 km/h (1 Bft)
08.03.2018 21:55 1,8 °C 69 % 1007,4 hPa 0,0 mm 2,8 km/h (1 Bft) S 185 ° 0 min 0,000 mm 0,0 UV-I 0 W/m² -3,3 °C 1,8 °C 4,8 km/h (1 Bft)
08.03.2018 21:56 1,7 °C 69 % 1007,4 hPa 0,0 mm 6,5 km/h (2 Bft) S-SW 205 ° 0 min 0,000 mm 0,0 UV-I 0 W/m² -3,4 °C -0,3 °C 11,3 km/h (2 Bft)
08.03.2018 21:57 1,7 °C 68 % 1007,4 hPa 0,0 mm 6,8 km/h (2 Bft) S 187 ° 0 min 0,000 mm 0,0 UV-I 0 W/m² -3,6 °C -0,4 °C 9,7 km/h (2 Bft)
08.03.2018 21:58 1,7 °C 69 % 1007,5 hPa 0,0 mm 1,8 km/h (1 Bft) S 187 ° 0 min 0,000 mm 0,0 UV-I 0 W/m² -3,4 °C 1,7 °C 3,2 km/h (1 Bft)
08.03.2018 21:59 1,6 °C 70 % 1007,4 hPa 0,0 mm 0,1 km/h (0 Bft) S 187 ° 0 min 0,000 mm 0,0 UV-I 0 W/m² -3,3 °C 1,6 °C 1,6 km/h (1 Bft)
08.03.2018 22:00 1,6 °C 70 % 1007,5 hPa 0,0 mm 1,1 km/h (1 Bft) S 187 ° 0 min 0,000 mm 0,0 UV-I 0 W/m² -3,3 °C 1,6 °C 3,2 km/h (1 Bft)
08.03.2018 22:01 1,4 °C 70 % 1007,6 hPa 0,0 mm 0,4 km/h (0 Bft) S 187 ° 0 min 0,025 mm 0,0 UV-I 0 W/m² -3,5 °C 1,4 °C 1,6 km/h (1 Bft)
08.03.2018 22:02 1,4 °C 71 % 1007,5 hPa 0,0 mm 1,5 km/h (1 Bft) S 187 ° 0 min 0,000 mm 0,0 UV-I 0 W/m² -3,3 °C 1,4 °C 3,2 km/h (1 Bft)
08.03.2018 22:03 1,3 °C 70 % 1007,5 hPa 0,0 mm 1,7 km/h (1 Bft) S 187 ° 0 min 0,000 mm 0,0 UV-I 0 W/m² -3,6 °C 1,3 °C 3,2 km/h (1 Bft)
08.03.2018 22:04 1,3 °C 70 % 1007,6 hPa 0,0 mm 0,5 km/h (0 Bft) S 187 ° 0 min 0,000 mm 0,0 UV-I 0 W/m² -3,6 °C 1,3 °C 1,6 km/h (1 Bft)
08.03.2018 22:05 1,3 °C 70 % 1007,7 hPa 0,0 mm 0,0 km/h (0 Bft) S 187 ° 0 min 0,000 mm 0,0 UV-I 0 W/m² -3,6 °C 1,3 °C 0,0 km/h (0 Bft)
08.03.2018 22:06 1,1 °C 71 % 1007,7 hPa 0,0 mm 0,5 km/h (0 Bft) S 187 ° 0 min 0,000 mm 0,0 UV-I 0 W/m² -3,6 °C 1,1 °C 1,6 km/h (1 Bft)
08.03.2018 22:07 0,9 °C 73 % 1007,7 hPa 0,0 mm 3,0 km/h (1 Bft) S 187 ° 0 min 0,000 mm 0,0 UV-I 0 W/m² -3,4 °C 0,9 °C 4,8 km/h (1 Bft)
08.03.2018 22:08 0,8 °C 74 % 1007,6 hPa 0,0 mm 1,5 km/h (1 Bft) S 187 ° 0 min 0,000 mm 0,0 UV-I 0 W/m² -3,3 °C 0,8 °C 3,2 km/h (1 Bft)
08.03.2018 22:09 0,8 °C 74 % 1007,7 hPa 0,0 mm 0,0 km/h (0 Bft) S 187 ° 0 min 0,000 mm 0,0 UV-I 0 W/m² -3,3 °C 0,8 °C 0,0 km/h (0 Bft)
08.03.2018 22:10 0,7 °C 73 % 1007,7 hPa 0,0 mm 0,5 km/h (0 Bft) S 187 ° 0 min 0,000 mm 0,0 UV-I 0 W/m² -3,6 °C 0,7 °C 1,6 km/h (1 Bft)
08.03.2018 22:11 0,7 °C 73 % 1007,7 hPa 0,0 mm 0,1 km/h (0 Bft) S 187 ° 0 min 0,000 mm 0,0 UV-I 0 W/m² -3,6 °C 0,7 °C 1,6 km/h (1 Bft)
08.03.2018 22:12 0,7 °C 73 % 1007,7 hPa 0,0 mm 0,1 km/h (0 Bft) S 187 ° 0 min 0,000 mm 0,0 UV-I 0 W/m² -3,6 °C 0,7 °C 1,6 km/h (1 Bft)
08.03.2018 22:13 0,6 °C 74 % 1007,6 hPa 0,0 mm 1,2 km/h (1 Bft) S 187 ° 0 min 0,000 mm 0,0 UV-I 0 W/m² -3,5 °C 0,6 °C 1,6 km/h (1 Bft)
08.03.2018 22:14 0,7 °C 74 % 1007,6 hPa 0,0 mm 0,3 km/h (0 Bft) S 187 ° 0 min 0,000 mm 0,0 UV-I 0 W/m² -3,4 °C 0,7 °C 1,6 km/h (1 Bft)
08.03.2018 22:15 0,7 °C 74 % 1007,6 hPa 0,0 mm 0,0 km/h (0 Bft) S 187 ° 0 min 0,000 mm 0,0 UV-I 0 W/m² -3,4 °C 0,7 °C 0,0 km/h (0 Bft)
08.03.2018 22:16 0,6 °C 73 % 1007,6 hPa 0,0 mm 0,0 km/h (0 Bft) S 187 ° 0 min 0,000 mm 0,0 UV-I 0 W/m² -3,7 °C 0,6 °C 0,0 km/h (0 Bft)
08.03.2018 22:17 0,6 °C 73 % 1007,6 hPa 0,0 mm 0,0 km/h (0 Bft) S 187 ° 0 min 0,000 mm 0,0 UV-I 0 W/m² -3,7 °C 0,6 °C 0,0 km/h (0 Bft)
08.03.2018 22:18 0,6 °C 73 % 1007,6 hPa 0,0 mm 0,0 km/h (0 Bft) S 187 ° 0 min 0,000 mm 0,0 UV-I 0 W/m² -3,7 °C 0,6 °C 0,0 km/h (0 Bft)
08.03.2018 22:19 0,6 °C 73 % 1007,7 hPa 0,0 mm 0,3 km/h (0 Bft) S 187 ° 0 min 0,000 mm 0,0 UV-I 0 W/m² -3,7 °C 0,6 °C 1,6 km/h (1 Bft)
08.03.2018 22:20 0,5 °C 73 % 1007,7 hPa 0,0 mm 0,1 km/h (0 Bft) S 187 ° 0 min 0,000 mm 0,0 UV-I 0 W/m² -3,8 °C 0,5 °C 1,6 km/h (1 Bft)
08.03.2018 22:21 0,4 °C 74 % 1007,7 hPa 0,0 mm 0,0 km/h (0 Bft) S 187 ° 0 min 0,000 mm 0,0 UV-I 0 W/m² -3,7 °C 0,4 °C 0,0 km/h (0 Bft)
08.03.2018 22:22 0,4 °C 75 % 1007,7 hPa 0,0 mm 0,0 km/h (0 Bft) S 187 ° 0 min 0,000 mm 0,0 UV-I 0 W/m² -3,5 °C 0,4 °C 0,0 km/h (0 Bft)
08.03.2018 22:23 0,4 °C 75 % 1007,7 hPa 0,0 mm 0,0 km/h (0 Bft) S 187 ° 0 min 0,000 mm 0,0 UV-I 0 W/m² -3,5 °C 0,4 °C 0,0 km/h (0 Bft)
08.03.2018 22:24 0,5 °C 74 % 1007,8 hPa 0,0 mm 0,0 km/h (0 Bft) S 187 ° 0 min 0,000 mm 0,0 UV-I 0 W/m² -3,6 °C 0,5 °C 0,0 km/h (0 Bft)
08.03.2018 22:25 0,6 °C 74 % 1007,8 hPa 0,0 mm 0,0 km/h (0 Bft) S 187 ° 0 min 0,000 mm 0,0 UV-I 0 W/m² -3,5 °C 0,6 °C 0,0 km/h (0 Bft)
08.03.2018 22:26 0,7 °C 74 % 1007,8 hPa 0,0 mm 0,0 km/h (0 Bft) S 187 ° 0 min 0,000 mm 0,0 UV-I 0 W/m² -3,4 °C 0,7 °C 0,0 km/h (0 Bft)
08.03.2018 22:27 0,7 °C 73 % 1007,7 hPa 0,0 mm 0,0 km/h (0 Bft) S 187 ° 0 min 0,000 mm 0,0 UV-I 0 W/m² -3,6 °C 0,7 °C 0,0 km/h (0 Bft)
08.03.2018 22:28 0,7 °C 73 % 1007,8 hPa 0,0 mm 0,0 km/h (0 Bft) S 187 ° 0 min 0,000 mm 0,0 UV-I 0 W/m² -3,6 °C 0,7 °C 0,0 km/h (0 Bft)
08.03.2018 22:29 0,7 °C 73 % 1007,8 hPa 0,0 mm 0,0 km/h (0 Bft) S 187 ° 0 min 0,000 mm 0,0 UV-I 0 W/m² -3,6 °C 0,7 °C 0,0 km/h (0 Bft)
08.03.2018 22:30 0,7 °C 73 % 1007,9 hPa 0,0 mm 0,3 km/h (0 Bft) S 187 ° 0 min 0,000 mm 0,0 UV-I 0 W/m² -3,6 °C 0,7 °C 1,6 km/h (1 Bft)
08.03.2018 22:31 0,8 °C 73 % 1007,9 hPa 0,0 mm 0,9 km/h (0 Bft) S 187 ° 0 min 0,000 mm 0,0 UV-I 0 W/m² -3,5 °C 0,8 °C 3,2 km/h (1 Bft)
08.03.2018 22:32 0,9 °C 72 % 1007,8 hPa 0,0 mm 3,1 km/h (1 Bft) S 187 ° 0 min 0,000 mm 0,0 UV-I 0 W/m² -3,6 °C 0,9 °C 4,8 km/h (1 Bft)
08.03.2018 22:33 1,0 °C 72 % 1007,8 hPa 0,0 mm 0,9 km/h (0 Bft) S 187 ° 0 min 0,000 mm 0,0 UV-I 0 W/m² -3,5 °C 1,0 °C 1,6 km/h (1 Bft)
08.03.2018 22:34 1,0 °C 71 % 1007,9 hPa 0,0 mm 0,0 km/h (0 Bft) S 187 ° 0 min 0,000 mm 0,0 UV-I 0 W/m² -3,7 °C 1,0 °C 0,0 km/h (0 Bft)
08.03.2018 22:35 1,0 °C 72 % 1008,0 hPa 0,0 mm 0,0 km/h (0 Bft) S 187 ° 0 min 0,000 mm 0,0 UV-I 0 W/m² -3,5 °C 1,0 °C 0,0 km/h (0 Bft)
08.03.2018 22:36 1,1 °C 71 % 1007,9 hPa 0,0 mm 0,0 km/h (0 Bft) S 187 ° 0 min 0,000 mm 0,0 UV-I 0 W/m² -3,6 °C 1,1 °C 0,0 km/h (0 Bft)
08.03.2018 22:37 1,2 °C 71 % 1007,9 hPa 0,0 mm 0,0 km/h (0 Bft) S 187 ° 0 min 0,000 mm 0,0 UV-I 0 W/m² -3,5 °C 1,2 °C 0,0 km/h (0 Bft)
08.03.2018 22:38 1,2 °C 70 % 1008,0 hPa 0,0 mm 0,0 km/h (0 Bft) S 187 ° 0 min 0,000 mm 0,0 UV-I 0 W/m² -3,7 °C 1,2 °C 0,0 km/h (0 Bft)
08.03.2018 22:39 1,2 °C 70 % 1008,0 hPa 0,0 mm 0,0 km/h (0 Bft) S 187 ° 0 min 0,000 mm 0,0 UV-I 0 W/m² -3,7 °C 1,2 °C 0,0 km/h (0 Bft)
08.03.2018 22:40 1,3 °C 70 % 1008,0 hPa 0,0 mm 0,0 km/h (0 Bft) S 187 ° 0 min 0,000 mm 0,0 UV-I 0 W/m² -3,6 °C 1,3 °C 0,0 km/h (0 Bft)
08.03.2018 22:41 1,2 °C 70 % 1008,0 hPa 0,0 mm 0,0 km/h (0 Bft) S 187 ° 0 min 0,000 mm 0,0 UV-I 0 W/m² -3,7 °C 1,2 °C 0,0 km/h (0 Bft)
08.03.2018 22:42 0,9 °C 71 % 1008,1 hPa 0,0 mm 0,0 km/h (0 Bft) S 187 ° 0 min 0,000 mm 0,0 UV-I 0 W/m² -3,7 °C 0,9 °C 0,0 km/h (0 Bft)
08.03.2018 22:43 0,7 °C 72 % 1008,1 hPa 0,0 mm 0,0 km/h (0 Bft) S 187 ° 0 min 0,000 mm 0,0 UV-I 0 W/m² -3,8 °C 0,7 °C 0,0 km/h (0 Bft)
08.03.2018 22:44 0,4 °C 72 % 1008,1 hPa 0,0 mm 0,0 km/h (0 Bft) S 187 ° 0 min 0,000 mm 0,0 UV-I 0 W/m² -4,0 °C 0,4 °C 0,0 km/h (0 Bft)
08.03.2018 22:45 0,3 °C 73 % 1008,1 hPa 0,0 mm 0,0 km/h (0 Bft) S 187 ° 0 min 0,000 mm 0,0 UV-I 0 W/m² -4,0 °C 0,3 °C 0,0 km/h (0 Bft)
08.03.2018 22:46 0,3 °C 73 % 1008,1 hPa 0,0 mm 0,0 km/h (0 Bft) S 187 ° 0 min 0,000 mm 0,0 UV-I 0 W/m² -4,0 °C 0,3 °C 0,0 km/h (0 Bft)
08.03.2018 22:47 0,2 °C 74 % 1008,1 hPa 0,0 mm 0,0 km/h (0 Bft) S 187 ° 0 min 0,000 mm 0,0 UV-I 0 W/m² -3,9 °C 0,2 °C 0,0 km/h (0 Bft)
08.03.2018 22:48 0,1 °C 74 % 1008,1 hPa 0,0 mm 0,0 km/h (0 Bft) S 187 ° 0 min 0,000 mm 0,0 UV-I 0 W/m² -4,0 °C 0,1 °C 0,0 km/h (0 Bft)
08.03.2018 22:49 0,0 °C 74 % 1008,3 hPa 0,0 mm 0,0 km/h (0 Bft) S 187 ° 0 min 0,000 mm 0,0 UV-I 0 W/m² -4,1 °C 0,0 °C 0,0 km/h (0 Bft)
08.03.2018 22:50 0,0 °C 75 % 1008,2 hPa 0,0 mm 0,2 km/h (0 Bft) S 187 ° 0 min 0,000 mm 0,0 UV-I 0 W/m² -3,9 °C 0,0 °C 1,6 km/h (1 Bft)
08.03.2018 22:51 0,1 °C 75 % 1008,2 hPa 0,0 mm 1,9 km/h (1 Bft) S 187 ° 0 min 0,000 mm 0,0 UV-I 0 W/m² -3,8 °C 0,1 °C 3,2 km/h (1 Bft)
08.03.2018 22:52 0,2 °C 74 % 1008,2 hPa 0,0 mm 2,4 km/h (1 Bft) S 187 ° 0 min 0,000 mm 0,0 UV-I 0 W/m² -3,9 °C 0,2 °C 3,2 km/h (1 Bft)
08.03.2018 22:53 0,3 °C 74 % 1008,3 hPa 0,0 mm 4,6 km/h (1 Bft) S 187 ° 0 min 0,000 mm 0,0 UV-I 0 W/m² -3,8 °C -1,1 °C 6,4 km/h (2 Bft)
08.03.2018 22:54 0,4 °C 74 % 1008,3 hPa 0,0 mm 4,3 km/h (1 Bft) S 187 ° 0 min 0,000 mm 0,0 UV-I 0 W/m² -3,7 °C 0,4 °C 6,4 km/h (2 Bft)
08.03.2018 22:55 0,5 °C 74 % 1008,3 hPa 0,0 mm 2,6 km/h (1 Bft) S 187 ° 0 min 0,000 mm 0,0 UV-I 0 W/m² -3,6 °C 0,5 °C 4,8 km/h (1 Bft)
08.03.2018 22:56 0,6 °C 73 % 1008,3 hPa 0,0 mm 1,7 km/h (1 Bft) S 187 ° 0 min 0,000 mm 0,0 UV-I 0 W/m² -3,7 °C 0,6 °C 3,2 km/h (1 Bft)
08.03.2018 22:57 0,7 °C 73 % 1008,3 hPa 0,0 mm 3,0 km/h (1 Bft) S 187 ° 0 min 0,000 mm 0,0 UV-I 0 W/m² -3,6 °C 0,7 °C 6,4 km/h (2 Bft)
08.03.2018 22:58 0,7 °C 72 % 1008,2 hPa 0,0 mm 3,8 km/h (1 Bft) S 176 ° 0 min 0,000 mm 0,0 UV-I 0 W/m² -3,8 °C 0,7 °C 4,8 km/h (1 Bft)
08.03.2018 22:59 0,7 °C 72 % 1008,2 hPa 0,0 mm 6,4 km/h (2 Bft) S-SO 167 ° 0 min 0,000 mm 0,0 UV-I 0 W/m² -3,8 °C -1,4 °C 8,0 km/h (2 Bft)
08.03.2018 23:00 0,8 °C 72 % 1008,2 hPa 0,0 mm 6,6 km/h (2 Bft) S 173 ° 0 min 0,000 mm 0,0 UV-I 0 W/m² -3,7 °C -1,3 °C 8,0 km/h (2 Bft)
08.03.2018 23:01 0,8 °C 72 % 1008,2 hPa 0,0 mm 4,4 km/h (1 Bft) S 177 ° 0 min 0,026 mm 0,0 UV-I 0 W/m² -3,7 °C 0,8 °C 8,0 km/h (2 Bft)
08.03.2018 23:02 0,9 °C 71 % 1008,2 hPa 0,0 mm 4,1 km/h (1 Bft) S 177 ° 0 min 0,000 mm 0,0 UV-I 0 W/m² -3,7 °C 0,9 °C 6,4 km/h (2 Bft)
08.03.2018 23:03 1,0 °C 71 % 1008,2 hPa 0,0 mm 3,6 km/h (1 Bft) S 177 ° 0 min 0,000 mm 0,0 UV-I 0 W/m² -3,7 °C 1,0 °C 6,4 km/h (2 Bft)
08.03.2018 23:04 1,1 °C 70 % 1008,3 hPa 0,0 mm 1,5 km/h (1 Bft) S 177 ° 0 min 0,000 mm 0,0 UV-I 0 W/m² -3,7 °C 1,1 °C 4,8 km/h (1 Bft)
08.03.2018 23:05 1,1 °C 70 % 1008,3 hPa 0,0 mm 2,2 km/h (1 Bft) NW 308 ° 0 min 0,000 mm 0,0 UV-I 0 W/m² -3,7 °C 1,1 °C 4,8 km/h (1 Bft)
08.03.2018 23:06 1,0 °C 70 % 1008,2 hPa 0,0 mm 1,1 km/h (1 Bft) NW 312 ° 0 min 0,000 mm 0,0 UV-I 0 W/m² -3,8 °C 1,0 °C 3,2 km/h (1 Bft)
08.03.2018 23:07 0,7 °C 71 % 1008,3 hPa 0,0 mm 0,3 km/h (0 Bft) S-SW 210 ° 0 min 0,000 mm 0,0 UV-I 0 W/m² -3,9 °C 0,7 °C 1,6 km/h (1 Bft)
08.03.2018 23:08 0,6 °C 72 % 1008,3 hPa 0,0 mm 3,3 km/h (1 Bft) S-SW 203 ° 0 min 0,000 mm 0,0 UV-I 0 W/m² -3,9 °C 0,6 °C 6,4 km/h (2 Bft)
08.03.2018 23:09 0,6 °C 72 % 1008,2 hPa 0,0 mm 5,7 km/h (1 Bft) S 187 ° 0 min 0,000 mm 0,0 UV-I 0 W/m² -3,9 °C -1,2 °C 8,0 km/h (2 Bft)
08.03.2018 23:10 0,7 °C 71 % 1008,2 hPa 0,0 mm 3,4 km/h (1 Bft) S 186 ° 0 min 0,000 mm 0,0 UV-I 0 W/m² -3,9 °C 0,7 °C 4,8 km/h (1 Bft)
08.03.2018 23:11 0,8 °C 70 % 1008,3 hPa 0,0 mm 3,7 km/h (1 Bft) SW 217 ° 0 min 0,000 mm 0,0 UV-I 0 W/m² -4,0 °C 0,8 °C 6,4 km/h (2 Bft)
08.03.2018 23:12 0,9 °C 70 % 1008,3 hPa 0,0 mm 8,1 km/h (2 Bft) S-SW 213 ° 0 min 0,000 mm 0,0 UV-I 0 W/m² -3,9 °C -1,7 °C 11,3 km/h (2 Bft)
08.03.2018 23:13 1,0 °C 69 % 1008,4 hPa 0,0 mm 7,3 km/h (2 Bft) S-SW 210 ° 0 min 0,000 mm 0,0 UV-I 0 W/m² -4,0 °C -1,3 °C 12,9 km/h (3 Bft)
08.03.2018 23:14 1,1 °C 69 % 1008,3 hPa 0,0 mm 7,5 km/h (2 Bft) S-SW 211 ° 0 min 0,000 mm 0,0 UV-I 0 W/m² -3,9 °C -1,3 °C 11,3 km/h (2 Bft)
08.03.2018 23:15 1,2 °C 68 % 1008,3 hPa 0,0 mm 6,8 km/h (2 Bft) SW 219 ° 0 min 0,000 mm 0,0 UV-I 0 W/m² -4,0 °C -0,9 °C 11,3 km/h (2 Bft)
08.03.2018 23:16 1,1 °C 68 % 1008,3 hPa 0,0 mm 5,4 km/h (1 Bft) S-SW 196 ° 0 min 0,000 mm 0,0 UV-I 0 W/m² -4,1 °C -0,5 °C 8,0 km/h (2 Bft)
08.03.2018 23:17 1,2 °C 68 % 1008,2 hPa 0,0 mm 5,0 km/h (1 Bft) S-SW 194 ° 0 min 0,000 mm 0,0 UV-I 0 W/m² -4,0 °C -0,2 °C 6,4 km/h (2 Bft)
08.03.2018 23:18 1,3 °C 67 % 1008,3 hPa 0,0 mm 2,1 km/h (1 Bft) S-SW 194 ° 0 min 0,000 mm 0,0 UV-I 0 W/m² -4,1 °C 1,3 °C 4,8 km/h (1 Bft)
08.03.2018 23:19 1,4 °C 67 % 1008,3 hPa 0,0 mm 6,1 km/h (2 Bft) S-SW 193 ° 0 min 0,000 mm 0,0 UV-I 0 W/m² -4,0 °C -0,5 °C 12,9 km/h (3 Bft)
08.03.2018 23:20 1,6 °C 65 % 1008,3 hPa 0,0 mm 11,9 km/h (2 Bft) S-SW 204 ° 0 min 0,000 mm 0,0 UV-I 0 W/m² -4,3 °C -1,8 °C 14,5 km/h (3 Bft)
08.03.2018 23:21 1,7 °C 64 % 1008,3 hPa 0,0 mm 5,7 km/h (1 Bft) SW 215 ° 0 min 0,000 mm 0,0 UV-I 0 W/m² -4,4 °C 0,0 °C 11,3 km/h (2 Bft)
08.03.2018 23:22 1,8 °C 63 % 1008,3 hPa 0,0 mm 9,7 km/h (2 Bft) S-SW 207 ° 0 min 0,000 mm 0,0 UV-I 0 W/m² -4,5 °C -1,1 °C 14,5 km/h (3 Bft)
08.03.2018 23:23 1,9 °C 63 % 1008,3 hPa 0,0 mm 6,5 km/h (2 Bft) S 188 ° 0 min 0,000 mm 0,0 UV-I 0 W/m² -4,4 °C -0,0 °C 9,7 km/h (2 Bft)
08.03.2018 23:24 2,0 °C 63 % 1008,4 hPa 0,0 mm 10,6 km/h (2 Bft) S-SW 210 ° 0 min 0,000 mm 0,0 UV-I 0 W/m² -4,3 °C -1,1 °C 14,5 km/h (3 Bft)
08.03.2018 23:25 2,2 °C 63 % 1008,3 hPa 0,0 mm 9,5 km/h (2 Bft) S-SW 207 ° 0 min 0,000 mm 0,0 UV-I 0 W/m² -4,1 °C -0,6 °C 11,3 km/h (2 Bft)
08.03.2018 23:26 2,2 °C 62 % 1008,4 hPa 0,0 mm 9,2 km/h (2 Bft) S 176 ° 0 min 0,000 mm 0,0 UV-I 0 W/m² -4,3 °C -0,5 °C 14,5 km/h (3 Bft)
08.03.2018 23:27 2,2 °C 62 % 1008,4 hPa 0,0 mm 8,5 km/h (2 Bft) S-SW 207 ° 0 min 0,000 mm 0,0 UV-I 0 W/m² -4,3 °C -0,3 °C 12,9 km/h (3 Bft)
08.03.2018 23:28 2,2 °C 62 % 1008,4 hPa 0,0 mm 11,5 km/h (2 Bft) SW 224 ° 0 min 0,000 mm 0,0 UV-I 0 W/m² -4,3 °C -1,0 °C 17,7 km/h (3 Bft)
08.03.2018 23:29 2,2 °C 62 % 1008,3 hPa 0,0 mm 5,8 km/h (2 Bft) S-SW 193 ° 0 min 0,000 mm 0,0 UV-I 0 W/m² -4,3 °C 0,6 °C 9,7 km/h (2 Bft)
08.03.2018 23:30 2,2 °C 61 % 1008,3 hPa 0,0 mm 6,9 km/h (2 Bft) S-SW 210 ° 0 min 0,000 mm 0,0 UV-I 0 W/m² -4,5 °C 0,2 °C 9,7 km/h (2 Bft)
08.03.2018 23:31 2,2 °C 62 % 1008,3 hPa 0,0 mm 7,0 km/h (2 Bft) S-SW 192 ° 0 min 0,000 mm 0,0 UV-I 0 W/m² -4,3 °C 0,2 °C 11,3 km/h (2 Bft)
08.03.2018 23:32 2,2 °C 63 % 1008,4 hPa 0,0 mm 9,9 km/h (2 Bft) S 188 ° 0 min 0,000 mm 0,0 UV-I 0 W/m² -4,1 °C -0,7 °C 12,9 km/h (3 Bft)
08.03.2018 23:33 2,2 °C 61 % 1008,4 hPa 0,0 mm 10,0 km/h (2 Bft) S-SW 207 ° 0 min 0,000 mm 0,0 UV-I 0 W/m² -4,5 °C -0,7 °C 12,9 km/h (3 Bft)
08.03.2018 23:34 2,3 °C 61 % 1008,4 hPa 0,0 mm 9,7 km/h (2 Bft) S 179 ° 0 min 0,000 mm 0,0 UV-I 0 W/m² -4,4 °C -0,5 °C 12,9 km/h (3 Bft)
08.03.2018 23:35 2,3 °C 61 % 1008,4 hPa 0,0 mm 8,0 km/h (2 Bft) S-SW 211 ° 0 min 0,000 mm 0,0 UV-I 0 W/m² -4,4 °C -0,0 °C 11,3 km/h (2 Bft)
08.03.2018 23:36 2,3 °C 61 % 1008,4 hPa 0,0 mm 11,5 km/h (2 Bft) S 187 ° 0 min 0,000 mm 0,0 UV-I 0 W/m² -4,4 °C -0,9 °C 16,1 km/h (3 Bft)
08.03.2018 23:37 2,4 °C 59 % 1008,4 hPa 0,0 mm 11,8 km/h (2 Bft) S 179 ° 0 min 0,000 mm 0,0 UV-I 0 W/m² -4,8 °C -0,9 °C 16,1 km/h (3 Bft)
08.03.2018 23:38 2,5 °C 60 % 1008,4 hPa 0,0 mm 9,9 km/h (2 Bft) S-SW 211 ° 0 min 0,000 mm 0,0 UV-I 0 W/m² -4,5 °C -0,3 °C 12,9 km/h (3 Bft)
08.03.2018 23:39 2,4 °C 60 % 1008,5 hPa 0,0 mm 6,9 km/h (2 Bft) S-SW 203 ° 0 min 0,000 mm 0,0 UV-I 0 W/m² -4,6 °C 0,4 °C 11,3 km/h (2 Bft)
08.03.2018 23:40 2,4 °C 61 % 1008,4 hPa 0,0 mm 7,2 km/h (2 Bft) S-SW 200 ° 0 min 0,000 mm 0,0 UV-I 0 W/m² -4,3 °C 0,3 °C 9,7 km/h (2 Bft)
08.03.2018 23:41 2,4 °C 61 % 1008,4 hPa 0,0 mm 8,0 km/h (2 Bft) SW 221 ° 0 min 0,000 mm 0,0 UV-I 0 W/m² -4,3 °C 0,1 °C 9,7 km/h (2 Bft)
08.03.2018 23:42 2,4 °C 61 % 1008,5 hPa 0,0 mm 10,3 km/h (2 Bft) SW 228 ° 0 min 0,000 mm 0,0 UV-I 0 W/m² -4,3 °C -0,5 °C 12,9 km/h (3 Bft)
08.03.2018 23:43 2,3 °C 61 % 1008,4 hPa 0,0 mm 7,2 km/h (2 Bft) S-SW 202 ° 0 min 0,000 mm 0,0 UV-I 0 W/m² -4,4 °C 0,2 °C 11,3 km/h (2 Bft)
08.03.2018 23:44 2,3 °C 61 % 1008,5 hPa 0,0 mm 6,3 km/h (2 Bft) S-SW 205 ° 0 min 0,000 mm 0,0 UV-I 0 W/m² -4,4 °C 0,5 °C 9,7 km/h (2 Bft)
08.03.2018 23:45 2,2 °C 60 % 1008,4 hPa 0,0 mm 7,2 km/h (2 Bft) S-SW 198 ° 0 min 0,000 mm 0,0 UV-I 0 W/m² -4,7 °C 0,1 °C 14,5 km/h (3 Bft)
08.03.2018 23:46 2,3 °C 60 % 1008,4 hPa 0,0 mm 9,1 km/h (2 Bft) S-SW 192 ° 0 min 0,000 mm 0,0 UV-I 0 W/m² -4,6 °C -0,3 °C 12,9 km/h (3 Bft)
08.03.2018 23:47 2,3 °C 60 % 1008,4 hPa 0,0 mm 6,2 km/h (2 Bft) S 174 ° 0 min 0,000 mm 0,0 UV-I 0 W/m² -4,6 °C 0,5 °C 11,3 km/h (2 Bft)
08.03.2018 23:48 2,4 °C 59 % 1008,4 hPa 0,0 mm 7,1 km/h (2 Bft) S-SW 203 ° 0 min 0,000 mm 0,0 UV-I 0 W/m² -4,8 °C 0,4 °C 11,3 km/h (2 Bft)
08.03.2018 23:49 2,7 °C 58 % 1008,4 hPa 0,0 mm 4,2 km/h (1 Bft) S-SW 196 ° 0 min 0,000 mm 0,0 UV-I 0 W/m² -4,7 °C 2,7 °C 6,4 km/h (2 Bft)
08.03.2018 23:50 2,8 °C 57 % 1008,4 hPa 0,0 mm 5,8 km/h (2 Bft) S 181 ° 0 min 0,000 mm 0,0 UV-I 0 W/m² -4,9 °C 1,3 °C 8,0 km/h (2 Bft)
08.03.2018 23:51 2,9 °C 56 % 1008,4 hPa 0,0 mm 5,4 km/h (1 Bft) S-SW 194 ° 0 min 0,000 mm 0,0 UV-I 0 W/m² -5,0 °C 1,5 °C 6,4 km/h (2 Bft)
08.03.2018 23:52 3,1 °C 55 % 1008,4 hPa 0,0 mm 3,3 km/h (1 Bft) S-SW 207 ° 0 min 0,000 mm 0,0 UV-I 0 W/m² -5,0 °C 3,1 °C 6,4 km/h (2 Bft)
08.03.2018 23:53 3,2 °C 54 % 1008,4 hPa 0,0 mm 3,0 km/h (1 Bft) S-SW 207 ° 0 min 0,000 mm 0,0 UV-I 0 W/m² -5,2 °C 3,2 °C 4,8 km/h (1 Bft)
08.03.2018 23:54 3,4 °C 54 % 1008,4 hPa 0,0 mm 2,6 km/h (1 Bft) S-SW 212 ° 0 min 0,000 mm 0,0 UV-I 0 W/m² -5,0 °C 3,4 °C 4,8 km/h (1 Bft)
08.03.2018 23:55 3,6 °C 53 % 1008,4 hPa 0,0 mm 3,1 km/h (1 Bft) SW 214 ° 0 min 0,000 mm 0,0 UV-I 0 W/m² -5,1 °C 3,6 °C 4,8 km/h (1 Bft)
08.03.2018 23:56 3,7 °C 52 % 1008,4 hPa 0,0 mm 4,7 km/h (1 Bft) W-SW 250 ° 0 min 0,000 mm 0,0 UV-I 0 W/m² -5,2 °C 2,7 °C 8,0 km/h (2 Bft)
08.03.2018 23:57 3,8 °C 52 % 1008,4 hPa 0,0 mm 5,2 km/h (1 Bft) SW 220 ° 0 min 0,000 mm 0,0 UV-I 0 W/m² -5,1 °C 2,6 °C 8,0 km/h (2 Bft)
08.03.2018 23:58 4,0 °C 51 % 1008,5 hPa 0,0 mm 1,6 km/h (1 Bft) SW 220 ° 0 min 0,000 mm 0,0 UV-I 0 W/m² -5,2 °C 4,0 °C 3,2 km/h (1 Bft)
08.03.2018 23:59 4,0 °C 52 % 1008,5 hPa 0,0 mm 4,1 km/h (1 Bft) W-SW 257 ° 0 min 0,000 mm 0,0 UV-I 0 W/m² -4,9 °C 4,0 °C 9,7 km/h (2 Bft)
_ Min-Zeit 22:50 15:34 00:04 - 22:49 - - - - - - 15:34 06:23 22:49
Minimum _ 0,0 °C 32 % 1004,5 hPa - 0,0 km/h (0 Bft) - - - - - - -6,9 °C -3,7 °C 0,0 km/h (0 Bft)
_ Max-Zeit 14:17 06:11 08:42 23:59 00:18 - - 15:32 15:01 12:41 12:35 11:04 13:57 00:24
Maximum _ 9,3 °C 89 % 1008,7 hPa 0,0 mm 22,5 km/h
W-NW (4 Bft)
- - 1 min 0,280 mm 3,7 UV-I 714 W/m² -0,4 °C 9,1 °C 30,6 km/h
W-SW (5 Bft)
Durchschnitt _ 3,9 °C 66 % 1006,8 hPa #0,0 mm 5,4 km/h (1 Bft) W - #4:41 h #1,880 mm 2,1 UV-I 137 W/m² -2,5 °C 2,8 °C 8,7 km/h (2 Bft)